[[{"header":{"parameterUnit":"m.s-1","parameterCategory":1,"la1":31.0,"la2":29.5877,"lo1":-88.7671,"lo2":-86.6584,"dy":0.0162,"dx":0.0185,"nx":115,"ny":88,"refTime":"2023-09-24T12:00:00:Z","depth":0,"parameterNumber":2,"parameterNumberName":"U-component_of_WINDS"},"data":[0.0,0.0,0.0,0.0,0.0,0.0,0.0,0.0,0.0,0.0,0.0,0.0,0.0,0.0,0.0,0.0,0.0,0.0,0.0,0.0,0.0,0.0,0.0,0.0,0.0,0.0,0.0,0.0,0.0,0.0,0.0,0.0,0.0,0.0,0.0,0.0,0.0,0.0,0.0,0.0,0.0,0.0,0.0,0.0,0.0,0.0,0.0,0.0,0.0,0.0,0.0,0.0,0.0,0.0,0.0,0.0,0.0,0.0,0.0,0.0,0.0,0.0,0.0,0.0,0.0,0.0,0.0,0.0,0.0,0.0,0.0,0.0,0.0,0.0,0.0,0.0,0.0,0.0,0.0,0.0,0.0,0.0,0.0,0.0,0.0,0.0,0.0,0.0,0.0,0.0,0.0,0.0,0.0,0.0,0.0,0.0,0.0,0.0,0.0,0.0,0.0,0.0,0.0,0.0,0.0,0.0,0.0,0.0,0.0,0.0,0.0,0.0,0.0,0.0,0.0,0.0,0.0,0.0,0.0,0.0,0.0,0.0,0.0,0.0,0.0,0.0,0.0,0.0,0.0,0.0,0.0,0.0,0.0,0.0,0.0,0.0,0.0,0.0,0.0,0.0,0.0,0.0,0.0,0.0,0.0,0.0,0.0,0.0,0.0,0.0,0.0,0.0,0.0,0.0,0.0,0.0,0.0,0.0,0.0,0.0,0.0,0.0,0.0,0.0,0.0,0.0,0.0,0.0,0.0,0.0,0.0,0.0,0.0,0.0,0.0,0.0,0.0,0.0,0.0,0.0,0.0,0.0,0.0,0.0,0.0,0.0,0.0,0.0,0.0,0.0,0.0,0.0,0.0,0.0,0.0,0.0,0.0,0.0,0.0,0.0,0.0,0.0,0.0,0.0,0.0,0.0,0.0,0.0,0.0,0.0,0.0,0.0,0.0,0.0,0.0,0.0,0.0,0.0,0.0,0.0,0.0,0.0,0.0,0.0,0.0,0.0,0.0,0.0,0.0,0.0,0.0,0.0,0.0,0.0,0.0,0.0,0.0,0.0,0.0,0.0,0.0,0.0,0.0,0.0,0.0,0.0,0.0,0.0,0.0,0.0,0.0,0.0,0.0,0.0,0.0,0.0,0.0,0.0,0.0,0.0,0.0,0.0,0.0,0.0,0.0,0.0,0.0,0.0,0.0,0.0,0.0,0.0,0.0,0.0,0.0,0.0,0.0,0.0,0.0,0.0,0.0,0.0,0.0,0.0,0.0,0.0,0.0,0.0,0.0,0.0,0.0,0.0,0.0,0.0,0.0,0.0,0.0,0.0,0.0,0.0,0.0,0.0,0.0,0.0,0.0,0.0,0.0,0.0,0.0,0.0,0.0,0.0,0.0,0.0,0.0,0.0,0.0,0.0,0.0,0.0,0.0,0.0,0.0,0.0,0.0,0.0,0.0,0.0,0.0,0.0,0.0,0.0,0.0,0.0,0.0,0.0,0.0,0.0,0.0,0.0,0.0,0.0,0.0,0.0,0.0,0.0,0.0,0.0,0.0,0.0,0.0,0.0,0.0,0.0,0.0,0.0,0.0,0.0,0.0,0.0,0.0,0.0,0.0,0.0,0.0,0.0,0.0,0.0,0.0,0.0,0.0,0.0,0.0,0.0,0.0,0.0,0.0,0.0,0.0,0.0,0.0,0.0,0.0,0.0,0.0,0.0,0.0,0.0,0.0,0.0,0.0,0.0,0.0,0.0,0.0,0.0,0.0,0.0,0.0,0.0,0.0,0.0,0.0,0.0,0.0,0.0,0.0,0.0,0.0,0.0,0.0,0.0,0.0,0.0,0.0,0.0,0.0,0.0,0.0,0.0,0.0,0.0,0.0,0.0,0.0,0.0,0.0,0.0,0.0,0.0,0.0,0.0,0.0,0.0,0.0,0.0,0.0,0.0,0.0,0.0,0.0,0.0,0.0,0.0,0.0,0.0,0.0,0.0,0.0,0.0,0.0,0.0,0.0,0.0,0.0,0.0,0.0,0.0,0.0,0.0,0.0,0.0,0.0,0.0,0.0,0.0,0.0,0.0,0.0,0.0,0.0,0.0,0.0,0.0,0.0,0.0,0.0,0.0,0.0,0.0,0.0,0.0,0.0,0.0,0.0,0.0,0.0,0.0,0.0,0.0,0.0,0.0,0.0,0.0,0.0,0.0,0.0,0.0,0.0,0.0,0.0,0.0,0.0,0.0,0.0,0.0,0.0,0.0,0.0,0.0,0.0,0.0,0.0,0.0,0.0,0.0,0.0,0.0,0.0,0.0,0.0,0.0,0.0,0.0,0.0,0.0,0.0,0.0,0.0,0.0,0.0,0.0,0.0,0.0,0.0,0.0,0.0,0.0,0.0,0.0,0.0,0.0,0.0,0.0,0.0,0.0,0.0,0.0,0.0,0.0,0.0,0.0,0.0,0.0,0.0,0.0,0.0,0.0,0.0,0.0,0.0,0.0,0.0,0.0,0.0,0.0,0.0,0.0,0.0,0.0,0.0,0.0,0.0,0.0,0.0,0.0,0.0,0.0,0.0,0.0,0.0,0.0,0.0,0.0,0.0,0.0,0.0,0.0,0.0,0.0,0.0,0.0,0.0,0.0,0.0,0.0,0.0,0.0,0.0,0.0,0.0,0.0,0.0,0.0,0.0,0.0,0.0,0.0,0.0,0.0,0.0,0.0,0.0,0.0,0.0,0.0,0.0,0.0,0.0,0.0,0.0,0.0,0.0,0.0,0.0,0.0,0.0,0.0,0.0,0.0,0.0,0.0,0.0,0.0,0.0,0.0,0.0,0.0,0.0,0.0,0.0,0.0,0.0,0.0,0.0,0.0,0.0,0.0,0.0,0.0,0.0,0.0,0.0,0.0,0.0,0.0,0.0,0.0,0.0,0.0,0.0,0.0,0.0,0.0,0.0,0.0,0.0,0.0,0.0,0.0,0.0,0.0,0.0,0.0,0.0,0.0,0.0,0.0,0.0,0.0,0.0,0.0,0.0,0.0,0.0,0.0,0.0,0.0,0.0,0.0,0.0,0.0,0.0,0.0,0.0,0.0,0.0,0.0,0.0,0.0,0.0,0.0,0.0,0.0,0.0,0.0,0.0,0.0,0.0,0.0,0.0,0.0,0.0,0.0,0.0,0.0,0.0,0.0,0.0,0.0,0.0,0.0,0.0,0.0,0.0,0.0,0.0,0.0,0.0,0.0,0.0,0.0,0.0,0.0,0.0,0.0,0.0,0.0,0.0,0.0,0.0,0.0,0.0,0.0,0.0,0.0,0.0,0.0,0.0,0.0,0.0,0.0,0.0,0.0,0.0,0.0,0.0,0.0,0.0,0.0,0.0,0.0,0.0,0.0,0.0,0.0,0.0,0.0,0.0,0.0,0.0,0.0,0.0,0.0,0.0,0.0,0.0,0.0,0.0,0.0,0.0,0.0,0.0,0.0,0.0,0.0,0.0,0.0,0.0,0.0,0.0,0.0,0.0,0.0,0.0,0.0,0.0,0.0,0.0,0.0,0.0,0.0,0.0,0.0,0.0,0.0,0.0,0.0,0.0,0.0,0.0,0.0,0.0,0.0,0.0,0.0,0.0,0.0,0.0,0.0,0.0,0.0,0.0,0.0,0.0,0.0,0.0,0.0,0.0,0.0,0.0,0.0,0.0,0.0,0.0,0.0,0.0,0.0,0.0,0.0,0.0,0.0,0.0,0.0,0.0,0.0,0.0,0.0,0.0,0.0,0.0,0.0,0.0,0.0,0.0,0.0,0.0,0.0,0.0,0.0,0.0,0.0,0.0,0.0,0.0,0.0,0.0,0.0,0.0,0.0,0.0,0.0,0.0,0.0,0.0,0.0,0.0,0.0,0.0,0.0,0.0,0.0,0.0,0.0,0.0,0.0,0.0,0.0,0.0,0.0,0.0,0.0,0.0,0.0,0.0,0.0,0.0,0.0,0.0,0.0,0.0,0.0,0.0,0.0,0.0,0.0,0.0,0.0,0.0,0.0,0.0,0.0,0.0,0.0,0.0,0.0,0.0,0.0,0.0,0.0,0.0,0.0,0.0,0.0,0.0,0.0,0.0,0.0,0.0,0.0,0.0,0.0,0.0,0.0,0.0,0.0,0.0,0.0,0.0,0.0,0.0,0.0,0.0,0.0,0.0,0.0,0.0,0.0,0.0,0.0,0.0,0.0,0.0,0.0,0.0,0.0,0.0,0.0,0.0,0.0,0.0,0.0,0.0,0.0,0.0,0.0,1.4163,0.0,0.0,0.0,0.0,0.0,0.0,0.0,0.0,0.0,0.0,0.0,0.0,0.0,0.0,0.0,0.0,0.0,0.0,0.0,0.0,0.0,0.0,0.0,0.0,0.0,0.0,0.0,0.0,0.0,0.0,0.0,0.0,0.0,0.0,0.0,0.0,0.0,0.0,0.0,0.0,0.0,0.0,0.0,0.0,0.0,0.0,0.0,0.0,0.0,0.0,0.0,0.0,0.0,0.0,0.0,0.0,0.0,0.0,0.0,0.0,0.0,0.0,0.0,0.0,0.0,0.0,0.0,0.0,0.0,0.0,0.0,0.0,0.0,0.0,0.0,0.0,0.0,0.0,0.0,0.0,0.0,0.0,0.0,0.0,0.0,0.0,0.0,0.0,0.0,0.0,0.0,0.0,0.0,0.0,0.0,0.0,0.0,0.0,0.0,0.0,0.0,0.0,0.0,0.0,0.0,0.0,0.0,0.0,0.0,0.0,1.3771,1.4146,1.4267,1.4272,1.42,0.0,0.0,0.0,0.0,0.0,0.0,0.0,0.0,0.0,0.0,0.0,0.0,0.0,0.0,0.0,0.0,0.0,0.0,0.0,0.0,0.0,0.0,0.0,0.0,0.0,0.0,0.0,0.0,0.0,0.0,0.0,0.0,0.0,0.0,0.0,0.0,0.0,0.0,0.0,0.0,0.0,0.0,0.0,0.0,0.0,0.0,0.0,0.0,0.0,0.0,0.0,0.0,0.0,0.0,0.0,0.0,0.0,0.0,0.0,0.0,0.0,0.0,0.0,0.0,0.0,0.0,0.0,0.0,0.0,0.0,0.0,0.0,0.0,0.0,0.0,0.0,0.0,0.0,0.0,0.0,0.0,0.0,0.0,0.0,0.0,0.0,0.0,0.0,0.0,0.0,0.0,0.0,0.0,0.0,0.0,0.0,0.0,0.0,0.0,0.0,0.0,0.0,0.0,0.0,0.0,0.0,0.0,0.0,0.0,0.0,0.0,0.0,1.4442,1.4364,1.4215,0.0,0.0,0.0,0.0,0.0,0.0,0.0,0.0,0.0,0.0,0.0,0.0,0.0,0.0,0.0,0.0,0.0,0.0,0.0,0.0,0.0,0.0,0.0,0.0,0.0,0.0,0.0,0.0,0.0,0.0,0.0,0.0,0.0,0.0,0.0,0.0,0.0,0.0,0.0,0.0,0.0,0.0,0.0,0.0,0.0,0.0,0.0,0.0,0.0,0.0,0.0,0.0,0.0,0.0,0.0,0.0,0.0,0.0,0.0,0.0,0.0,0.0,0.0,0.0,0.0,0.0,0.0,0.0,0.0,0.0,0.0,0.0,0.0,0.0,0.0,0.0,0.0,0.0,0.0,0.0,0.0,0.0,0.0,0.0,0.0,0.0,0.0,0.0,0.0,0.0,0.0,0.0,0.0,0.0,0.0,0.0,0.0,0.0,0.0,0.0,0.0,0.0,0.0,0.0,0.0,0.0,0.0,0.0,0.0,0.0,1.433,1.4574,1.4747,0.0,1.4056,0.0,0.0,0.0,0.0,0.0,0.0,0.0,0.0,0.0,0.0,0.0,0.0,0.0,0.0,0.0,0.0,0.0,0.0,0.0,0.0,0.0,0.0,0.0,0.0,0.0,0.0,0.0,0.0,0.0,0.0,0.0,0.0,0.0,0.0,0.0,0.0,0.0,0.0,0.0,0.0,0.0,0.0,0.0,0.0,0.0,0.0,0.0,0.0,0.0,0.0,0.0,0.0,0.0,0.0,0.0,0.0,0.0,0.0,0.0,0.0,0.0,0.0,0.0,0.0,0.0,0.0,0.0,0.0,0.0,0.0,0.0,0.0,0.0,0.0,0.0,0.0,0.0,0.0,0.0,0.0,0.0,0.0,0.0,0.0,0.0,0.0,0.0,0.0,0.0,0.0,0.0,0.0,0.0,0.0,0.0,0.0,0.0,0.0,0.0,0.0,0.0,0.0,0.0,0.0,0.0,0.0,0.0,0.0,0.0,0.0,1.4221,1.5054,1.4807,1.4457,0.0,0.0,0.0,0.0,0.0,0.0,0.0,0.0,0.0,0.0,0.0,0.0,0.0,0.0,0.0,0.0,0.0,0.0,0.0,0.0,0.0,0.0,0.0,0.0,0.0,0.0,0.0,0.0,0.0,0.0,0.0,0.0,0.0,0.0,0.0,0.0,0.0,0.0,0.0,0.0,0.0,0.0,0.0,0.0,0.0,0.0,0.0,0.0,0.0,0.0,0.0,0.0,0.0,0.0,0.0,0.0,0.0,0.0,0.0,0.0,0.0,0.0,0.0,0.0,0.0,0.0,0.0,0.0,0.0,0.0,0.0,0.0,0.0,0.0,0.0,0.0,0.0,0.0,0.0,0.0,0.0,0.0,0.0,0.0,0.0,0.0,0.0,0.0,0.0,0.0,0.0,0.0,0.0,0.0,0.0,0.0,0.0,0.0,0.0,0.0,0.0,0.0,0.0,0.0,0.0,0.0,0.0,0.0,0.0,0.0,1.3541,1.403,1.5101,1.4614,1.4185,1.3954,0.0,0.0,0.0,0.0,0.0,0.0,0.0,0.0,0.0,0.0,0.0,0.0,0.0,0.0,0.0,0.0,0.0,0.0,0.0,0.0,0.0,0.0,0.0,0.0,0.0,0.0,0.0,0.0,0.0,0.0,0.0,0.0,0.0,0.0,0.0,0.0,0.0,0.0,0.0,0.0,0.0,0.0,0.0,0.0,0.0,0.0,0.0,0.0,0.0,0.0,0.0,0.0,0.0,0.0,0.0,0.0,0.0,0.0,0.0,0.0,0.0,0.0,0.0,0.0,0.0,0.0,0.0,0.0,0.0,0.0,0.0,0.0,0.0,0.0,0.0,0.0,0.0,0.0,0.0,0.0,0.0,0.0,0.0,0.0,0.0,0.0,0.0,0.0,0.0,0.0,0.0,0.0,0.0,0.0,0.0,0.0,0.0,0.0,0.0,0.0,0.0,0.0,0.0,0.0,0.0,0.0,0.0,0.0,1.2929,1.3305,1.387,1.4692,1.4139,1.3836,0.0,0.0,0.0,0.0,0.0,0.0,0.0,0.0,0.0,0.0,0.0,0.0,0.0,0.0,0.0,0.0,0.0,0.0,0.0,0.0,0.0,0.0,0.0,0.0,0.0,0.0,0.0,0.0,0.0,0.0,0.0,0.0,0.0,0.0,0.0,0.0,0.0,0.0,0.0,0.0,0.0,0.0,0.0,0.0,0.0,0.0,0.0,0.0,0.0,0.0,0.0,0.0,0.0,0.0,0.0,0.0,0.0,0.0,0.0,0.0,0.0,0.0,0.0,0.0,0.0,0.0,0.0,0.0,0.0,0.0,0.0,0.0,0.0,0.0,0.0,0.0,0.0,0.0,0.0,0.0,0.0,0.0,0.0,0.0,0.0,0.0,0.0,0.0,0.0,0.0,0.0,0.0,0.0,0.0,0.0,0.0,0.0,0.0,0.0,0.0,0.0,0.0,0.0,0.0,0.0,0.0,0.0,0.0,0.0,1.2863,1.354,1.3937,1.4041,1.3776,1.3601,0.0,0.0,0.0,0.0,0.0,0.0,0.0,0.0,0.0,0.0,0.0,0.0,0.0,0.0,0.0,0.0,0.0,0.0,0.0,0.0,0.0,0.0,0.0,0.0,0.0,0.0,0.0,0.0,0.0,0.0,0.0,0.0,0.0,0.0,0.0,0.0,0.0,0.0,0.0,0.0,0.0,0.0,0.0,0.0,0.0,0.0,0.0,0.0,0.0,0.0,0.0,0.0,0.0,0.0,0.0,0.0,0.0,0.0,0.0,0.0,0.0,0.0,0.0,0.0,0.0,0.0,0.0,0.0,0.0,0.0,0.0,0.0,0.0,0.0,0.0,0.0,0.0,0.0,0.0,0.0,0.0,0.0,0.0,0.0,0.0,0.0,0.0,0.0,0.0,0.0,0.0,0.0,0.0,0.0,0.0,0.0,0.0,0.0,0.0,0.0,0.0,0.0,0.0,0.0,0.0,0.0,0.0,0.0,0.0,1.2566,0.0,1.3498,1.3379,1.3109,1.2989,0.0,0.0,0.0,0.0,0.0,0.0,0.0,0.0,0.0,0.0,0.0,0.0,0.0,0.0,0.0,0.0,0.0,0.0,0.0,0.0,0.0,0.0,0.0,0.0,0.0,0.0,0.0,0.0,0.0,0.0,0.0,0.0,0.0,0.0,0.0,0.0,0.0,0.0,0.0,0.0,0.0,0.0,0.0,0.0,0.0,0.0,0.0,0.0,0.0,0.0,0.0,0.0,0.0,0.0,0.0,0.0,0.0,0.0,0.0,0.0,0.0,0.0,0.0,0.0,0.0,0.0,0.0,0.0,0.0,0.0,0.0,0.0,0.0,0.0,0.0,0.0,0.0,0.0,0.0,0.0,0.0,0.0,0.0,0.0,0.0,0.0,0.0,0.0,0.0,0.0,0.0,0.0,0.0,0.0,0.0,0.0,0.0,0.0,0.0,0.0,0.0,0.0,0.0,0.0,0.0,0.0,0.0,0.0,1.1138,1.1875,1.224,1.2509,1.2677,1.2195,1.1918,0.0,0.0,0.0,0.0,0.0,0.0,0.0,0.0,0.0,0.0,0.0,0.0,0.0,0.0,0.0,0.0,0.0,0.0,0.0,0.0,0.0,0.0,0.0,0.0,0.0,0.0,0.0,0.0,0.0,0.0,0.0,0.0,0.0,0.0,0.0,0.0,0.0,0.0,0.0,0.0,0.0,0.0,0.0,0.0,0.0,0.0,0.0,0.0,0.0,0.0,0.0,0.0,0.0,0.0,0.0,0.0,0.0,0.0,0.0,0.0,0.0,0.0,0.0,0.0,0.0,0.0,0.0,0.0,0.0,0.0,0.0,0.0,0.0,0.0,0.0,0.0,0.0,0.0,0.0,0.0,0.0,0.0,0.0,0.0,0.0,0.0,0.0,0.0,0.0,0.0,0.0,0.0,0.0,0.0,0.0,0.0,0.0,0.0,0.0,0.0,0.0,0.0,0.0,0.0,0.0,0.0,0.0,0.0,0.0,1.1177,1.163,1.1882,1.1937,1.1755,1.1481,0.0,0.0,0.0,0.0,0.0,0.0,0.0,0.0,0.0,0.0,0.0,0.0,0.0,0.0,0.0,0.0,0.0,0.0,0.0,0.0,0.0,0.0,0.0,0.0,0.0,0.0,0.0,0.0,0.0,0.0,0.0,0.0,0.0,0.0,0.0,0.0,0.0,0.0,0.0,0.0,0.0,0.0,0.0,0.0,0.0,0.0,0.0,0.0,0.0,0.0,0.0,0.0,0.0,0.0,0.0,0.0,0.0,0.0,0.0,0.0,0.0,0.0,0.0,0.0,0.0,0.0,0.0,0.0,0.0,0.0,0.0,0.0,0.0,0.0,0.0,0.0,0.0,0.0,0.0,0.0,0.0,0.0,0.0,0.0,0.0,0.0,0.0,0.0,0.0,0.0,0.0,0.0,0.0,0.0,0.0,0.0,0.0,0.0,0.0,0.0,0.0,0.0,0.0,0.0,0.0,0.0,0.0,0.0,0.0,1.0622,1.1127,1.1381,1.1381,1.1249,1.1017,1.0696,0.0,0.0,0.0,0.0,0.0,0.0,0.0,0.0,0.0,0.0,0.0,0.0,0.0,0.0,0.0,0.0,0.0,0.0,0.0,0.0,0.0,0.0,0.0,0.0,0.0,0.0,0.0,0.0,0.0,0.0,0.0,0.0,0.0,0.0,0.0,0.0,0.0,0.0,0.0,0.0,0.0,0.0,0.0,0.0,0.0,0.0,0.0,0.0,0.0,0.0,0.0,0.0,0.0,0.0,0.0,0.0,0.0,0.0,0.0,0.0,0.0,0.0,0.0,0.0,0.0,0.0,0.0,0.0,0.0,0.0,0.0,0.0,0.0,0.0,0.0,0.0,0.0,0.0,0.0,0.0,0.0,0.0,0.0,0.0,0.0,0.0,0.0,0.0,0.0,0.0,0.0,0.0,0.0,0.0,0.0,0.0,0.0,0.0,0.0,0.0,0.0,0.0,0.0,0.0,0.0,0.0,0.0,0.0,1.0199,1.0765,1.1038,1.1028,1.075,1.0519,0.0,0.0,0.0,0.0,0.0,0.0,0.0,0.0,0.0,0.0,0.0,0.0,0.0,0.0,0.0,0.0,0.0,0.0,0.0,0.0,0.0,0.0,0.0,0.0,0.0,0.0,0.0,0.0,0.0,0.0,0.0,0.0,0.0,0.0,0.0,0.0,0.0,0.0,0.0,0.0,0.0,0.0,0.0,0.0,0.0,0.0,0.0,0.0,0.0,0.0,0.0,0.0,0.0,0.0,0.0,0.0,0.0,0.0,0.0,0.0,0.0,0.0,0.0,0.0,0.0,0.0,0.0,0.0,0.0,0.0,0.0,0.0,0.0,0.0,0.0,0.0,0.0,0.0,0.0,0.0,0.0,0.0,0.0,0.0,0.0,0.0,0.0,0.0,0.0,0.0,0.0,0.0,0.0,0.0,0.0,0.0,0.0,0.0,0.0,0.0,0.0,0.0,0.0,0.0,0.0,0.0,0.0,0.0,0.0,1.0432,1.1057,1.1308,1.1144,1.0942,1.0641,0.0,0.0,0.0,0.0,0.0,0.0,0.0,0.0,0.0,0.0,0.0,0.0,0.0,0.0,0.0,0.0,0.0,0.0,0.0,0.0,0.0,0.0,0.0,0.0,0.0,0.0,0.0,0.0,0.0,0.0,0.0,0.0,0.0,0.0,0.0,0.0,0.0,0.0,0.0,0.0,0.0,0.0,0.0,0.0,0.0,0.0,0.0,0.0,0.0,0.0,0.0,0.0,0.0,0.0,0.0,0.0,0.0,0.0,0.0,0.0,0.0,0.0,0.0,0.0,0.0,0.0,0.0,0.0,0.0,0.0,0.0,0.0,0.0,0.0,0.0,0.0,0.0,0.0,0.0,0.0,0.0,0.0,0.0,0.0,0.0,0.0,0.0,0.0,0.0,0.0,0.0,0.0,0.0,0.0,0.0,0.0,0.0,0.0,0.0,0.0,0.0,0.0,0.0,0.0,0.0,0.0,0.0,0.0,0.9997,1.0497,1.1318,1.1702,1.1595,1.1142,1.0745,0.0,0.0,0.0,0.0,0.0,0.0,0.0,0.0,0.0,0.0,0.0,0.0,0.0,0.0,0.0,0.0,0.0,0.0,0.0,0.0,0.0,0.0,0.0,0.0,0.0,0.0,0.0,0.0,0.0,0.0,0.0,0.0,0.0,0.0,0.0,0.0,0.0,0.0,0.0,0.0,0.0,0.0,0.0,0.0,0.0,0.0,0.0,0.0,0.0,0.0,0.0,0.0,0.0,0.0,0.0,0.0,0.0,0.0,0.0,0.0,0.0,0.0,0.0,0.0,0.0,0.0,0.0,0.0,0.0,0.0,0.0,0.0,0.0,0.0,0.0,0.0,0.0,0.0,0.0,0.0,0.0,0.0,0.0,0.0,0.0,0.0,0.0,0.0,0.0,0.0,0.0,0.0,0.0,0.0,0.0,0.0,0.0,0.0,0.0,0.0,0.0,0.0,0.0,0.0,0.0,0.0,0.0,0.0,1.0192,1.0508,1.1522,1.2065,1.202,1.1337,1.0868,0.0,0.0,0.0,0.0,0.0,0.0,0.0,0.0,0.0,0.0,0.0,0.0,0.0,0.0,0.0,0.0,0.0,0.0,0.0,0.0,0.0,0.0,0.0,0.0,0.0,0.0,0.0,0.0,0.0,0.0,0.0,0.0,0.0,0.0,0.0,0.0,0.0,0.0,0.0,0.0,0.0,0.0,0.0,0.0,0.0,0.0,0.0,0.0,0.0,0.0,0.0,0.0,0.0,0.0,0.0,0.0,0.0,0.0,0.0,0.0,0.0,0.0,0.0,0.0,0.0,0.0,0.0,0.0,0.0,0.0,0.0,0.0,0.0,0.0,0.0,0.0,0.0,0.0,0.0,0.0,0.0,0.0,0.0,0.0,0.0,0.0,0.0,0.0,0.0,0.0,0.0,0.0,0.0,0.0,0.0,0.0,0.0,0.0,0.0,0.0,0.0,0.0,0.0,0.0,0.0,0.0,0.0,0.0,0.9887,1.0561,1.1309,1.1729,1.1701,1.148,1.1368,0.0,0.0,0.0,0.0,0.0,0.0,0.0,0.0,0.0,0.0,0.0,0.0,0.0,0.0,0.0,0.0,0.0,0.0,0.0,0.0,0.0,0.0,0.0,0.0,0.0,0.0,0.0,0.0,0.0,0.0,0.0,0.0,0.0,0.0,0.0,0.0,0.0,0.0,0.0,0.0,0.0,0.0,0.0,0.0,0.0,0.0,0.0,0.0,1.6299,0.0,0.0,0.0,0.0,0.0,0.0,0.0,0.0,0.0,0.0,0.0,0.0,0.0,0.0,0.0,0.0,0.0,0.0,0.0,0.0,0.0,0.0,0.0,0.0,0.0,0.0,0.0,0.0,0.0,0.0,0.0,0.0,0.0,0.0,0.0,0.0,0.0,0.0,0.0,0.0,0.0,0.0,0.0,0.0,0.0,0.0,0.0,0.0,0.0,0.0,0.0,0.0,0.0,0.0,0.0,0.0,0.0,0.0,0.0,0.8995,0.9844,0.9904,1.0178,1.0699,1.0614,1.0707,0.0,0.0,0.0,0.0,0.0,0.0,0.0,0.0,0.0,0.0,0.0,0.0,0.0,0.0,0.0,0.0,0.0,0.0,0.0,0.0,0.0,0.0,0.0,0.0,0.0,0.0,0.0,0.0,0.0,0.0,0.0,0.0,0.0,0.0,0.0,0.0,0.0,0.0,0.0,0.0,0.0,0.0,0.0,0.0,0.0,0.0,0.0,0.0,0.0,0.0,0.0,0.0,0.0,0.0,0.0,0.0,0.0,0.0,0.0,0.0,0.0,0.0,0.0,0.0,0.0,0.0,0.0,0.0,0.0,0.0,0.0,0.0,0.0,0.0,0.0,0.0,0.0,0.0,0.0,0.0,0.0,0.0,0.0,0.0,0.0,0.0,0.0,0.0,0.0,0.0,0.0,0.0,0.0,0.0,0.0,0.0,0.0,0.0,0.0,0.0,0.0,0.0,0.0,0.0,0.0,0.0,0.0,0.7431,0.7879,0.875,0.8213,0.8365,0.9362,0.9356,0.9527,0.9987,0.0,0.0,0.0,0.0,0.0,0.0,0.0,0.0,0.0,0.0,0.0,0.0,0.0,0.0,0.0,0.0,0.0,0.0,0.0,0.0,0.0,0.0,0.0,0.0,0.0,0.0,0.0,0.0,0.0,0.0,0.0,0.0,0.0,0.0,0.0,0.0,0.0,0.0,1.5511,1.5741,0.0,0.0,0.0,0.0,0.0,0.0,0.0,0.0,1.6633,0.0,0.0,0.0,0.0,0.0,0.0,0.0,0.0,0.0,0.0,0.0,0.0,0.0,0.0,0.0,0.0,0.0,0.0,0.0,0.0,0.0,0.0,0.0,0.0,0.0,0.0,0.0,0.0,0.0,0.0,0.0,0.0,0.0,0.0,0.0,0.0,0.0,0.0,0.0,0.0,0.0,0.0,0.0,0.0,0.0,0.0,0.0,0.0,0.0,0.0,0.0,0.0,0.0,0.0,0.0,0.0,0.6393,0.6667,0.7009,0.75,0.7392,0.7448,0.772,0.8211,0.8406,0.8281,0.0,0.0,0.0,0.0,0.0,0.0,0.0,0.0,0.0,0.0,0.0,0.0,0.0,0.0,0.0,0.0,0.0,0.0,0.0,0.0,0.0,0.0,0.0,0.0,0.0,0.0,0.0,0.0,0.0,0.0,0.0,0.0,0.0,0.0,0.0,0.0,0.0,0.0,0.0,1.6351,1.6417,0.0,0.0,0.0,0.0,0.0,0.0,0.0,0.0,1.7152,0.0,0.0,0.0,0.0,0.0,0.0,0.0,0.0,0.0,0.0,0.0,0.0,0.0,0.0,0.0,0.0,0.0,0.0,0.0,0.0,0.0,0.0,0.0,0.0,0.0,0.0,0.0,0.0,0.0,0.0,0.0,0.0,0.0,0.0,0.0,0.0,0.0,0.0,0.0,0.0,0.0,0.0,0.0,0.0,0.0,0.0,0.0,0.0,0.0,0.0,0.0,0.0,0.0,0.0,0.0,0.5782,0.5629,0.5769,0.6278,0.5743,0.5735,0.6356,0.6907,0.7417,0.0,0.0,0.0,0.0,0.0,0.0,0.0,0.0,0.0,0.0,0.0,0.0,0.0,0.0,0.0,0.0,0.0,0.0,0.0,0.0,0.0,0.0,0.0,0.0,0.0,0.0,0.0,0.0,0.0,0.0,0.0,0.0,0.0,0.0,0.0,0.0,0.0,0.0,0.0,0.0,1.658,1.6714,1.7314,0.0,0.0,0.0,0.0,0.0,0.0,1.7582,1.7448,0.0,0.0,0.0,0.0,0.0,0.0,0.0,0.0,0.0,0.0,0.0,0.0,0.0,0.0,0.0,0.0,0.0,0.0,0.0,0.0,0.0,0.0,0.0,0.0,0.0,0.0,0.0,0.0,0.0,0.0,0.0,0.0,0.0,0.0,0.0,0.0,0.0,0.0,0.0,0.0,0.0,0.0,0.0,0.0,0.0,0.0,0.0,0.0,0.0,0.0,0.0,0.0,0.0,0.0,0.0,0.5132,0.4679,0.4662,0.5097,0.4287,0.4263,0.5153,0.5707,0.6431,0.0,0.0,0.0,0.0,0.0,0.0,0.0,0.0,0.0,0.0,0.0,0.0,0.0,0.0,0.0,0.0,0.0,0.0,0.0,0.0,0.0,0.0,0.0,0.0,0.0,0.0,0.0,0.0,0.0,0.0,0.0,0.0,0.0,0.0,0.0,0.0,0.0,0.0,0.0,0.0,0.0,1.7034,1.7675,1.7488,0.0,0.0,0.0,0.0,1.7782,1.7836,0.0,0.0,0.0,0.0,0.0,0.0,0.0,0.0,0.0,0.0,0.0,0.0,0.0,0.0,0.0,0.0,0.0,0.0,0.0,0.0,0.0,0.0,0.0,0.0,0.0,0.0,0.0,0.0,0.0,0.0,0.0,0.0,0.0,0.0,0.0,0.0,0.0,0.0,0.0,0.0,0.0,0.0,0.0,0.0,0.0,0.0,0.0,0.0,0.0,0.0,0.0,0.0,0.0,0.0,0.0,0.0,0.4083,0.4148,0.4114,0.4082,0.3968,0.3965,0.4077,0.4886,0.5472,0.0,0.0,0.0,0.0,0.0,0.0,0.0,0.0,0.0,0.0,0.0,0.0,0.0,0.0,0.0,0.0,0.0,0.0,0.0,0.0,0.0,0.0,0.0,0.0,0.0,0.0,0.0,0.0,0.0,0.0,0.0,0.0,0.0,0.0,0.0,0.0,0.0,0.0,0.0,0.0,0.0,1.746,1.8263,1.7903,1.7622,0.0,0.0,1.8063,1.8343,1.8597,0.0,0.0,0.0,0.0,0.0,0.0,0.0,0.0,0.0,0.0,0.0,0.0,0.0,0.0,0.0,0.0,0.0,0.0,0.0,0.0,0.0,0.0,0.0,0.0,0.0,0.0,0.0,0.0,0.0,0.0,0.0,0.0,0.0,0.0,0.0,0.0,0.0,0.0,0.0,0.0,0.0,0.0,0.0,0.0,0.0,0.0,0.0,0.0,0.0,0.0,0.0,0.0,0.0,0.0,0.0,0.3565,0.3717,0.3881,0.3979,0.391,0.391,0.3893,0.3918,0.4474,0.4916,0.0,0.0,0.0,0.0,0.0,0.0,0.0,0.0,0.0,0.0,0.0,0.0,0.0,0.0,0.0,0.0,0.0,0.0,0.0,0.0,0.0,0.0,0.0,0.0,0.0,0.0,0.0,0.0,0.0,0.0,0.0,0.0,0.0,0.0,0.0,0.0,0.0,0.0,0.0,0.0,0.0,0.0,1.8397,1.841,0.0,0.0,0.0,1.8489,1.849,0.0,0.0,0.0,0.0,0.0,0.0,0.0,0.0,0.0,0.0,0.0,0.0,0.0,0.0,0.0,0.0,0.0,0.0,0.0,0.0,0.0,0.0,0.0,0.0,0.0,0.0,0.0,0.0,0.0,0.0,0.0,0.0,0.0,0.0,0.0,0.0,0.0,0.0,0.0,0.0,0.0,0.0,0.0,0.0,0.0,0.0,0.0,0.0,0.0,0.0,0.0,0.0,0.0,0.0,0.0,0.0,0.0,0.3477,0.3676,0.3764,0.3671,0.3671,0.3671,0.3699,0.3994,0.0,0.0,0.0,0.0,0.0,0.0,0.0,0.0,0.0,0.0,0.0,0.0,0.0,0.0,0.0,0.0,0.0,0.0,0.0,0.0,0.0,0.0,0.0,0.0,0.0,0.0,0.0,1.1336,0.0,0.0,0.0,0.0,0.0,0.0,0.0,0.0,0.0,0.0,0.0,0.0,0.0,0.0,1.7889,1.8424,1.8731,1.889,0.0,0.0,1.8823,1.8637,1.8851,1.881,0.0,0.0,0.0,0.0,0.0,0.0,0.0,0.0,0.0,0.0,0.0,0.0,0.0,0.0,0.0,0.0,0.0,0.0,0.0,0.0,0.0,0.0,0.0,0.0,0.0,0.0,0.0,0.0,0.0,0.0,0.0,0.0,0.0,0.0,0.0,0.0,0.0,0.0,0.0,0.0,0.0,0.0,0.0,0.0,0.0,0.0,0.0,0.0,0.0,0.0,0.0,0.0,0.0,0.0,0.3358,0.3143,0.3378,0.3363,0.3083,0.3053,0.3083,0.3083,0.3199,0.3503,0.0,0.0,0.0,0.0,0.0,0.0,0.0,0.0,0.0,0.0,0.0,0.0,0.0,0.0,0.0,0.0,0.0,0.0,0.0,0.0,0.0,0.0,0.0,0.0,0.0,0.0,0.0,0.0,0.0,0.0,0.0,0.0,0.0,0.0,0.0,0.0,0.0,0.0,0.0,0.0,0.0,1.8103,1.845,1.8744,1.889,0.0,0.0,1.889,1.8876,1.9145,1.9132,1.8557,0.0,0.0,0.0,0.0,0.0,0.0,0.0,0.0,0.0,0.0,0.0,0.0,0.0,0.0,0.0,0.0,0.0,0.0,0.0,0.0,0.0,0.0,0.0,0.0,0.0,0.0,0.0,0.0,0.0,0.0,0.0,0.0,0.0,0.0,0.0,0.0,0.0,0.0,0.0,0.0,0.0,0.0,0.0,0.0,0.0,0.0,0.0,0.0,0.0,0.0,0.0,0.0,0.0,0.2895,0.2861,0.3079,0.3145,0.2991,0.2991,0.2991,0.2991,0.3022,0.3149,0.0,0.0,0.0,0.0,0.0,0.0,0.0,0.0,0.0,0.0,0.0,0.0,0.0,0.0,0.0,0.0,0.0,0.0,0.0,0.0,0.0,0.0,0.0,0.0,0.0,0.0,0.0,0.0,1.4059,1.503,1.6124,0.0,0.0,0.0,0.0,0.0,0.0,0.0,0.0,0.0,0.0,1.8196,1.8691,1.9011,0.0,0.0,1.9199,1.9199,1.9227,1.9321,1.9258,1.8834,1.8714,0.0,0.0,0.0,0.0,0.0,0.0,0.0,0.0,0.0,0.0,0.0,0.0,0.0,0.0,0.0,0.0,0.0,0.0,0.0,0.0,0.0,0.0,0.0,0.0,0.0,0.0,0.0,0.0,0.0,0.0,0.0,0.0,0.0,0.0,0.0,0.0,0.0,0.0,0.0,0.0,0.0,0.0,0.0,0.0,0.0,0.0,0.0,0.0,0.0,0.0,0.0,0.0,0.2606,0.2554,0.2751,0.2808,0.2685,0.2685,0.2716,0.2683,0.2657,0.2723,0.0,0.0,0.0,0.0,0.0,0.0,0.0,0.0,0.0,0.0,0.0,0.0,0.0,0.0,0.0,0.0,0.0,0.0,0.0,0.0,0.0,0.0,0.0,0.0,0.0,0.0,0.0,0.0,1.4364,1.546,1.6779,0.0,0.0,0.0,0.0,0.0,0.0,0.0,0.0,0.0,0.0,1.8423,1.885,1.9172,1.9401,1.9401,1.9401,1.9401,1.9401,1.9401,1.934,1.9093,0.0,0.0,0.0,0.0,0.0,0.0,0.0,0.0,0.0,0.0,0.0,0.0,0.0,0.0,0.0,0.0,0.0,0.0,0.0,0.0,0.0,0.0,0.0,0.0,0.0,0.0,0.0,0.043,0.0,0.0,0.1242,0.0,0.0,0.0,0.0,0.0,0.0,0.0,0.0,0.0,0.0,0.0,0.0,0.0,0.0,0.0,0.0,0.0,0.0,0.0,0.0,0.0,0.0,0.2524,0.2218,0.2391,0.2344,0.2069,0.2038,0.2038,0.2038,0.2038,0.2129,0.2356,0.0,0.0,0.0,0.0,0.0,0.0,0.0,0.0,0.0,0.0,0.0,0.0,0.0,0.0,0.0,0.0,0.0,0.0,0.0,0.0,0.0,0.0,0.0,0.0,0.0,0.0,1.138,1.3629,1.5456,0.0,0.0,0.0,0.0,0.0,0.0,0.0,0.0,0.0,0.0,1.8516,1.8876,1.8903,1.9185,1.9401,1.9401,1.9401,1.9401,1.9401,1.9401,1.9388,0.0,0.0,0.0,0.0,0.0,0.0,0.0,0.0,0.0,0.0,0.0,0.0,0.0,0.0,0.0,0.0,0.0,0.0,0.0,0.0,0.0,0.0,0.0,0.0,0.0,0.0,0.0,0.0186,0.1038,0.0,0.0,0.0,0.0,0.0,0.0,0.0,0.0,0.0,0.0,0.0,0.1825,0.1864,0.0,0.0,0.0,0.0,0.0,0.0,0.0,0.0,0.0,0.0,0.0,0.0,0.2041,0.1943,0.2093,0.213,0.2008,0.2008,0.2008,0.2008,0.2008,0.2191,0.2564,0.0,0.0,0.0,0.0,0.0,0.0,0.0,0.0,0.0,0.0,0.0,0.0,0.0,0.0,0.0,0.0,0.0,0.0,0.0,0.0,0.0,0.0,0.0,0.0,0.0,1.0735,0.0,0.0,0.0,0.0,0.0,0.0,0.0,0.0,0.0,0.0,0.0,1.8303,1.8569,1.877,1.897,1.9185,1.9334,1.9468,0.0,0.0,0.0,0.0,0.0,0.0,0.0,0.0,0.0,0.0,0.0,0.0,0.0,0.0,2.5784,2.5278,2.5517,2.5811,2.5792,0.0,0.0,0.0,0.0,0.0,0.0,0.0,0.0,0.0,0.0,0.0,0.0,0.0,0.0,0.0365,0.1037,0.1227,0.0,0.0,0.0,0.0,0.0,0.0,0.0,0.0,0.1877,0.1902,0.19,0.1902,0.1891,0.0,0.1687,0.1669,0.0,0.0,0.0,0.0,0.0,0.0,0.0,0.0,0.1792,0.1787,0.1951,0.2008,0.2008,0.2008,0.2008,0.2008,0.2008,0.2353,0.3109,0.3484,0.4208,0.0,0.0,0.0,0.0,0.0,0.0,0.0,0.0,0.0,0.0,0.0,0.0,0.0,0.0,0.0,0.0,0.0,0.0,0.0,0.0,0.0,0.0,0.0,1.1408,0.0,0.0,0.0,0.0,0.0,0.0,0.0,0.0,0.0,1.805,1.8397,1.8784,1.9172,1.9225,1.9332,1.9626,0.0,0.0,0.0,0.0,0.0,0.0,0.0,1.9854,2.0349,2.0805,2.1847,2.4118,2.5286,2.6115,2.6662,0.0,0.0,2.6563,2.6747,2.7022,2.7022,2.7022,2.7022,2.7022,2.7022,2.7114,0.0,0.0,0.0,0.0,0.0,0.0,0.0,0.0,-0.0581,-0.0058,0.0,0.1059,0.0,0.0,0.0,0.0,0.132,0.1626,0.0,0.0,0.1944,0.196,0.1903,0.1903,0.1902,0.1869,0.1522,0.1499,0.1783,0.1814,0.0,0.0,0.0,0.0,0.0,0.0,0.1812,0.1814,0.193,0.2008,0.2008,0.2008,0.2008,0.2008,0.2008,0.256,0.3748,0.4333,0.522,0.6389,0.7332,0.0,0.0,0.0,0.0,0.0,0.0,0.0,0.0,0.0,0.0,0.0,0.0,0.0,0.0,0.0,0.0,0.0,0.0,0.0,0.0,1.042,0.0,0.0,0.0,0.0,0.0,0.0,0.0,0.0,0.0,0.0,1.893,1.893,1.9158,1.9733,0.0,0.0,0.0,0.0,2.0197,2.021,2.021,2.0197,2.021,2.021,2.0321,2.0676,0.0,0.0,2.5969,2.5906,2.6064,2.7581,2.8234,2.8205,2.7481,2.7646,2.7867,2.7903,2.7922,2.7885,2.7867,2.7958,2.805,-0.199,0.0,0.0,0.0,0.0,-0.1825,-0.1169,-0.0591,-0.003,0.045,0.0841,0.0955,0.0,0.0,0.0,0.0,0.0,0.0,0.1652,0.1888,0.1936,0.1951,0.1994,0.1994,0.1963,0.1963,0.1854,0.1846,0.1937,0.1951,0.1893,0.1771,0.0,0.0,0.0,0.0,0.1864,0.1876,0.1941,0.2008,0.2008,0.2008,0.2008,0.2008,0.2008,0.216,0.2529,0.3572,0.4558,0.5461,0.6814,0.0,0.0,0.0,0.0,0.0,0.0,0.0,0.0,0.0,0.0,0.0,0.0,0.0,0.0,0.0,0.0,0.0,0.0,0.0,1.064,1.1992,1.3327,0.0,0.0,0.0,0.0,0.0,0.0,0.0,0.0,0.0,1.9797,1.9679,1.9663,0.0,0.0,2.0104,2.0197,2.021,2.0307,2.0521,2.0374,0.0,2.0521,2.0344,2.0395,2.0968,2.246,2.425,2.6221,2.6965,2.7808,2.9246,2.9599,2.9599,2.9397,2.9188,2.9188,2.9415,2.9507,2.9507,2.9537,2.9507,2.9616,-0.0847,-0.1378,-0.1834,-0.192,-0.1634,-0.113,-0.066,-0.0213,0.0152,0.0398,0.0617,0.0703,0.0664,0.0535,0.065,0.0,0.0,0.0,0.132,0.1522,0.1553,0.1561,0.1605,0.1606,0.1611,0.1589,0.1465,0.1531,0.1791,0.1665,0.1723,0.1856,0.0,0.0,0.1834,0.192,0.1928,0.194,0.2017,0.2042,0.2042,0.2042,0.2042,0.2042,0.2042,0.2293,0.2857,0.4136,0.5262,0.6254,0.7581,0.8468,0.0,0.0,0.0,0.0,0.0,0.0,0.0,0.0,0.0,0.0,0.0,0.8648,0.8764,0.0,0.0,0.0,0.9256,1.0198,1.217,1.3063,0.0,0.0,0.0,0.0,0.0,0.0,0.0,1.965,1.9867,2.008,2.0361,2.0254,2.0214,2.0388,2.0401,2.0454,2.053,0.0,2.0641,2.0828,2.0802,2.0815,2.1034,2.0975,2.1052,2.1448,2.2418,2.3986,2.6041,2.6917,2.7977,2.9658,3.0204,3.0241,3.0406,3.0222,3.0057,3.0167,3.0204,3.0204,3.0204,3.0204,3.0303,0.0,0.0,-0.1197,-0.1342,-0.0846,-0.0816,-0.0518,0.0,0.0,0.0,0.0,0.0309,0.0276,0.003,0.0238,0.0,0.0515,0.0757,0.0917,0.0991,0.1022,0.1022,0.1022,0.1022,0.0999,0.1012,0.0664,0.086,0.1417,0.116,0.1345,0.1927,0.191,0.1899,0.193,0.1952,0.2024,0.2022,0.2081,0.2096,0.2096,0.2096,0.2096,0.2096,0.2225,0.29,0.4181,0.5593,0.6896,0.8088,0.9217,0.9727,0.9449,0.0,0.0,0.0,0.0,0.0,0.0,0.0,0.0,0.0,0.0,0.0,0.0,0.0,0.0,0.9444,0.9889,0.0,1.3513,1.3802,0.0,0.0,0.0,1.821,1.9311,1.9453,1.9691,2.018,0.0,0.0,2.0681,2.0766,2.0779,2.0779,2.0779,2.0842,2.1109,2.1162,2.1176,2.1189,2.1435,2.1609,2.1596,2.177,2.193,2.1984,2.2116,2.3318,2.5685,2.6472,2.7477,2.9896,3.0314,3.0406,3.0804,3.0841,3.0736,3.0387,3.0332,3.0314,3.0351,3.0351,3.0492,0.0,0.0,-0.0306,-0.0337,-0.0215,-0.0215,-0.0123,0.0,0.0,0.0,0.0,0.0093,0.0092,0.0,0.0061,0.0246,0.05,0.0563,0.0756,0.0989,0.1021,0.1021,0.1021,0.1021,0.1023,0.0995,0.093,0.0964,0.1128,0.1032,0.1191,0.1604,0.1643,0.1753,0.1989,0.197,0.2023,0.2085,0.2092,0.2096,0.2096,0.2096,0.2096,0.2096,0.3158,0.3863,0.4216,0.6522,0.7954,0.8277,0.9488,1.0086,0.9866,0.9503,0.0,0.0,0.0,0.0,0.0,0.0,0.0,0.0,0.0,0.9158,0.9342,0.0,0.9598,0.0,1.0265,1.1588,1.3933,1.4622,0.0,0.0,1.9003,1.9404,1.968,2.0121,2.0433,2.0561,2.0762,2.0922,2.1002,2.1234,2.1381,2.1381,2.1413,2.144,2.1475,2.1676,2.181,2.1764,2.183,2.1917,2.193,2.197,2.2071,2.2285,2.3198,2.4628,2.6539,2.7802,2.9105,3.0733,3.1102,3.1139,3.1244,3.1263,3.1244,3.1153,3.1134,3.1134,3.1134,3.1116,3.1153,0.0,0.0,0.0,0.0,0.0,0.0,0.0,0.0,0.0,0.0,0.0,0.0,0.0,0.0,0.0,0.0095,0.0255,0.0255,0.0384,0.0548,0.0548,0.0548,0.0548,0.0548,0.055,0.0553,0.0553,0.0621,0.0756,0.0789,0.1052,0.1512,0.1424,0.1518,0.182,0.1982,0.2022,0.1874,0.2071,0.2039,0.1906,0.2039,0.2196,0.2345,0.3382,0.4438,0.5501,0.7134,0.8325,0.9034,0.9765,1.0076,0.992,0.9652,0.9415,0.0,0.0,0.0,0.0,0.0,0.0,0.0,0.0,0.0,0.0,0.0,0.9832,1.0012,1.0496,1.1751,1.4082,1.5013,1.6493,1.8939,1.9776,2.0208,2.035,2.0682,2.0922,2.1087,2.1234,2.1349,2.1483,2.1643,2.1783,2.1783,2.1857,2.1917,2.181,2.193,2.2024,2.2024,2.2098,2.2231,2.2385,2.2412,2.2465,2.2714,2.382,2.5304,2.6841,2.8328,2.9772,3.1087,3.141,3.1465,3.1648,3.1653,3.1689,3.1905,3.1909,3.1865,3.1663,3.1603,3.1653,0.0,0.0,0.0,0.0,0.0,0.0,0.0,0.0,0.0,0.0,0.0,0.0,0.0,0.0,0.0,0.0,0.0,0.0,0.0,0.0,0.0,0.0,0.0,0.0,0.0,0.0,0.0,0.0133,0.0437,0.0438,0.0774,0.1414,0.1178,0.1178,0.1481,0.1885,0.1953,0.1616,0.1987,0.2054,0.175,0.2088,0.2409,0.2778,0.3527,0.4968,0.7093,0.7655,0.8557,0.993,1.0049,0.9994,0.9879,0.9754,0.9612,0.0,0.9362,0.0,0.0,0.0,0.0,0.0,0.0,0.0,0.0,0.9988,1.013,1.0329,1.0611,1.1718,1.4031,1.514,1.6752,1.9306,2.0295,2.0858,2.1131,2.1203,2.1323,2.1609,2.1636,2.1743,2.1957,2.2017,2.2044,2.2058,2.2285,2.2365,2.2164,2.2158,2.2171,2.2098,2.2311,2.2552,2.2786,2.2867,2.2893,2.3071,2.413,2.5554,2.7012,2.8461,2.9896,3.1186,3.163,3.1722,3.2019,3.2074,3.2217,3.2578,3.26,3.2431,3.2125,3.2069,3.2174,0.0,0.0,0.0,0.0,0.0,0.0,0.0,0.0,0.0,0.0,0.0,0.0,0.0,0.0,0.0,0.0,0.0,0.0,0.0,0.0,0.0,0.0,0.0,0.0,0.0,0.0,0.0,0.0034,0.0101,0.0101,0.0303,0.0707,0.064,0.064,0.0741,0.0,0.0,0.0,0.1987,0.229,0.2492,0.2559,0.289,0.3584,0.5027,0.0,0.7257,0.8627,0.9653,1.0204,1.0236,0.0,0.0,0.0,0.0,0.0,0.0,0.0,0.0,0.0,0.0,0.0,1.0154,1.0165,1.022,1.0324,1.0419,1.0453,1.0627,1.1574,1.3669,1.509,1.6733,1.888,2.0515,2.1438,2.1515,2.1703,2.1877,2.193,2.1943,2.1924,2.2037,2.2191,2.2338,2.2352,2.2592,2.2773,2.2733,2.2706,2.2719,2.2746,2.2786,2.2827,2.2893,2.292,2.3041,2.3326,2.4385,2.5957,2.7644,2.9174,3.0626,3.2047,3.2401,3.2368,3.2478,3.2478,3.2615,3.2988,3.2807,3.2585,3.2504,3.2732,3.2964,0.0,0.0,0.0,0.0,0.0,0.0,0.0,0.0,0.0,0.0,0.0,0.0,0.0,0.0,0.0,0.0,0.0,0.0,0.0,0.0,0.0,0.0,0.0,0.0,0.0,0.0,0.0,0.0,0.0,0.0,0.0172,0.0481,0.0344,0.0446,0.0825,0.1375,0.1746,0.1905,0.2089,0.2199,0.2233,0.3124,0.3864,0.4414,0.6262,0.0,0.0,0.0,0.0,0.0,0.0,0.0,0.0,1.0243,0.0,1.027,1.0134,1.0114,1.0256,1.027,1.0363,1.0487,1.0568,1.0548,1.0399,1.0521,1.0602,1.0609,1.0809,1.2089,1.4762,1.5889,1.75,2.0106,2.128,2.1796,2.181,2.193,2.2044,2.2178,2.2205,2.2245,2.2405,2.2572,2.2632,2.2645,2.28,2.296,2.3046,2.2987,2.2934,2.306,2.3086,2.3188,2.3322,2.3348,2.3375,2.3747,2.5357,2.6982,2.8016,3.0003,3.1713,3.2454,3.2606,3.2643,3.2863,3.2918,3.3022,3.3342,3.3329,3.3193,3.3209,3.3319,3.3572,0.0,0.0,0.0,0.0,0.0,0.0,0.0,0.0,0.0,0.0,0.0,0.0,0.0,0.0,0.0,0.0034,0.0101,0.0101,0.0135,0.0203,0.0203,0.0203,0.0203,0.0203,0.0205,0.0207,0.0207,0.0208,0.021,0.021,0.0351,0.0561,0.0351,0.0526,0.1192,0.1547,0.1891,0.2218,0.2199,0.2245,0.2349,0.3885,0.4973,0.5608,0.744,0.8772,0.9539,0.9862,1.0123,1.0333,1.039,1.0371,1.0399,1.0399,1.0412,1.0465,1.0465,1.0487,1.0635,1.0609,1.0663,1.0792,1.088,1.0833,1.0588,1.0744,1.0866,1.0899,1.1199,1.2704,1.5866,1.665,1.8194,2.1292,2.1899,2.2058,2.2071,2.2124,2.2258,2.2445,2.2498,2.2579,2.284,2.2899,2.2987,2.2987,2.3054,2.3134,2.3313,2.322,2.3153,2.3354,2.3407,2.3487,2.3723,2.3777,2.383,2.3928,2.5829,2.7497,2.8291,3.0206,3.1894,3.2288,3.2572,3.2939,3.3214,3.3287,3.345,3.3812,3.3921,3.3955,3.4073,3.4067,3.417,0.0,0.0,0.0,0.0,0.0,0.0,0.0,0.0,0.0,0.0,0.0,0.0,0.0,0.0,0.0,0.0203,0.0514,0.0514,0.0724,0.1011,0.1011,0.1046,0.1011,0.1046,0.1048,0.1049,0.1014,0.1015,0.1017,0.1018,0.1052,0.1088,0.1052,0.1228,0.158,0.1739,0.1961,0.2278,0.2221,0.298,0.4584,0.4899,0.6008,0.7906,0.8544,0.912,0.9829,1.0059,1.0313,1.0623,1.0656,1.0684,1.0813,1.0813,1.0907,1.1063,1.107,1.1084,1.1097,1.1104,1.1111,1.1132,1.1152,1.1063,1.0874,1.1288,1.1543,1.1577,1.1871,1.298,1.5073,1.6449,1.805,2.0057,2.1504,2.2318,2.2365,2.2612,2.2773,2.2827,2.2827,2.2853,2.2947,2.3113,2.326,2.33,2.3447,2.3683,2.3674,2.371,2.3696,2.3736,2.375,2.3763,2.3857,2.3817,2.3901,2.4115,2.4598,2.5805,2.7215,2.8909,3.0498,3.1529,3.2764,3.3511,3.3707,3.3725,3.3847,3.4128,3.4198,3.4405,3.4887,3.5043,3.5103,0.0,0.0,0.0,0.0,0.0,0.0,0.014,0.0315,0.0312,0.0172,0.0034,0.0241,0.031,0.0344,0.0551,0.076,0.0903,0.0938,0.1011,0.1192,0.1192,0.1192,0.1192,0.1192,0.1197,0.1205,0.1205,0.1175,0.1182,0.1183,0.1183,0.1219,0.1432,0.1611,0.1756,0.1982,0.2565,0.3573,0.3554,0.3971,0.486,0.6531,0.7882,0.892,0.9818,1.0458,1.0701,1.0808,1.0906,1.0962,1.0962,1.0995,1.1056,1.1063,1.109,1.1193,1.12,1.12,1.12,1.12,1.12,1.12,1.1483,1.1608,1.1504,1.1621,1.1676,1.171,1.2227,1.3667,1.6157,1.7192,1.871,2.1272,2.224,2.2659,2.2686,2.2926,2.3113,2.3126,2.326,2.3388,2.3388,2.3487,2.3567,2.3594,2.3857,2.4008,2.4008,2.4142,2.4182,2.4048,2.4008,2.4088,2.4195,2.4235,2.4302,2.4386,2.5116,2.6272,2.7888,2.9397,3.0908,3.2368,3.3381,3.3747,3.3817,3.3817,3.3921,3.399,3.4059,3.4267,3.4543,3.4853,3.523,0.0,0.0,0.0,0.0036,0.0144,0.0213,0.046,0.0743,0.0708,0.0566,0.0318,0.0598,0.0736,0.0771,0.1052,0.1265,0.1338,0.1339,0.1377,0.1451,0.1451,0.1451,0.1451,0.1451,0.1459,0.1436,0.1438,0.1445,0.1458,0.1422,0.146,0.1495,0.1751,0.1895,0.1932,0.255,0.3459,0.4657,0.538,0.5742,0.5815,0.8095,0.9435,0.9909,1.0959,1.1558,1.145,1.1443,1.1389,1.1315,1.1302,1.1267,1.1302,1.1302,1.1302,1.1302,1.1302,1.1302,1.1302,1.1371,1.1406,1.1441,1.1931,1.2236,1.2229,1.2227,1.2133,1.2144,1.27,1.4215,1.6698,1.7885,1.9404,2.2129,2.2921,2.3121,2.3134,2.3287,2.3385,2.346,2.3634,2.379,2.3817,2.3857,2.3937,2.3995,2.4168,2.4289,2.4329,2.4466,2.4479,2.4346,2.4302,2.4332,2.4559,2.4572,2.4572,2.4636,2.5456,2.667,2.8177,2.9861,3.1437,3.2666,3.3486,3.3747,3.3817,3.3817,3.3886,3.3955,3.4094,3.4198,3.449,3.5001,3.541,0.0,0.0,0.0,0.0219,0.0583,0.091,0.1091,0.1127,0.1127,0.1127,0.1088,0.1135,0.1159,0.1157,0.1194,0.1414,0.1749,0.1751,0.1904,0.2139,0.2179,0.2179,0.2177,0.2178,0.218,0.2183,0.2184,0.2152,0.2119,0.2154,0.2188,0.2223,0.2223,0.2299,0.2443,0.3753,0.4587,0.4766,0.7444,0.8894,0.8889,0.9147,0.9981,1.1368,1.1512,1.1577,1.1592,1.1599,1.1592,1.1579,1.1536,1.1543,1.1572,1.1536,1.1579,1.1543,1.1579,1.1579,1.1579,1.1901,1.208,1.2123,1.2612,1.291,1.2925,1.3359,1.3525,1.3356,1.3598,1.4598,1.6332,1.7877,1.9529,2.1566,2.2898,2.3723,2.3683,2.375,2.3763,2.3763,2.383,2.3817,2.3897,2.4022,2.4262,2.4399,2.4452,2.4532,2.4559,2.4599,2.4666,2.4599,2.4572,2.4572,2.4613,2.4599,2.4599,2.4636,2.471,2.5676,2.7121,2.8609,2.9952,3.1825,3.3069,3.3802,3.3853,3.3817,3.3976,3.4313,3.4589,3.4959,3.5596,3.6073,3.6327,0.0783,0.0746,0.0783,0.0858,0.1044,0.1194,0.138,0.1567,0.1567,0.1679,0.19,0.1919,0.1785,0.1579,0.1759,0.1944,0.2098,0.2099,0.2177,0.2296,0.2296,0.2296,0.2297,0.2352,0.236,0.2361,0.2378,0.2348,0.235,0.235,0.2348,0.2497,0.3315,0.3834,0.398,0.5466,0.6726,0.7647,0.8907,0.9982,1.0816,1.0752,1.0966,1.1512,1.1584,1.1584,1.1584,1.1584,1.1584,1.159,1.1701,1.1712,1.1712,1.183,1.1877,1.1921,1.1884,1.1877,1.1921,1.2288,1.2508,1.2508,1.3147,1.3553,1.3553,1.3948,1.4469,1.5177,1.4678,1.5185,1.7603,1.8625,1.9966,2.2287,2.3411,2.3817,2.3817,2.3928,2.4022,2.4035,2.4182,2.4289,2.4289,2.4382,2.4466,2.4586,2.4599,2.4679,2.4863,2.4903,2.4983,2.5079,2.5157,2.4983,2.4719,2.4599,2.4613,2.4599,2.4599,2.5139,2.6677,2.8177,2.9702,3.1243,3.2967,3.4042,3.4183,3.4403,3.4603,3.4848,3.5079,3.5501,3.5991,3.6425,3.6635,0.1325,0.1325,0.1401,0.1439,0.1439,0.1552,0.1741,0.1931,0.1968,0.212,0.2386,0.2424,0.2249,0.2029,0.221,0.2357,0.232,0.232,0.232,0.232,0.2322,0.232,0.2323,0.2379,0.2427,0.2394,0.2412,0.2423,0.2424,0.2424,0.2424,0.2612,0.3629,0.4457,0.5022,0.6525,0.8103,0.9564,1.0093,1.0927,1.1915,1.185,1.1742,1.1742,1.1742,1.1742,1.1742,1.1742,1.1742,1.1742,1.1837,1.1891,1.1898,1.1999,1.2098,1.2098,1.221,1.2247,1.2291,1.2731,1.3029,1.3074,1.3729,1.4095,1.4141,1.4404,1.5093,1.5941,1.5285,1.5892,1.8649,1.9599,2.0943,2.3068,2.3671,2.4008,2.4035,2.4262,2.4449,2.4462,2.4703,2.4839,2.4839,2.4853,2.4879,2.4879,2.4866,2.4893,2.513,2.5197,2.5277,2.5478,2.5504,2.5344,2.4919,2.4893,2.4839,2.4839,2.4917,2.5439,2.6909,2.8431,3.0026,3.1786,3.3447,3.4444,3.4568,3.4844,3.5314,3.5493,3.576,3.6152,3.6499,3.6813,3.7123,0.1325,0.1364,0.1667,0.1782,0.1818,0.216,0.2349,0.2315,0.2351,0.2387,0.239,0.2427,0.2386,0.2344,0.2382,0.2418,0.2381,0.2377,0.2375,0.2414,0.2416,0.2418,0.242,0.2421,0.2421,0.2423,0.2429,0.2431,0.2428,0.2427,0.2424,0.2501,0.2845,0.3521,0.5144,0.6808,0.8107,0.9859,1.1183,1.1999,1.2111,1.2091,1.2077,1.2077,1.207,1.2057,1.2064,1.2077,1.207,1.207,1.2084,1.2091,1.2091,1.2104,1.2118,1.2155,1.2485,1.2708,1.279,1.3394,1.3796,1.3886,1.4334,1.467,1.4681,1.4832,1.5127,1.5174,1.5568,1.6708,1.9292,2.0669,2.1699,2.2571,2.377,2.4485,2.4596,2.4823,2.5024,2.5064,2.5224,2.5358,2.5424,2.5478,2.5411,2.5411,2.5438,2.5451,2.5478,2.5491,2.5531,2.5558,2.5571,2.5518,2.544,2.5306,2.5371,2.5358,2.5391,2.5778,2.7508,2.912,3.0573,3.2132,3.353,3.4469,3.4882,3.5368,3.5909,3.6304,3.6754,3.709,3.7118,3.7575,3.7816,0.2055,0.2055,0.221,0.2249,0.2249,0.2404,0.2481,0.2481,0.2482,0.2442,0.2481,0.2481,0.2481,0.2481,0.2442,0.2461,0.2425,0.2424,0.2424,0.2424,0.2424,0.2424,0.2425,0.2443,0.2453,0.2455,0.2473,0.2481,0.2481,0.2442,0.3022,0.4181,0.5144,0.6491,0.8141,0.9758,1.0912,1.1492,1.2109,1.2345,1.2332,1.2345,1.2383,1.237,1.2193,1.2098,1.2098,1.2098,1.2098,1.2098,1.2193,1.221,1.2254,1.2557,1.2727,1.2803,1.3108,1.3337,1.3413,1.387,1.4259,1.436,1.4769,1.5059,1.5164,1.5316,1.5741,1.672,1.7988,1.9541,2.0917,2.1345,2.1913,2.3934,2.4806,2.517,2.5211,2.5291,2.5358,2.5371,2.5464,2.5504,2.5558,2.5518,2.5518,2.5518,2.5518,2.5611,2.5758,2.5837,2.5838,2.6026,2.6079,2.6066,2.6079,2.5705,2.5504,2.5504,2.5568,2.5619,2.67,2.7978,2.9361,3.119,3.2878,3.4611,3.5103,3.6269,3.6758,3.7032,3.7504,3.7679,3.7747,3.802,3.8242,0.2514,0.2514,0.2514,0.2514,0.2514,0.2514,0.2514,0.2514,0.2514,0.2514,0.2514,0.2514,0.2514,0.2514,0.2514,0.2456,0.2417,0.2454,0.2453,0.2453,0.2414,0.2414,0.2417,0.2474,0.2484,0.2642,0.3088,0.3335,0.3415,0.3844,0.4703,0.587,0.7006,0.8331,0.9931,1.114,1.1914,1.2347,1.2501,1.2501,1.2508,1.2556,1.2576,1.2556,1.2465,1.2336,1.2254,1.2203,1.2203,1.2254,1.2305,1.2456,1.2664,1.2831,1.3141,1.3464,1.3706,1.394,1.4096,1.4493,1.4813,1.4877,1.5129,1.539,1.5504,1.5512,1.6338,1.7785,1.9025,2.0619,2.2323,2.2174,2.2682,2.4983,2.5518,2.5518,2.5518,2.5598,2.5692,2.5785,2.5825,2.5812,2.5798,2.5812,2.5812,2.5798,2.5798,2.5892,2.6091,2.6145,2.6185,2.6386,2.6346,2.6333,2.6306,2.6039,2.5892,2.5892,2.5838,2.5772,2.5988,2.7177,2.8624,3.0332,3.2243,3.416,3.5723,3.6957,3.7492,3.7696,3.7966,3.8159,3.8275,3.837,3.846,0.2514,0.2514,0.2514,0.2514,0.2514,0.2514,0.2514,0.2514,0.2514,0.2514,0.2514,0.2514,0.2514,0.2514,0.2514,0.2512,0.2511,0.251,0.2507,0.2506,0.2507,0.2585,0.2701,0.2585,0.2665,0.2861,0.427,0.5016,0.51,0.6317,0.7178,0.7486,0.7659,0.8763,1.0136,1.0514,1.1086,1.2232,1.2549,1.2535,1.2522,1.2664,1.2732,1.2745,1.2834,1.2805,1.2522,1.2508,1.2508,1.2508,1.2515,1.2777,1.3162,1.304,1.3228,1.409,1.4246,1.4453,1.4851,1.5194,1.5384,1.5433,1.5472,1.5528,1.5537,1.5729,1.6469,1.7838,1.8857,2.0122,2.289,2.3638,2.4207,2.5292,2.5625,2.5625,2.5638,2.5798,2.6105,2.6253,2.6293,2.6373,2.6373,2.6293,2.6266,2.6266,2.6279,2.6279,2.6306,2.6319,2.6373,2.6386,2.64,2.64,2.64,2.6386,2.6373,2.6346,2.6279,2.6252,2.6394,2.7251,2.8857,3.0649,3.35,3.5444,3.657,3.7658,3.7988,3.8246,3.8448,3.8521,3.8501,3.8538,3.8574,0.2514,0.2514,0.2514,0.2514,0.2514,0.2514,0.2514,0.2514,0.2514,0.2514,0.2514,0.2514,0.2514,0.2514,0.2514,0.2526,0.2545,0.2545,0.2574,0.2597,0.2554,0.3181,0.3885,0.3063,0.3101,0.4312,0.5913,0.6762,0.696,0.7445,0.8221,0.9317,0.9566,1.0452,1.1888,1.2099,1.2417,1.2741,1.286,1.286,1.286,1.2861,1.2888,1.2895,1.2982,1.2948,1.2827,1.286,1.286,1.2846,1.286,1.3039,1.3464,1.3677,1.4057,1.462,1.4954,1.5114,1.5273,1.5409,1.5577,1.5658,1.5691,1.5764,1.5983,1.6869,1.7742,1.874,2.055,2.2767,2.3616,2.4869,2.5648,2.6054,2.6119,2.6079,2.6079,2.6172,2.6319,2.636,2.64,2.64,2.64,2.64,2.64,2.64,2.64,2.64,2.64,2.64,2.6386,2.6386,2.64,2.64,2.64,2.64,2.64,2.64,2.64,2.64,2.6623,2.7122,2.8817,3.1415,3.4278,3.6294,3.7402,3.8082,3.8355,3.8501,3.8538,3.8574,3.8611,3.8611,3.8611,0.2514,0.2514,0.2514,0.2522,0.253,0.253,0.2537,0.2545,0.2547,0.2547,0.2547,0.2547,0.2547,0.2547,0.2547,0.2957,0.3538,0.3621,0.3963,0.4296,0.3737,0.449,0.5832,0.5082,0.5003,0.6227,0.7808,0.863,0.8765,0.9412,1.0291,1.128,1.1412,1.19,1.2916,1.3003,1.3003,1.3003,1.2996,1.3003,1.3009,1.3057,1.3077,1.3091,1.3098,1.3166,1.3166,1.3288,1.3273,1.3103,1.3123,1.3498,1.4102,1.4318,1.4589,1.5175,1.5392,1.5513,1.5675,1.5699,1.5756,1.5853,1.5869,1.5918,1.618,1.7173,1.7942,1.9755,2.1372,2.3364,2.4654,2.566,2.6347,2.6386,2.6373,2.64,2.64,2.64,2.6386,2.64,2.64,2.64,2.64,2.64,2.64,2.64,2.64,2.64,2.64,2.64,2.64,2.64,2.64,2.64,2.64,2.64,2.64,2.64,2.64,2.64,2.6505,2.686,2.8011,3.1683,3.4841,3.6719,3.7936,3.8302,3.8574,3.8611,3.8611,3.8611,3.8611,3.8611,3.8611,0.2519,0.2519,0.2519,0.2538,0.26,0.2602,0.2574,0.2596,0.2597,0.2596,0.2597,0.2593,0.2758,0.2801,0.3037,0.389,0.5199,0.5445,0.6381,0.7147,0.6621,0.6573,0.7472,0.7947,0.8188,0.8317,0.9808,1.0552,1.0695,1.1832,1.2976,1.2815,1.2782,1.2956,1.3071,1.3037,1.3057,1.3071,1.305,1.3057,1.3064,1.3119,1.3227,1.3234,1.3384,1.3487,1.3521,1.3844,1.3787,1.3272,1.3533,1.4121,1.4865,1.4774,1.5006,1.5827,1.562,1.5679,1.5908,1.5942,1.5958,1.5966,1.5975,1.6007,1.6081,1.6854,1.8309,2.0616,2.1746,2.3152,2.5621,2.6347,2.64,2.64,2.64,2.64,2.64,2.64,2.64,2.64,2.64,2.64,2.64,2.64,2.64,2.64,2.64,2.64,2.64,2.64,2.64,2.64,2.64,2.64,2.64,2.64,2.64,2.64,2.6426,2.6426,2.6965,2.7476,2.8364,3.1988,3.5233,3.7052,3.8155,3.8428,3.8611,3.8611,3.8611,3.8611,3.8611,3.8611,3.8611,0.2579,0.2578,0.2579,0.2583,0.259,0.259,0.2594,0.2601,0.2602,0.2727,0.2643,0.2601,0.3498,0.4509,0.4593,0.5584,0.6929,0.7267,0.8291,0.971,0.9591,0.8634,0.8774,1.0528,1.0982,1.0252,1.1402,1.2399,1.2531,1.2909,1.3214,1.3281,1.3261,1.3275,1.3288,1.3268,1.3281,1.3288,1.3281,1.3275,1.3275,1.3308,1.3342,1.339,1.3714,1.3901,1.3942,1.4307,1.4485,1.4281,1.4341,1.4683,1.5254,1.5221,1.5409,1.5818,1.5917,1.5842,1.5966,1.6007,1.6007,1.6007,1.6007,1.6007,1.6089,1.8391,2.0008,2.1666,2.3312,2.5211,2.6188,2.64,2.64,2.64,2.64,2.64,2.64,2.64,2.64,2.64,2.64,2.64,2.64,2.64,2.64,2.64,2.64,2.64,2.64,2.64,2.64,2.64,2.64,2.64,2.64,2.64,2.64,2.64,2.6426,2.6505,2.758,2.892,3.03,3.2657,3.5755,3.7936,3.8338,3.8574,3.8611,3.8611,3.8611,3.8611,3.8611,3.8611,3.8611,0.2601,0.2601,0.2601,0.2609,0.2579,0.2579,0.2587,0.2803,0.3462,0.3748,0.3913,0.4612,0.5434,0.6376,0.6461,0.7428,0.8958,0.9132,1.0159,1.1623,1.1801,1.1264,1.0991,1.2488,1.2651,1.1946,1.2685,1.3112,1.3213,1.3268,1.3322,1.337,1.3397,1.3397,1.3383,1.3397,1.3397,1.3397,1.3397,1.3397,1.3397,1.3611,1.3694,1.3776,1.4142,1.4431,1.4638,1.4886,1.501,1.5002,1.5002,1.5175,1.5587,1.5628,1.576,1.6007,1.6007,1.6007,1.6007,1.6007,1.6007,1.6007,1.6007,1.6451,1.7182,1.9155,2.0322,2.239,2.4255,2.5462,2.6268,2.64,2.64,2.64,2.64,2.64,2.64,2.64,2.64,2.64,2.64,2.64,2.64,2.64,2.64,2.64,2.64,2.64,2.64,2.64,2.64,2.64,2.64,2.64,2.64,2.64,2.6544,2.6544,2.6702,2.6742,2.8246,2.9991,3.1743,3.3604,3.6386,3.8302,3.8465,3.8611,3.8611,3.8611,3.8611,3.8611,3.8611,3.8611,3.8611,0.2611,0.2611,0.2612,0.2708,0.2938,0.29,0.3328,0.365,0.5025,0.5652,0.5903,0.7292,0.7774,0.8298,0.8306,0.9253,1.0965,1.0995,1.1843,1.2816,1.3148,1.2949,1.2895,1.3047,1.3267,1.3143,1.3348,1.3383,1.3376,1.3383,1.339,1.3397,1.3397,1.3397,1.3397,1.3397,1.3438,1.3521,1.3569,1.3604,1.3728,1.3983,1.4142,1.4225,1.4555,1.4968,1.5257,1.5422,1.5463,1.5463,1.5463,1.5628,1.5925,1.6007,1.6007,1.6007,1.6007,1.6007,1.6007,1.6007,1.6007,1.6007,1.6205,1.6854,1.8259,1.9389,2.1009,2.3284,2.3896,2.5104,2.607,2.64,2.64,2.64,2.64,2.64,2.64,2.64,2.64,2.64,2.64,2.64,2.64,2.64,2.64,2.64,2.64,2.64,2.64,2.64,2.64,2.64,2.64,2.64,2.64,2.64,2.6623,2.6781,2.7018,2.7398,2.8895,3.0685,3.2674,3.4636,3.6053,3.7457,3.8538,3.8611,3.8611,3.8611,3.8611,3.8611,3.8611,3.8611,3.8611,0.2673,0.2673,0.2673,0.351,0.4684,0.4811,0.5569,0.6794,0.7212,0.7463,0.7547,0.7923,0.8929,1.0138,1.018,1.1101,1.2519,1.2685,1.3106,1.3272,1.3397,1.3397,1.3397,1.3445,1.3397,1.3397,1.3397,1.3397,1.3397,1.3397,1.3397,1.3397,1.3438,1.3397,1.3445,1.3521,1.3611,1.3859,1.3942,1.4101,1.43,1.4465,1.4597,1.4638,1.501,1.5422,1.5752,1.5875,1.5883,1.5842,1.5842,1.5883,1.5966,1.6007,1.6007,1.6007,1.6007,1.6007,1.6007,1.6007,1.6048,1.6246,1.7214,1.8178,1.8667,2.1182,2.2642,2.4056,2.4985,2.5858,2.6268,2.64,2.64,2.64,2.64,2.64,2.64,2.64,2.64,2.64,2.64,2.64,2.64,2.64,2.64,2.64,2.64,2.64,2.64,2.64,2.64,2.64,2.64,2.6386,2.6426,2.6465,2.6702,2.7018,2.7294,2.7647,2.9182,3.0292,3.1813,3.3394,3.4954,3.6349,3.7897,3.8611,3.8611,3.8611,3.8611,3.8611,3.8611,3.8611,3.8611,0.395,0.4076,0.4828,0.5751,0.6543,0.6627,0.7129,0.8094,0.8971,0.9263,0.9471,1.0055,1.1101,1.1938,1.1979,1.2567,1.3189,1.3397,1.3397,1.3397,1.3397,1.3521,1.3735,1.3694,1.3652,1.3438,1.3397,1.3397,1.3397,1.3438,1.3397,1.3445,1.3604,1.3776,1.3776,1.3894,1.4142,1.4307,1.439,1.4514,1.4672,1.4919,1.5175,1.5298,1.5546,1.5801,1.5966,1.6007,1.6007,1.6007,1.6007,1.6007,1.6007,1.6007,1.6007,1.6007,1.6007,1.6007,1.6007,1.6048,1.6369,1.7132,1.8146,1.948,2.0656,2.2923,2.4096,2.4945,2.5792,2.6386,2.64,2.64,2.64,2.64,2.64,2.64,2.64,2.64,2.64,2.64,2.64,2.64,2.64,2.64,2.64,2.64,2.64,2.64,2.64,2.64,2.64,2.64,2.64,2.6386,2.6426,2.6544,2.6781,2.7136,2.753,2.7883,2.873,2.961,3.0446,3.2348,3.4354,3.5737,3.7107,3.7787,3.8574,3.8611,3.8611,3.8611,3.8611,3.8611,3.8611,0.579,0.5915,0.7463,0.8215,0.8428,0.8507,0.8757,0.9179,1.0429,1.1101,1.135,1.2858,1.3148,1.3445,1.348,1.3562,1.3604,1.3645,1.3769,1.3728,1.3769,1.3894,1.4108,1.4142,1.4018,1.3604,1.3687,1.3687,1.3687,1.3604,1.3769,1.3728,1.3976,1.4183,1.4266,1.4473,1.4672,1.4796,1.4803,1.4886,1.501,1.534,1.5628,1.5793,1.5883,1.5966,1.6007,1.6007,1.6007,1.6007,1.6007,1.6007,1.6007,1.6007,1.6007,1.6007,1.6007,1.6007,1.6122,1.6369,1.7173,1.8545,1.9399,2.0727,2.2963,2.4016,2.4985,2.5713,2.64,2.64,2.64,2.64,2.64,2.64,2.64,2.64,2.64,2.64,2.64,2.64,2.64,2.64,2.64,2.64,2.64,2.64,2.64,2.64,2.64,2.64,2.64,2.64,2.64,2.64,2.6426,2.6702,2.6939,2.7333,2.7765,2.8157,2.851,2.908,3.0114,3.2119,3.394,3.5215,3.6571,3.7714,3.8319,3.8501,3.8611,3.8611,3.8611,3.8611,3.8611,0.7547,0.763,0.8294,0.9212,1.0216,1.0668,1.1422,1.2436,1.2685,1.2941,1.3024,1.3652,1.3983,1.4066,1.4349,1.4465,1.4383,1.4341,1.4383,1.4383,1.4383,1.4473,1.4555,1.4638,1.4555,1.4507,1.4473,1.4473,1.4383,1.4465,1.4341,1.4424,1.4548,1.4638,1.4638,1.4713,1.5002,1.5257,1.5257,1.5381,1.5628,1.5752,1.5883,1.6007,1.6007,1.6007,1.6007,1.6007,1.6007,1.6007,1.6007,1.6007,1.6007,1.6007,1.6007,1.6007,1.6007,1.6048,1.6369,1.7369,1.8105,1.9186,2.1009,2.2642,2.4016,2.5025,2.5832,2.6109,2.64,2.64,2.64,2.64,2.64,2.64,2.64,2.64,2.64,2.64,2.64,2.64,2.64,2.64,2.64,2.64,2.64,2.64,2.64,2.64,2.64,2.64,2.64,2.64,2.64,2.64,2.6386,2.6781,2.7136,2.753,2.7961,2.8314,2.8627,2.8822,2.992,3.137,3.2994,3.4391,3.5811,3.7217,3.797,3.8117,3.8355,3.8574,3.8611,3.8611,3.8611,0.9961,0.992,1.1208,1.2044,1.2471,1.2921,1.3466,1.3976,1.4059,1.4101,1.4142,1.4307,1.4431,1.4473,1.4597,1.4713,1.4713,1.4713,1.4713,1.4713,1.4713,1.4837,1.501,1.5051,1.5216,1.534,1.5381,1.5085,1.4754,1.4672,1.4754,1.4754,1.4919,1.5051,1.5133,1.534,1.5463,1.5669,1.5711,1.5752,1.5966,1.6007,1.6007,1.6007,1.6007,1.6007,1.6007,1.6007,1.6007,1.6007,1.6007,1.6007,1.6007,1.6007,1.6007,1.6048,1.6089,1.6492,1.7173,1.83,1.9267,2.1303,2.3043,2.4175,2.5025,2.5872,2.6347,2.64,2.64,2.64,2.64,2.64,2.64,2.64,2.64,2.64,2.64,2.64,2.64,2.64,2.64,2.64,2.64,2.64,2.64,2.64,2.64,2.64,2.64,2.64,2.64,2.6505,2.6544,2.6676,2.6742,2.7097,2.7412,2.7805,2.8157,2.851,2.8705,2.8847,2.908,2.9843,3.1507,3.3562,3.4429,3.5588,3.6645,3.7751,3.8044,3.8319,3.8501,3.8611,3.8611,1.2334,1.2204,1.4045,1.4597,1.4307,1.4638,1.4754,1.4713,1.4672,1.4672,1.4713,1.4796,1.4837,1.4886,1.4927,1.501,1.4961,1.5002,1.5043,1.5043,1.5043,1.5216,1.5422,1.5546,1.5628,1.5793,1.5883,1.5628,1.5216,1.5085,1.5002,1.5126,1.5422,1.5546,1.5587,1.5752,1.5966,1.6007,1.6007,1.6007,1.6007,1.6007,1.6007,1.6007,1.6007,1.6007,1.6007,1.6007,1.6007,1.6007,1.6007,1.6007,1.6007,1.6007,1.6163,1.6443,1.6534,1.7337,1.8228,1.9755,2.113,2.3043,2.3976,2.5104,2.5779,2.6228,2.64,2.64,2.64,2.64,2.64,2.64,2.64,2.64,2.64,2.64,2.64,2.64,2.64,2.64,2.64,2.64,2.64,2.64,2.64,2.64,2.64,2.64,2.64,2.64,2.6439,2.6623,2.6795,2.6992,2.7215,2.749,2.7765,2.8054,2.8353,2.8651,2.8769,2.8886,2.908,2.9314,3.1024,3.2842,3.3449,3.4166,3.5551,3.6719,3.7511,3.808,3.8428,3.8574,3.8611,1.4341,1.4375,1.5002,1.5051,1.4713,1.5133,1.5092,1.4754,1.4796,1.4713,1.4837,1.5133,1.5298,1.5381,1.5669,1.5801,1.5801,1.5711,1.5669,1.5669,1.5711,1.5752,1.5883,1.5925,1.5883,1.6007,1.6007,1.5966,1.5711,1.5711,1.5793,1.5793,1.5752,1.5917,1.5842,1.5966,1.6007,1.6007,1.6007,1.6007,1.6007,1.6007,1.6007,1.6007,1.6007,1.6007,1.6007,1.6007,1.6007,1.6007,1.6007,1.6007,1.6007,1.6007,1.6936,1.7778,1.8341,1.8422,1.9318,2.1141,2.2871,2.4175,2.5104,2.599,2.6307,2.64,2.64,2.64,2.64,2.64,2.64,2.64,2.64,2.64,2.64,2.64,2.64,2.64,2.64,2.64,2.64,2.64,2.64,2.64,2.64,2.64,2.64,2.64,2.6426,2.6465,2.6558,2.6755,2.7136,2.7425,2.7608,2.7922,2.8157,2.8368,2.8549,2.8769,2.8847,2.8886,2.8886,2.9508,3.0986,3.1622,3.1852,3.2826,3.4541,3.5849,3.683,3.7714,3.8428,3.8538,3.8611,1.5298,1.5133,1.5587,1.5505,1.5175,1.5587,1.5628,1.5463,1.5422,1.5422,1.5463,1.5628,1.5752,1.576,1.5966,1.5966,1.6007,1.6007,1.6007,1.6007,1.6007,1.6007,1.5966,1.6007,1.6007,1.6007,1.6007,1.6007,1.6007,1.6007,1.6007,1.6007,1.6007,1.5966,1.6007,1.6007,1.6007,1.6007,1.6007,1.6007,1.6007,1.6007,1.6007,1.6007,1.6007,1.6007,1.6007,1.6007,1.6007,1.6007,1.6007,1.6007,1.6287,1.6854,1.7942,1.8504,2.0605,2.1504,2.1867,2.3084,2.4096,2.5104,2.5951,2.6307,2.64,2.64,2.64,2.64,2.64,2.64,2.64,2.64,2.64,2.64,2.64,2.64,2.64,2.64,2.64,2.64,2.64,2.64,2.64,2.64,2.64,2.64,2.64,2.64,2.6505,2.6663,2.6795,2.6953,2.7425,2.7883,2.8079,2.8353,2.851,2.8666,2.8666,2.8847,2.8847,2.8886,2.8886,2.8886,2.9649,3.0075,3.0253,3.2157,3.4504,3.5476,3.6275,3.7217,3.808,3.8538,3.8611,1.5842,1.5587,1.5883,1.5842,1.5587,1.5883,1.5966,1.5966,1.5966,1.5966,1.6007,1.5966,1.5966,1.6007,1.6007,1.6007,1.6007,1.6007,1.6007,1.6007,1.6007,1.6007,1.6007,1.6007,1.6007,1.6007,1.6007,1.6007,1.6007,1.6007,1.6007,1.6007,1.6007,1.6007,1.6007,1.6007,1.6007,1.6007,1.6007,1.6007,1.6007,1.6007,1.6007,1.6007,1.6007,1.6007,1.6007,1.6007,1.6007,1.6007,1.6007,1.6163,1.6895,1.7778,1.9155,2.0241,2.235,2.3616,2.3976,2.4694,2.5224,2.5911,2.64,2.64,2.64,2.64,2.64,2.64,2.64,2.64,2.64,2.64,2.64,2.64,2.64,2.64,2.64,2.64,2.64,2.64,2.64,2.64,2.64,2.64,2.64,2.64,2.64,2.64,2.6544,2.6702,2.6939,2.7057,2.7451,2.8001,2.8431,2.8666,2.8847,2.8886,2.8886,2.8886,2.8886,2.8886,2.8886,2.8886,2.8886,2.908,2.9571,3.2081,3.4354,3.4616,3.5141,3.6719,3.7714,3.8153,3.8538,1.5966,1.5966,1.5966,1.5966,1.5917,1.5966,1.6007,1.6007,1.6007,1.6007,1.6007,1.6007,1.6007,1.6007,1.6007,1.6007,1.6007,1.6007,1.6007,1.6007,1.6007,1.6007,1.6007,1.6007,1.6007,1.6007,1.6007,1.6007,1.6007,1.6007,1.6007,1.6007,1.6007,1.6007,1.6007,1.6007,1.6007,1.6007,1.6007,1.6007,1.6007,1.6007,1.6007,1.6007,1.6007,1.6007,1.6007,1.6007,1.6246,1.6246,1.6369,1.7182,1.8268,1.9074,2.0524,2.2309,2.3484,2.4746,2.5462,2.5792,2.6149,2.6347,2.64,2.64,2.64,2.64,2.64,2.64,2.64,2.64,2.64,2.64,2.64,2.64,2.64,2.64,2.64,2.64,2.64,2.64,2.64,2.64,2.64,2.64,2.64,2.64,2.64,2.64,2.6439,2.6623,2.6978,2.7215,2.749,2.8001,2.8666,2.8847,2.8886,2.8886,2.8886,2.8886,2.8886,2.8886,2.8886,2.8886,2.8886,2.8886,2.8964,3.06,3.1966,3.288,3.396,3.5402,3.6534,3.7033,3.7677,1.6007,1.6007,1.6007,1.6007,1.6007,1.6007,1.6007,1.6007,1.6007,1.6007,1.6007,1.6007,1.6007,1.6007,1.6007,1.6007,1.6007,1.6007,1.6007,1.6007,1.6007,1.6007,1.6007,1.6007,1.6007,1.6007,1.6007,1.6007,1.6007,1.6007,1.6007,1.6007,1.6007,1.6007,1.6007,1.6007,1.6007,1.6007,1.6007,1.6007,1.6007,1.6007,1.6007,1.6007,1.6007,1.6007,1.6007,1.6007,1.6607,1.7255,1.7419,1.8513,1.9927,2.0848,2.2269,2.3816,2.4654,2.5581,2.6109,2.64,2.64,2.64,2.64,2.64,2.64,2.64,2.64,2.64,2.64,2.64,2.64,2.64,2.64,2.64,2.64,2.64,2.64,2.64,2.64,2.64,2.64,2.64,2.64,2.64,2.64,2.64,2.64,2.6439,2.6518,2.6637,2.7018,2.7412,2.7726,2.8001,2.8588,2.8783,2.8886,2.8886,2.8886,2.8886,2.8886,2.8886,2.8886,2.8886,2.8886,2.8886,2.8886,2.8886,2.992,3.166,3.288,3.3885,3.4916,3.5737,3.6571,1.6007,1.6007,1.6007,1.6007,1.6007,1.6007,1.6007,1.6007,1.6007,1.6007,1.6007,1.6007,1.6007,1.6007,1.6007,1.6007,1.6007,1.6007,1.6007,1.6007,1.6007,1.6007,1.6007,1.6007,1.6007,1.6007,1.6007,1.6007,1.6007,1.6007,1.6007,1.6007,1.6007,1.6007,1.6007,1.6007,1.6007,1.6007,1.6007,1.6007,1.6007,1.6007,1.6007,1.6007,1.6007,1.6007,1.6007,1.6048,1.6492,1.7378,1.8187,1.944,2.106,2.2682,2.3896,2.4786,2.5541,2.6347,2.64,2.64,2.64,2.64,2.64,2.64,2.64,2.64,2.64,2.64,2.64,2.64,2.64,2.64,2.64,2.64,2.64,2.64,2.64,2.64,2.64,2.64,2.64,2.64,2.64,2.64,2.64,2.64,2.64,2.6505,2.6702,2.69,2.7136,2.7569,2.7936,2.8197,2.8471,2.8705,2.8886,2.8886,2.8886,2.8886,2.8886,2.8886,2.8886,2.8886,2.8886,2.8886,2.8886,2.8886,2.9804,3.1062,3.2195,3.3281,3.3184,3.4053,3.5215,1.6007,1.6007,1.6007,1.6007,1.6007,1.6007,1.6007,1.6007,1.6007,1.6007,1.6007,1.6007,1.6007,1.6007,1.6007,1.6007,1.6007,1.6007,1.6007,1.6007,1.6007,1.6007,1.6007,1.6007,1.6007,1.6007,1.6007,1.6007,1.6007,1.6007,1.6007,1.6007,1.6007,1.6007,1.6007,1.6007,1.6007,1.6007,1.6007,1.6007,1.6007,1.6007,1.6007,1.6007,1.6007,1.6007,1.6007,1.6007,1.6534,1.7583,1.8585,1.9998,2.1977,2.3364,2.4706,2.599,2.6188,2.64,2.64,2.64,2.64,2.64,2.64,2.64,2.64,2.64,2.64,2.64,2.64,2.64,2.64,2.64,2.64,2.64,2.64,2.64,2.64,2.64,2.64,2.64,2.64,2.64,2.64,2.64,2.64,2.64,2.64,2.6544,2.6821,2.7097,2.7372,2.7608,2.8015,2.825,2.851,2.8744,2.8886,2.8886,2.8886,2.8886,2.8886,2.8886,2.8886,2.8886,2.8886,2.8886,2.8886,2.8886,2.9688,3.0462,3.1852,3.269,3.2348,3.2462,3.3751,1.6007,1.6007,1.6007,1.6007,1.6007,1.6007,1.6007,1.6007,1.6007,1.6007,1.6007,1.6007,1.6007,1.6007,1.6007,1.6007,1.6007,1.6007,1.6007,1.6007,1.6007,1.6007,1.6007,1.6007,1.6007,1.6007,1.6007,1.6007,1.6007,1.6007,1.6007,1.6007,1.6007,1.6007,1.6007,1.6007,1.6007,1.6007,1.6007,1.6007,1.6007,1.6007,1.6007,1.6007,1.6007,1.6048,1.6163,1.6246,1.7059,1.8717,1.9998,2.1493,2.3592,2.5144,2.566,2.6347,2.64,2.64,2.64,2.64,2.64,2.64,2.64,2.64,2.64,2.64,2.64,2.64,2.64,2.64,2.64,2.64,2.64,2.64,2.64,2.64,2.64,2.64,2.64,2.64,2.64,2.6439,2.6439,2.6623,2.6663,2.6742,2.6781,2.6781,2.7018,2.7294,2.7555,2.7726,2.7961,2.8236,2.851,2.8744,2.8886,2.8886,2.8886,2.8886,2.8886,2.8886,2.8886,2.8886,2.8886,2.8886,2.8886,2.8925,2.908,2.9881,3.0909,3.1239,3.0678,3.1178,3.2462,1.6007,1.6007,1.6007,1.6007,1.6007,1.6007,1.6007,1.6007,1.6007,1.6007,1.6007,1.6007,1.6007,1.6007,1.6007,1.6007,1.6007,1.6007,1.6007,1.6007,1.6007,1.6007,1.6007,1.6007,1.6007,1.6007,1.6007,1.6007,1.6007,1.6007,1.6007,1.6007,1.6007,1.6007,1.6007,1.6007,1.6007,1.6007,1.6007,1.6007,1.6007,1.6007,1.6007,1.6007,1.6089,1.6287,1.6731,1.7337,1.8187,2.0494,2.2068,2.3072,2.5012,2.607,2.6268,2.64,2.64,2.64,2.64,2.64,2.64,2.64,2.64,2.64,2.64,2.64,2.64,2.64,2.64,2.64,2.64,2.64,2.64,2.64,2.64,2.64,2.64,2.64,2.64,2.64,2.6426,2.6465,2.6623,2.6821,2.6978,2.7097,2.7175,2.7215,2.7254,2.7569,2.7869,2.8065,2.8197,2.8471,2.8666,2.8783,2.8847,2.8886,2.8886,2.8886,2.8886,2.8886,2.8886,2.8886,2.8886,2.8886,2.8886,2.8964,2.9042,2.9042,2.9353,2.9392,2.8939,3.0307,3.2004,1.6007,1.6007,1.6007,1.6007,1.6007,1.6007,1.6007,1.6007,1.6007,1.6007,1.6007,1.6007,1.6007,1.6007,1.6007,1.6007,1.6007,1.6007,1.6007,1.6007,1.6007,1.6007,1.6007,1.6007,1.6007,1.6007,1.6007,1.6007,1.6007,1.6007,1.6007,1.6007,1.6007,1.6007,1.6007,1.6007,1.6007,1.6007,1.6007,1.6007,1.6007,1.6007,1.6246,1.6369,1.6607,1.7419,1.8105,1.887,1.9805,2.1343,2.2843,2.3536,2.4507,2.5541,2.607,2.64,2.64,2.64,2.64,2.64,2.64,2.64,2.64,2.64,2.64,2.64,2.64,2.64,2.64,2.64,2.64,2.64,2.64,2.64,2.64,2.64,2.64,2.64,2.64,2.6426,2.6465,2.6623,2.6978,2.7215,2.7319,2.7412,2.7569,2.7726,2.7805,2.8079,2.8353,2.8573,2.8691,2.8769,2.8886,2.8847,2.8847,2.8886,2.8886,2.8886,2.8886,2.8886,2.8886,2.8886,2.8886,2.8886,2.8886,2.8886,2.8925,2.8886,2.8886,2.8886,2.8939,3.0755,3.2424,1.6007,1.6007,1.6007,1.6007,1.6007,1.6007,1.6007,1.6007,1.6007,1.6007,1.6007,1.6007,1.6007,1.6007,1.6007,1.6007,1.6007,1.6007,1.6007,1.6007,1.6007,1.6007,1.6007,1.6007,1.6007,1.6007,1.6007,1.6007,1.6007,1.6007,1.6007,1.6007,1.6007,1.6007,1.6007,1.6007,1.6122,1.6089,1.6122,1.6122,1.6163,1.6205,1.6772,1.7501,1.7819,1.883,2.0008,2.0403,2.1383,2.2963,2.3484,2.4175,2.574,2.6149,2.64,2.64,2.64,2.64,2.64,2.64,2.64,2.64,2.64,2.64,2.64,2.64,2.64,2.64,2.64,2.64,2.64,2.64,2.64,2.64,2.64,2.64,2.64,2.64,2.64,2.6426,2.6505,2.69,2.7254,2.749,2.7594,2.7751,2.7908,2.8079,2.8275,2.8471,2.8627,2.8847,2.8886,2.8886,2.8886,2.8886,2.8886,2.8886,2.8886,2.8886,2.8886,2.8886,2.8886,2.8886,2.8886,2.8886,2.8886,2.8886,2.8886,2.8886,2.8886,2.8886,2.9314,3.1216,3.288,1.6007,1.6007,1.6007,1.6007,1.6007,1.6007,1.6007,1.6007,1.6007,1.6007,1.6007,1.6007,1.6007,1.6007,1.6007,1.6007,1.6007,1.6007,1.6007,1.6007,1.6007,1.6007,1.6007,1.6007,1.6007,1.6007,1.6007,1.6007,1.6007,1.6007,1.6007,1.6007,1.6007,1.6007,1.6205,1.6731,1.7132,1.6854,1.6607,1.6575,1.6772,1.7091,1.8105,1.9237,1.9602,2.0616,2.1947,2.2189,2.3164,2.4495,2.4773,2.5224,2.6347,2.6386,2.64,2.64,2.64,2.64,2.64,2.64,2.64,2.64,2.64,2.64,2.64,2.64,2.64,2.64,2.64,2.64,2.64,2.64,2.64,2.64,2.64,2.64,2.64,2.64,2.6439,2.6479,2.6742,2.7136,2.7451,2.7687,2.7986,2.8221,2.8378,2.8495,2.8573,2.8691,2.8769,2.8886,2.8886,2.8886,2.8886,2.8886,2.8886,2.8886,2.8886,2.8886,2.8886,2.8886,2.8886,2.8886,2.8886,2.8886,2.8886,2.8886,2.8886,2.8925,2.9119,2.9455,3.0214,3.1928,3.3449,1.6007,1.6007,1.6007,1.6007,1.6007,1.6007,1.6007,1.6007,1.6007,1.6007,1.6007,1.6007,1.6007,1.6007,1.6007,1.6007,1.6007,1.6007,1.6007,1.6007,1.6007,1.6007,1.6007,1.6007,1.6007,1.6007,1.6007,1.6007,1.6007,1.6007,1.6007,1.6007,1.6369,1.6566,1.6813,1.8146,1.8748,1.8667,1.8023,1.7705,1.8545,1.9033,1.9592,2.105,2.1625,2.2149,2.3484,2.4255,2.4706,2.5779,2.6347,2.6307,2.6347,2.64,2.64,2.64,2.64,2.64,2.64,2.64,2.64,2.64,2.64,2.64,2.64,2.64,2.64,2.64,2.64,2.64,2.64,2.64,2.64,2.64,2.64,2.64,2.64,2.6426,2.6465,2.6623,2.6978,2.7372,2.7765,2.8079,2.8339,2.8691,2.8769,2.8808,2.8847,2.8886,2.8886,2.8886,2.8886,2.8886,2.8886,2.8886,2.8886,2.8886,2.8886,2.8886,2.8886,2.8886,2.8886,2.8886,2.8886,2.8886,2.8886,2.8886,2.8925,2.9003,2.9353,3.0036,3.1239,3.288,3.4128,1.6007,1.6007,1.6007,1.6007,1.6007,1.6007,1.6007,1.6007,1.6007,1.6015,1.6007,1.6015,1.6023,1.6047,1.6056,1.6056,1.6039,1.608,1.6015,1.6039,1.6047,1.6088,1.6031,1.6072,1.6031,1.6007,1.6007,1.6048,1.6287,1.6205,1.6122,1.6328,1.7132,1.7983,1.8105,1.9684,2.0524,2.0535,2.0494,2.013,2.0686,2.0899,2.1343,2.2591,2.3324,2.4016,2.5065,2.5713,2.5951,2.6386,2.6386,2.6386,2.64,2.64,2.64,2.64,2.64,2.64,2.64,2.64,2.64,2.64,2.64,2.64,2.64,2.64,2.64,2.64,2.64,2.64,2.64,2.64,2.64,2.64,2.6386,2.6386,2.6426,2.6505,2.6584,2.69,2.7215,2.7608,2.804,2.8392,2.8705,2.8847,2.8847,2.8886,2.8886,2.8886,2.8886,2.8886,2.8886,2.8886,2.8886,2.8886,2.8886,2.8886,2.8886,2.8886,2.8886,2.8886,2.8886,2.8886,2.8886,2.8886,2.8886,2.8886,2.8964,2.9042,2.961,3.033,3.2195,3.3922,3.5028,1.6007,1.6007,1.6007,1.6007,1.6007,1.6007,1.6047,1.6104,1.6162,1.6169,1.6218,1.6169,1.6202,1.6267,1.6284,1.6259,1.6267,1.6284,1.6316,1.6258,1.6218,1.6308,1.6284,1.6251,1.6227,1.6186,1.6122,1.6205,1.7018,1.7296,1.746,1.8146,1.9349,1.9795,1.9998,2.1343,2.235,2.2401,2.2963,2.3272,2.3112,2.2992,2.3324,2.4415,2.5144,2.5673,2.5872,2.64,2.64,2.64,2.64,2.64,2.64,2.64,2.64,2.64,2.64,2.64,2.64,2.64,2.64,2.64,2.64,2.64,2.64,2.64,2.64,2.64,2.64,2.64,2.64,2.64,2.64,2.64,2.6426,2.6465,2.6702,2.6978,2.7097,2.7294,2.7569,2.7712,2.8079,2.8275,2.8588,2.8886,2.8886,2.8886,2.8886,2.8886,2.8886,2.8886,2.8886,2.8886,2.8886,2.8886,2.8886,2.8886,2.8886,2.8886,2.8886,2.8886,2.8886,2.8886,2.8886,2.8886,2.8886,2.8886,2.8886,2.8964,2.9726,3.0639,3.2728,3.4691,3.57,1.6007,1.6007,1.6007,1.6007,1.6007,1.6031,1.6162,1.6284,1.6332,1.6438,1.6568,1.6446,1.6479,1.6535,1.6584,1.6584,1.6552,1.6487,1.6527,1.6535,1.6535,1.6495,1.6503,1.6535,1.6658,1.7001,1.7186,1.7978,1.8911,1.9033,1.9602,2.0969,2.1413,2.1534,2.2028,2.3084,2.4136,2.4415,2.4985,2.5911,2.566,2.5025,2.5263,2.5872,2.64,2.64,2.64,2.64,2.64,2.64,2.64,2.64,2.64,2.64,2.64,2.64,2.64,2.64,2.64,2.64,2.64,2.64,2.64,2.6439,2.6439,2.6465,2.6465,2.6544,2.6544,2.6518,2.6518,2.6584,2.6584,2.6623,2.6663,2.6702,2.7057,2.7372,2.753,2.7687,2.7805,2.7908,2.8118,2.8314,2.8549,2.8822,2.8886,2.8886,2.8886,2.8886,2.8886,2.8886,2.8886,2.8886,2.8886,2.8886,2.8886,2.8886,2.8886,2.8886,2.8886,2.8886,2.8886,2.8886,2.8886,2.8886,2.8886,2.8886,2.8886,2.8886,2.9998,3.1139,3.2842,3.4691,3.5997,1.6007,1.6007,1.6007,1.6007,1.6023,1.6153,1.6276,1.6324,1.647,1.6633,1.6712,1.6728,1.6671,1.6584,1.6584,1.6609,1.6665,1.6641,1.66,1.6576,1.6649,1.6617,1.6763,1.7026,1.7433,1.8209,1.9219,2.0272,2.0697,2.0727,2.0888,2.1545,2.3003,2.3324,2.3604,2.4654,2.5673,2.5832,2.5872,2.64,2.64,2.603,2.6109,2.6347,2.64,2.64,2.64,2.64,2.64,2.64,2.64,2.64,2.64,2.64,2.64,2.64,2.64,2.64,2.64,2.64,2.64,2.64,2.6439,2.6518,2.6597,2.6781,2.69,2.7097,2.7097,2.6939,2.6978,2.7162,2.724,2.7294,2.7333,2.7372,2.7516,2.7633,2.7712,2.7922,2.8079,2.8157,2.8275,2.851,2.8744,2.8886,2.8886,2.8886,2.8886,2.8886,2.8886,2.8886,2.8886,2.8886,2.8886,2.8886,2.8886,2.8886,2.8886,2.8886,2.8886,2.8886,2.8886,2.8886,2.8886,2.8886,2.8886,2.8886,2.8886,2.908,3.0346,3.1638,3.326,3.4804,3.6238]},{"header":{"parameterUnit":"m.s-1","parameterCategory":1,"la1":31.0,"la2":29.5877,"lo1":-88.7671,"lo2":-86.6584,"dy":0.0162,"dx":0.0185,"nx":115,"ny":88,"refTime":"2023-09-24T12:00:00:Z","depth":0,"parameterNumber":3,"parameterNumberName":"V-component_of_WINDS"},"data":[0.0,0.0,0.0,0.0,0.0,0.0,0.0,0.0,0.0,0.0,0.0,0.0,0.0,0.0,0.0,0.0,0.0,0.0,0.0,0.0,0.0,0.0,0.0,0.0,0.0,0.0,0.0,0.0,0.0,0.0,0.0,0.0,0.0,0.0,0.0,0.0,0.0,0.0,0.0,0.0,0.0,0.0,0.0,0.0,0.0,0.0,0.0,0.0,0.0,0.0,0.0,0.0,0.0,0.0,0.0,0.0,0.0,0.0,0.0,0.0,0.0,0.0,0.0,0.0,0.0,0.0,0.0,0.0,0.0,0.0,0.0,0.0,0.0,0.0,0.0,0.0,0.0,0.0,0.0,0.0,0.0,0.0,0.0,0.0,0.0,0.0,0.0,0.0,0.0,0.0,0.0,0.0,0.0,0.0,0.0,0.0,0.0,0.0,0.0,0.0,0.0,0.0,0.0,0.0,0.0,0.0,0.0,0.0,0.0,0.0,0.0,0.0,0.0,0.0,0.0,0.0,0.0,0.0,0.0,0.0,0.0,0.0,0.0,0.0,0.0,0.0,0.0,0.0,0.0,0.0,0.0,0.0,0.0,0.0,0.0,0.0,0.0,0.0,0.0,0.0,0.0,0.0,0.0,0.0,0.0,0.0,0.0,0.0,0.0,0.0,0.0,0.0,0.0,0.0,0.0,0.0,0.0,0.0,0.0,0.0,0.0,0.0,0.0,0.0,0.0,0.0,0.0,0.0,0.0,0.0,0.0,0.0,0.0,0.0,0.0,0.0,0.0,0.0,0.0,0.0,0.0,0.0,0.0,0.0,0.0,0.0,0.0,0.0,0.0,0.0,0.0,0.0,0.0,0.0,0.0,0.0,0.0,0.0,0.0,0.0,0.0,0.0,0.0,0.0,0.0,0.0,0.0,0.0,0.0,0.0,0.0,0.0,0.0,0.0,0.0,0.0,0.0,0.0,0.0,0.0,0.0,0.0,0.0,0.0,0.0,0.0,0.0,0.0,0.0,0.0,0.0,0.0,0.0,0.0,0.0,0.0,0.0,0.0,0.0,0.0,0.0,0.0,0.0,0.0,0.0,0.0,0.0,0.0,0.0,0.0,0.0,0.0,0.0,0.0,0.0,0.0,0.0,0.0,0.0,0.0,0.0,0.0,0.0,0.0,0.0,0.0,0.0,0.0,0.0,0.0,0.0,0.0,0.0,0.0,0.0,0.0,0.0,0.0,0.0,0.0,0.0,0.0,0.0,0.0,0.0,0.0,0.0,0.0,0.0,0.0,0.0,0.0,0.0,0.0,0.0,0.0,0.0,0.0,0.0,0.0,0.0,0.0,0.0,0.0,0.0,0.0,0.0,0.0,0.0,0.0,0.0,0.0,0.0,0.0,0.0,0.0,0.0,0.0,0.0,0.0,0.0,0.0,0.0,0.0,0.0,0.0,0.0,0.0,0.0,0.0,0.0,0.0,0.0,0.0,0.0,0.0,0.0,0.0,0.0,0.0,0.0,0.0,0.0,0.0,0.0,0.0,0.0,0.0,0.0,0.0,0.0,0.0,0.0,0.0,0.0,0.0,0.0,0.0,0.0,0.0,0.0,0.0,0.0,0.0,0.0,0.0,0.0,0.0,0.0,0.0,0.0,0.0,0.0,0.0,0.0,0.0,0.0,0.0,0.0,0.0,0.0,0.0,0.0,0.0,0.0,0.0,0.0,0.0,0.0,0.0,0.0,0.0,0.0,0.0,0.0,0.0,0.0,0.0,0.0,0.0,0.0,0.0,0.0,0.0,0.0,0.0,0.0,0.0,0.0,0.0,0.0,0.0,0.0,0.0,0.0,0.0,0.0,0.0,0.0,0.0,0.0,0.0,0.0,0.0,0.0,0.0,0.0,0.0,0.0,0.0,0.0,0.0,0.0,0.0,0.0,0.0,0.0,0.0,0.0,0.0,0.0,0.0,0.0,0.0,0.0,0.0,0.0,0.0,0.0,0.0,0.0,0.0,0.0,0.0,0.0,0.0,0.0,0.0,0.0,0.0,0.0,0.0,0.0,0.0,0.0,0.0,0.0,0.0,0.0,0.0,0.0,0.0,0.0,0.0,0.0,0.0,0.0,0.0,0.0,0.0,0.0,0.0,0.0,0.0,0.0,0.0,0.0,0.0,0.0,0.0,0.0,0.0,0.0,0.0,0.0,0.0,0.0,0.0,0.0,0.0,0.0,0.0,0.0,0.0,0.0,0.0,0.0,0.0,0.0,0.0,0.0,0.0,0.0,0.0,0.0,0.0,0.0,0.0,0.0,0.0,0.0,0.0,0.0,0.0,0.0,0.0,0.0,0.0,0.0,0.0,0.0,0.0,0.0,0.0,0.0,0.0,0.0,0.0,0.0,0.0,0.0,0.0,0.0,0.0,0.0,0.0,0.0,0.0,0.0,0.0,0.0,0.0,0.0,0.0,0.0,0.0,0.0,0.0,0.0,0.0,0.0,0.0,0.0,0.0,0.0,0.0,0.0,0.0,0.0,0.0,0.0,0.0,0.0,0.0,0.0,0.0,0.0,0.0,0.0,0.0,0.0,0.0,0.0,0.0,0.0,0.0,0.0,0.0,0.0,0.0,0.0,0.0,0.0,0.0,0.0,0.0,0.0,0.0,0.0,0.0,0.0,0.0,0.0,0.0,0.0,0.0,0.0,0.0,0.0,0.0,0.0,0.0,0.0,0.0,0.0,0.0,0.0,0.0,0.0,0.0,0.0,0.0,0.0,0.0,0.0,0.0,0.0,0.0,0.0,0.0,0.0,0.0,0.0,0.0,0.0,0.0,0.0,0.0,0.0,0.0,0.0,0.0,0.0,0.0,0.0,0.0,0.0,0.0,0.0,0.0,0.0,0.0,0.0,0.0,0.0,0.0,0.0,0.0,0.0,0.0,0.0,0.0,0.0,0.0,0.0,0.0,0.0,0.0,0.0,0.0,0.0,0.0,0.0,0.0,0.0,0.0,0.0,0.0,0.0,0.0,0.0,0.0,0.0,0.0,0.0,0.0,0.0,0.0,0.0,0.0,0.0,0.0,0.0,0.0,0.0,0.0,0.0,0.0,0.0,0.0,0.0,0.0,0.0,0.0,0.0,0.0,0.0,0.0,0.0,0.0,0.0,0.0,0.0,0.0,0.0,0.0,0.0,0.0,0.0,0.0,0.0,0.0,0.0,0.0,0.0,0.0,0.0,0.0,0.0,0.0,0.0,0.0,0.0,0.0,0.0,0.0,0.0,0.0,0.0,0.0,0.0,0.0,0.0,0.0,0.0,0.0,0.0,0.0,0.0,0.0,0.0,0.0,0.0,0.0,0.0,0.0,0.0,0.0,0.0,0.0,0.0,0.0,0.0,0.0,0.0,0.0,0.0,0.0,0.0,0.0,0.0,0.0,0.0,0.0,0.0,0.0,0.0,0.0,0.0,0.0,0.0,0.0,0.0,0.0,0.0,0.0,0.0,0.0,0.0,0.0,0.0,0.0,0.0,0.0,0.0,0.0,0.0,0.0,0.0,0.0,0.0,0.0,0.0,0.0,0.0,0.0,0.0,0.0,0.0,0.0,0.0,0.0,0.0,0.0,0.0,0.0,0.0,0.0,0.0,0.0,0.0,0.0,0.0,0.0,0.0,0.0,0.0,0.0,0.0,0.0,0.0,0.0,0.0,0.0,0.0,0.0,0.0,0.0,0.0,0.0,0.0,0.0,0.0,0.0,0.0,0.0,0.0,0.0,0.0,0.0,0.0,0.0,0.0,0.0,0.0,0.0,0.0,0.0,0.0,0.0,0.0,0.0,0.0,0.0,0.0,0.0,0.0,0.0,0.0,0.0,0.0,0.0,0.0,0.0,0.0,0.0,0.0,0.0,0.0,0.0,0.0,0.0,0.0,0.0,0.0,0.0,0.0,0.0,0.0,0.0,0.0,0.0,0.0,0.0,0.0,0.0,0.0,0.0,0.0,0.0,0.0,0.0,0.0,0.0,0.0,0.0,0.0,0.0,0.0,0.0,0.0,0.0,0.0,0.0,0.0,0.0,0.0,0.0,0.0,0.0,0.0,0.0,0.0,0.0,0.0,0.0,0.0,0.0,0.0,0.0,0.0,0.0,0.0,0.0,0.0,0.0,0.0,0.0,0.0,0.0,0.0,0.0,0.0,0.0,0.0,0.0,0.0,0.0,0.0,0.0,0.0,0.0,0.0,0.0,0.0,0.0,0.0,0.0,0.0,0.0,0.0,0.0,0.0,0.0,0.0,0.0,3.3114,0.0,0.0,0.0,0.0,0.0,0.0,0.0,0.0,0.0,0.0,0.0,0.0,0.0,0.0,0.0,0.0,0.0,0.0,0.0,0.0,0.0,0.0,0.0,0.0,0.0,0.0,0.0,0.0,0.0,0.0,0.0,0.0,0.0,0.0,0.0,0.0,0.0,0.0,0.0,0.0,0.0,0.0,0.0,0.0,0.0,0.0,0.0,0.0,0.0,0.0,0.0,0.0,0.0,0.0,0.0,0.0,0.0,0.0,0.0,0.0,0.0,0.0,0.0,0.0,0.0,0.0,0.0,0.0,0.0,0.0,0.0,0.0,0.0,0.0,0.0,0.0,0.0,0.0,0.0,0.0,0.0,0.0,0.0,0.0,0.0,0.0,0.0,0.0,0.0,0.0,0.0,0.0,0.0,0.0,0.0,0.0,0.0,0.0,0.0,0.0,0.0,0.0,0.0,0.0,0.0,0.0,0.0,0.0,0.0,0.0,3.5299,3.5235,3.4764,3.4297,3.3862,0.0,0.0,0.0,0.0,0.0,0.0,0.0,0.0,0.0,0.0,0.0,0.0,0.0,0.0,0.0,0.0,0.0,0.0,0.0,0.0,0.0,0.0,0.0,0.0,0.0,0.0,0.0,0.0,0.0,0.0,0.0,0.0,0.0,0.0,0.0,0.0,0.0,0.0,0.0,0.0,0.0,0.0,0.0,0.0,0.0,0.0,0.0,0.0,0.0,0.0,0.0,0.0,0.0,0.0,0.0,0.0,0.0,0.0,0.0,0.0,0.0,0.0,0.0,0.0,0.0,0.0,0.0,0.0,0.0,0.0,0.0,0.0,0.0,0.0,0.0,0.0,0.0,0.0,0.0,0.0,0.0,0.0,0.0,0.0,0.0,0.0,0.0,0.0,0.0,0.0,0.0,0.0,0.0,0.0,0.0,0.0,0.0,0.0,0.0,0.0,0.0,0.0,0.0,0.0,0.0,0.0,0.0,0.0,0.0,0.0,0.0,0.0,3.541,3.4893,3.4532,0.0,0.0,0.0,0.0,0.0,0.0,0.0,0.0,0.0,0.0,0.0,0.0,0.0,0.0,0.0,0.0,0.0,0.0,0.0,0.0,0.0,0.0,0.0,0.0,0.0,0.0,0.0,0.0,0.0,0.0,0.0,0.0,0.0,0.0,0.0,0.0,0.0,0.0,0.0,0.0,0.0,0.0,0.0,0.0,0.0,0.0,0.0,0.0,0.0,0.0,0.0,0.0,0.0,0.0,0.0,0.0,0.0,0.0,0.0,0.0,0.0,0.0,0.0,0.0,0.0,0.0,0.0,0.0,0.0,0.0,0.0,0.0,0.0,0.0,0.0,0.0,0.0,0.0,0.0,0.0,0.0,0.0,0.0,0.0,0.0,0.0,0.0,0.0,0.0,0.0,0.0,0.0,0.0,0.0,0.0,0.0,0.0,0.0,0.0,0.0,0.0,0.0,0.0,0.0,0.0,0.0,0.0,0.0,0.0,0.0,3.6968,3.6999,3.6846,0.0,3.4682,0.0,0.0,0.0,0.0,0.0,0.0,0.0,0.0,0.0,0.0,0.0,0.0,0.0,0.0,0.0,0.0,0.0,0.0,0.0,0.0,0.0,0.0,0.0,0.0,0.0,0.0,0.0,0.0,0.0,0.0,0.0,0.0,0.0,0.0,0.0,0.0,0.0,0.0,0.0,0.0,0.0,0.0,0.0,0.0,0.0,0.0,0.0,0.0,0.0,0.0,0.0,0.0,0.0,0.0,0.0,0.0,0.0,0.0,0.0,0.0,0.0,0.0,0.0,0.0,0.0,0.0,0.0,0.0,0.0,0.0,0.0,0.0,0.0,0.0,0.0,0.0,0.0,0.0,0.0,0.0,0.0,0.0,0.0,0.0,0.0,0.0,0.0,0.0,0.0,0.0,0.0,0.0,0.0,0.0,0.0,0.0,0.0,0.0,0.0,0.0,0.0,0.0,0.0,0.0,0.0,0.0,0.0,0.0,0.0,0.0,3.6926,3.7733,3.6822,3.5783,0.0,0.0,0.0,0.0,0.0,0.0,0.0,0.0,0.0,0.0,0.0,0.0,0.0,0.0,0.0,0.0,0.0,0.0,0.0,0.0,0.0,0.0,0.0,0.0,0.0,0.0,0.0,0.0,0.0,0.0,0.0,0.0,0.0,0.0,0.0,0.0,0.0,0.0,0.0,0.0,0.0,0.0,0.0,0.0,0.0,0.0,0.0,0.0,0.0,0.0,0.0,0.0,0.0,0.0,0.0,0.0,0.0,0.0,0.0,0.0,0.0,0.0,0.0,0.0,0.0,0.0,0.0,0.0,0.0,0.0,0.0,0.0,0.0,0.0,0.0,0.0,0.0,0.0,0.0,0.0,0.0,0.0,0.0,0.0,0.0,0.0,0.0,0.0,0.0,0.0,0.0,0.0,0.0,0.0,0.0,0.0,0.0,0.0,0.0,0.0,0.0,0.0,0.0,0.0,0.0,0.0,0.0,0.0,0.0,0.0,3.6098,3.679,3.8092,3.6689,3.5556,3.4975,0.0,0.0,0.0,0.0,0.0,0.0,0.0,0.0,0.0,0.0,0.0,0.0,0.0,0.0,0.0,0.0,0.0,0.0,0.0,0.0,0.0,0.0,0.0,0.0,0.0,0.0,0.0,0.0,0.0,0.0,0.0,0.0,0.0,0.0,0.0,0.0,0.0,0.0,0.0,0.0,0.0,0.0,0.0,0.0,0.0,0.0,0.0,0.0,0.0,0.0,0.0,0.0,0.0,0.0,0.0,0.0,0.0,0.0,0.0,0.0,0.0,0.0,0.0,0.0,0.0,0.0,0.0,0.0,0.0,0.0,0.0,0.0,0.0,0.0,0.0,0.0,0.0,0.0,0.0,0.0,0.0,0.0,0.0,0.0,0.0,0.0,0.0,0.0,0.0,0.0,0.0,0.0,0.0,0.0,0.0,0.0,0.0,0.0,0.0,0.0,0.0,0.0,0.0,0.0,0.0,0.0,0.0,0.0,3.6198,3.6186,3.6851,3.8336,3.6833,3.5986,0.0,0.0,0.0,0.0,0.0,0.0,0.0,0.0,0.0,0.0,0.0,0.0,0.0,0.0,0.0,0.0,0.0,0.0,0.0,0.0,0.0,0.0,0.0,0.0,0.0,0.0,0.0,0.0,0.0,0.0,0.0,0.0,0.0,0.0,0.0,0.0,0.0,0.0,0.0,0.0,0.0,0.0,0.0,0.0,0.0,0.0,0.0,0.0,0.0,0.0,0.0,0.0,0.0,0.0,0.0,0.0,0.0,0.0,0.0,0.0,0.0,0.0,0.0,0.0,0.0,0.0,0.0,0.0,0.0,0.0,0.0,0.0,0.0,0.0,0.0,0.0,0.0,0.0,0.0,0.0,0.0,0.0,0.0,0.0,0.0,0.0,0.0,0.0,0.0,0.0,0.0,0.0,0.0,0.0,0.0,0.0,0.0,0.0,0.0,0.0,0.0,0.0,0.0,0.0,0.0,0.0,0.0,0.0,0.0,3.6263,3.7265,3.8034,3.8579,3.697,3.6076,0.0,0.0,0.0,0.0,0.0,0.0,0.0,0.0,0.0,0.0,0.0,0.0,0.0,0.0,0.0,0.0,0.0,0.0,0.0,0.0,0.0,0.0,0.0,0.0,0.0,0.0,0.0,0.0,0.0,0.0,0.0,0.0,0.0,0.0,0.0,0.0,0.0,0.0,0.0,0.0,0.0,0.0,0.0,0.0,0.0,0.0,0.0,0.0,0.0,0.0,0.0,0.0,0.0,0.0,0.0,0.0,0.0,0.0,0.0,0.0,0.0,0.0,0.0,0.0,0.0,0.0,0.0,0.0,0.0,0.0,0.0,0.0,0.0,0.0,0.0,0.0,0.0,0.0,0.0,0.0,0.0,0.0,0.0,0.0,0.0,0.0,0.0,0.0,0.0,0.0,0.0,0.0,0.0,0.0,0.0,0.0,0.0,0.0,0.0,0.0,0.0,0.0,0.0,0.0,0.0,0.0,0.0,0.0,0.0,3.6821,0.0,3.8855,3.8855,3.7212,3.6301,0.0,0.0,0.0,0.0,0.0,0.0,0.0,0.0,0.0,0.0,0.0,0.0,0.0,0.0,0.0,0.0,0.0,0.0,0.0,0.0,0.0,0.0,0.0,0.0,0.0,0.0,0.0,0.0,0.0,0.0,0.0,0.0,0.0,0.0,0.0,0.0,0.0,0.0,0.0,0.0,0.0,0.0,0.0,0.0,0.0,0.0,0.0,0.0,0.0,0.0,0.0,0.0,0.0,0.0,0.0,0.0,0.0,0.0,0.0,0.0,0.0,0.0,0.0,0.0,0.0,0.0,0.0,0.0,0.0,0.0,0.0,0.0,0.0,0.0,0.0,0.0,0.0,0.0,0.0,0.0,0.0,0.0,0.0,0.0,0.0,0.0,0.0,0.0,0.0,0.0,0.0,0.0,0.0,0.0,0.0,0.0,0.0,0.0,0.0,0.0,0.0,0.0,0.0,0.0,0.0,0.0,0.0,0.0,3.6502,3.7951,3.8819,3.9225,3.9089,3.7603,3.6748,0.0,0.0,0.0,0.0,0.0,0.0,0.0,0.0,0.0,0.0,0.0,0.0,0.0,0.0,0.0,0.0,0.0,0.0,0.0,0.0,0.0,0.0,0.0,0.0,0.0,0.0,0.0,0.0,0.0,0.0,0.0,0.0,0.0,0.0,0.0,0.0,0.0,0.0,0.0,0.0,0.0,0.0,0.0,0.0,0.0,0.0,0.0,0.0,0.0,0.0,0.0,0.0,0.0,0.0,0.0,0.0,0.0,0.0,0.0,0.0,0.0,0.0,0.0,0.0,0.0,0.0,0.0,0.0,0.0,0.0,0.0,0.0,0.0,0.0,0.0,0.0,0.0,0.0,0.0,0.0,0.0,0.0,0.0,0.0,0.0,0.0,0.0,0.0,0.0,0.0,0.0,0.0,0.0,0.0,0.0,0.0,0.0,0.0,0.0,0.0,0.0,0.0,0.0,0.0,0.0,0.0,0.0,0.0,0.0,3.9138,3.9902,4.0276,4.0219,3.9213,3.8072,0.0,0.0,0.0,0.0,0.0,0.0,0.0,0.0,0.0,0.0,0.0,0.0,0.0,0.0,0.0,0.0,0.0,0.0,0.0,0.0,0.0,0.0,0.0,0.0,0.0,0.0,0.0,0.0,0.0,0.0,0.0,0.0,0.0,0.0,0.0,0.0,0.0,0.0,0.0,0.0,0.0,0.0,0.0,0.0,0.0,0.0,0.0,0.0,0.0,0.0,0.0,0.0,0.0,0.0,0.0,0.0,0.0,0.0,0.0,0.0,0.0,0.0,0.0,0.0,0.0,0.0,0.0,0.0,0.0,0.0,0.0,0.0,0.0,0.0,0.0,0.0,0.0,0.0,0.0,0.0,0.0,0.0,0.0,0.0,0.0,0.0,0.0,0.0,0.0,0.0,0.0,0.0,0.0,0.0,0.0,0.0,0.0,0.0,0.0,0.0,0.0,0.0,0.0,0.0,0.0,0.0,0.0,0.0,0.0,4.0707,4.0815,4.0867,4.0867,4.0052,3.8981,3.761,0.0,0.0,0.0,0.0,0.0,0.0,0.0,0.0,0.0,0.0,0.0,0.0,0.0,0.0,0.0,0.0,0.0,0.0,0.0,0.0,0.0,0.0,0.0,0.0,0.0,0.0,0.0,0.0,0.0,0.0,0.0,0.0,0.0,0.0,0.0,0.0,0.0,0.0,0.0,0.0,0.0,0.0,0.0,0.0,0.0,0.0,0.0,0.0,0.0,0.0,0.0,0.0,0.0,0.0,0.0,0.0,0.0,0.0,0.0,0.0,0.0,0.0,0.0,0.0,0.0,0.0,0.0,0.0,0.0,0.0,0.0,0.0,0.0,0.0,0.0,0.0,0.0,0.0,0.0,0.0,0.0,0.0,0.0,0.0,0.0,0.0,0.0,0.0,0.0,0.0,0.0,0.0,0.0,0.0,0.0,0.0,0.0,0.0,0.0,0.0,0.0,0.0,0.0,0.0,0.0,0.0,0.0,0.0,4.2585,4.1719,4.1284,4.1246,4.0472,3.9603,0.0,0.0,0.0,0.0,0.0,0.0,0.0,0.0,0.0,0.0,0.0,0.0,0.0,0.0,0.0,0.0,0.0,0.0,0.0,0.0,0.0,0.0,0.0,0.0,0.0,0.0,0.0,0.0,0.0,0.0,0.0,0.0,0.0,0.0,0.0,0.0,0.0,0.0,0.0,0.0,0.0,0.0,0.0,0.0,0.0,0.0,0.0,0.0,0.0,0.0,0.0,0.0,0.0,0.0,0.0,0.0,0.0,0.0,0.0,0.0,0.0,0.0,0.0,0.0,0.0,0.0,0.0,0.0,0.0,0.0,0.0,0.0,0.0,0.0,0.0,0.0,0.0,0.0,0.0,0.0,0.0,0.0,0.0,0.0,0.0,0.0,0.0,0.0,0.0,0.0,0.0,0.0,0.0,0.0,0.0,0.0,0.0,0.0,0.0,0.0,0.0,0.0,0.0,0.0,0.0,0.0,0.0,0.0,0.0,4.3453,4.4345,4.4524,4.388,4.3085,4.1993,0.0,0.0,0.0,0.0,0.0,0.0,0.0,0.0,0.0,0.0,0.0,0.0,0.0,0.0,0.0,0.0,0.0,0.0,0.0,0.0,0.0,0.0,0.0,0.0,0.0,0.0,0.0,0.0,0.0,0.0,0.0,0.0,0.0,0.0,0.0,0.0,0.0,0.0,0.0,0.0,0.0,0.0,0.0,0.0,0.0,0.0,0.0,0.0,0.0,0.0,0.0,0.0,0.0,0.0,0.0,0.0,0.0,0.0,0.0,0.0,0.0,0.0,0.0,0.0,0.0,0.0,0.0,0.0,0.0,0.0,0.0,0.0,0.0,0.0,0.0,0.0,0.0,0.0,0.0,0.0,0.0,0.0,0.0,0.0,0.0,0.0,0.0,0.0,0.0,0.0,0.0,0.0,0.0,0.0,0.0,0.0,0.0,0.0,0.0,0.0,0.0,0.0,0.0,0.0,0.0,0.0,0.0,0.0,4.3956,4.4361,4.6252,4.7043,4.6506,4.4687,4.3095,0.0,0.0,0.0,0.0,0.0,0.0,0.0,0.0,0.0,0.0,0.0,0.0,0.0,0.0,0.0,0.0,0.0,0.0,0.0,0.0,0.0,0.0,0.0,0.0,0.0,0.0,0.0,0.0,0.0,0.0,0.0,0.0,0.0,0.0,0.0,0.0,0.0,0.0,0.0,0.0,0.0,0.0,0.0,0.0,0.0,0.0,0.0,0.0,0.0,0.0,0.0,0.0,0.0,0.0,0.0,0.0,0.0,0.0,0.0,0.0,0.0,0.0,0.0,0.0,0.0,0.0,0.0,0.0,0.0,0.0,0.0,0.0,0.0,0.0,0.0,0.0,0.0,0.0,0.0,0.0,0.0,0.0,0.0,0.0,0.0,0.0,0.0,0.0,0.0,0.0,0.0,0.0,0.0,0.0,0.0,0.0,0.0,0.0,0.0,0.0,0.0,0.0,0.0,0.0,0.0,0.0,0.0,0.0,4.5273,4.5401,4.765,4.8844,4.8775,4.5684,4.3587,0.0,0.0,0.0,0.0,0.0,0.0,0.0,0.0,0.0,0.0,0.0,0.0,0.0,0.0,0.0,0.0,0.0,0.0,0.0,0.0,0.0,0.0,0.0,0.0,0.0,0.0,0.0,0.0,0.0,0.0,0.0,0.0,0.0,0.0,0.0,0.0,0.0,0.0,0.0,0.0,0.0,0.0,0.0,0.0,0.0,0.0,0.0,0.0,0.0,0.0,0.0,0.0,0.0,0.0,0.0,0.0,0.0,0.0,0.0,0.0,0.0,0.0,0.0,0.0,0.0,0.0,0.0,0.0,0.0,0.0,0.0,0.0,0.0,0.0,0.0,0.0,0.0,0.0,0.0,0.0,0.0,0.0,0.0,0.0,0.0,0.0,0.0,0.0,0.0,0.0,0.0,0.0,0.0,0.0,0.0,0.0,0.0,0.0,0.0,0.0,0.0,0.0,0.0,0.0,0.0,0.0,0.0,0.0,4.59,4.7152,4.8864,4.981,4.9816,4.7138,4.5596,0.0,0.0,0.0,0.0,0.0,0.0,0.0,0.0,0.0,0.0,0.0,0.0,0.0,0.0,0.0,0.0,0.0,0.0,0.0,0.0,0.0,0.0,0.0,0.0,0.0,0.0,0.0,0.0,0.0,0.0,0.0,0.0,0.0,0.0,0.0,0.0,0.0,0.0,0.0,0.0,0.0,0.0,0.0,0.0,0.0,0.0,0.0,0.0,4.4782,0.0,0.0,0.0,0.0,0.0,0.0,0.0,0.0,0.0,0.0,0.0,0.0,0.0,0.0,0.0,0.0,0.0,0.0,0.0,0.0,0.0,0.0,0.0,0.0,0.0,0.0,0.0,0.0,0.0,0.0,0.0,0.0,0.0,0.0,0.0,0.0,0.0,0.0,0.0,0.0,0.0,0.0,0.0,0.0,0.0,0.0,0.0,0.0,0.0,0.0,0.0,0.0,0.0,0.0,0.0,0.0,0.0,0.0,0.0,4.7237,4.8384,4.9647,5.0309,5.0201,4.8501,4.6959,0.0,0.0,0.0,0.0,0.0,0.0,0.0,0.0,0.0,0.0,0.0,0.0,0.0,0.0,0.0,0.0,0.0,0.0,0.0,0.0,0.0,0.0,0.0,0.0,0.0,0.0,0.0,0.0,0.0,0.0,0.0,0.0,0.0,0.0,0.0,0.0,0.0,0.0,0.0,0.0,0.0,0.0,0.0,0.0,0.0,0.0,0.0,0.0,0.0,0.0,0.0,0.0,0.0,0.0,0.0,0.0,0.0,0.0,0.0,0.0,0.0,0.0,0.0,0.0,0.0,0.0,0.0,0.0,0.0,0.0,0.0,0.0,0.0,0.0,0.0,0.0,0.0,0.0,0.0,0.0,0.0,0.0,0.0,0.0,0.0,0.0,0.0,0.0,0.0,0.0,0.0,0.0,0.0,0.0,0.0,0.0,0.0,0.0,0.0,0.0,0.0,0.0,0.0,0.0,0.0,0.0,0.0,4.6915,4.8544,4.9625,5.0429,5.084,5.0824,4.9872,4.8168,4.5639,0.0,0.0,0.0,0.0,0.0,0.0,0.0,0.0,0.0,0.0,0.0,0.0,0.0,0.0,0.0,0.0,0.0,0.0,0.0,0.0,0.0,0.0,0.0,0.0,0.0,0.0,0.0,0.0,0.0,0.0,0.0,0.0,0.0,0.0,0.0,0.0,0.0,0.0,4.2616,4.3322,0.0,0.0,0.0,0.0,0.0,0.0,0.0,0.0,4.57,0.0,0.0,0.0,0.0,0.0,0.0,0.0,0.0,0.0,0.0,0.0,0.0,0.0,0.0,0.0,0.0,0.0,0.0,0.0,0.0,0.0,0.0,0.0,0.0,0.0,0.0,0.0,0.0,0.0,0.0,0.0,0.0,0.0,0.0,0.0,0.0,0.0,0.0,0.0,0.0,0.0,0.0,0.0,0.0,0.0,0.0,0.0,0.0,0.0,0.0,0.0,0.0,0.0,0.0,0.0,0.0,4.6595,4.7069,4.8717,5.1527,5.178,5.2166,5.2837,5.13,4.9566,4.7724,0.0,0.0,0.0,0.0,0.0,0.0,0.0,0.0,0.0,0.0,0.0,0.0,0.0,0.0,0.0,0.0,0.0,0.0,0.0,0.0,0.0,0.0,0.0,0.0,0.0,0.0,0.0,0.0,0.0,0.0,0.0,0.0,0.0,0.0,0.0,0.0,0.0,0.0,0.0,4.4847,4.503,0.0,0.0,0.0,0.0,0.0,0.0,0.0,0.0,4.6966,0.0,0.0,0.0,0.0,0.0,0.0,0.0,0.0,0.0,0.0,0.0,0.0,0.0,0.0,0.0,0.0,0.0,0.0,0.0,0.0,0.0,0.0,0.0,0.0,0.0,0.0,0.0,0.0,0.0,0.0,0.0,0.0,0.0,0.0,0.0,0.0,0.0,0.0,0.0,0.0,0.0,0.0,0.0,0.0,0.0,0.0,0.0,0.0,0.0,0.0,0.0,0.0,0.0,0.0,0.0,4.7737,4.9171,5.0885,5.2792,5.2971,5.3168,5.3451,5.1807,5.0,0.0,0.0,0.0,0.0,0.0,0.0,0.0,0.0,0.0,0.0,0.0,0.0,0.0,0.0,0.0,0.0,0.0,0.0,0.0,0.0,0.0,0.0,0.0,0.0,0.0,0.0,0.0,0.0,0.0,0.0,0.0,0.0,0.0,0.0,0.0,0.0,0.0,0.0,0.0,0.0,4.5553,4.592,4.7489,0.0,0.0,0.0,0.0,0.0,0.0,4.8223,4.7856,0.0,0.0,0.0,0.0,0.0,0.0,0.0,0.0,0.0,0.0,0.0,0.0,0.0,0.0,0.0,0.0,0.0,0.0,0.0,0.0,0.0,0.0,0.0,0.0,0.0,0.0,0.0,0.0,0.0,0.0,0.0,0.0,0.0,0.0,0.0,0.0,0.0,0.0,0.0,0.0,0.0,0.0,0.0,0.0,0.0,0.0,0.0,0.0,0.0,0.0,0.0,0.0,0.0,0.0,0.0,4.8832,5.1232,5.2959,5.3861,5.4088,5.4168,5.413,5.211,5.0333,0.0,0.0,0.0,0.0,0.0,0.0,0.0,0.0,0.0,0.0,0.0,0.0,0.0,0.0,0.0,0.0,0.0,0.0,0.0,0.0,0.0,0.0,0.0,0.0,0.0,0.0,0.0,0.0,0.0,0.0,0.0,0.0,0.0,0.0,0.0,0.0,0.0,0.0,0.0,0.0,0.0,4.6801,4.8563,4.7966,0.0,0.0,0.0,0.0,4.8773,4.892,0.0,0.0,0.0,0.0,0.0,0.0,0.0,0.0,0.0,0.0,0.0,0.0,0.0,0.0,0.0,0.0,0.0,0.0,0.0,0.0,0.0,0.0,0.0,0.0,0.0,0.0,0.0,0.0,0.0,0.0,0.0,0.0,0.0,0.0,0.0,0.0,0.0,0.0,0.0,0.0,0.0,0.0,0.0,0.0,0.0,0.0,0.0,0.0,0.0,0.0,0.0,0.0,0.0,0.0,0.0,0.0,4.9794,5.163,5.3396,5.4927,5.5013,5.5405,5.6102,5.286,5.0996,0.0,0.0,0.0,0.0,0.0,0.0,0.0,0.0,0.0,0.0,0.0,0.0,0.0,0.0,0.0,0.0,0.0,0.0,0.0,0.0,0.0,0.0,0.0,0.0,0.0,0.0,0.0,0.0,0.0,0.0,0.0,0.0,0.0,0.0,0.0,0.0,0.0,0.0,0.0,0.0,0.0,4.781,5.0178,4.9187,4.8416,0.0,0.0,4.9627,5.0398,5.1096,0.0,0.0,0.0,0.0,0.0,0.0,0.0,0.0,0.0,0.0,0.0,0.0,0.0,0.0,0.0,0.0,0.0,0.0,0.0,0.0,0.0,0.0,0.0,0.0,0.0,0.0,0.0,0.0,0.0,0.0,0.0,0.0,0.0,0.0,0.0,0.0,0.0,0.0,0.0,0.0,0.0,0.0,0.0,0.0,0.0,0.0,0.0,0.0,0.0,0.0,0.0,0.0,0.0,0.0,0.0,4.8698,5.0762,5.3414,5.5169,5.5918,5.5918,5.6115,5.6466,5.3485,5.1641,0.0,0.0,0.0,0.0,0.0,0.0,0.0,0.0,0.0,0.0,0.0,0.0,0.0,0.0,0.0,0.0,0.0,0.0,0.0,0.0,0.0,0.0,0.0,0.0,0.0,0.0,0.0,0.0,0.0,0.0,0.0,0.0,0.0,0.0,0.0,0.0,0.0,0.0,0.0,0.0,0.0,0.0,5.0545,5.0582,0.0,0.0,0.0,5.0886,5.0802,0.0,0.0,0.0,0.0,0.0,0.0,0.0,0.0,0.0,0.0,0.0,0.0,0.0,0.0,0.0,0.0,0.0,0.0,0.0,0.0,0.0,0.0,0.0,0.0,0.0,0.0,0.0,0.0,0.0,0.0,0.0,0.0,0.0,0.0,0.0,0.0,0.0,0.0,0.0,0.0,0.0,0.0,0.0,0.0,0.0,0.0,0.0,0.0,0.0,0.0,0.0,0.0,0.0,0.0,0.0,0.0,0.0,5.1328,5.472,5.6476,5.6482,5.6482,5.6482,5.6441,5.415,0.0,0.0,0.0,0.0,0.0,0.0,0.0,0.0,0.0,0.0,0.0,0.0,0.0,0.0,0.0,0.0,0.0,0.0,0.0,0.0,0.0,0.0,0.0,0.0,0.0,0.0,0.0,4.1851,0.0,0.0,0.0,0.0,0.0,0.0,0.0,0.0,0.0,0.0,0.0,0.0,0.0,0.0,4.915,5.0618,5.1463,5.1987,0.0,0.0,5.1803,5.1206,5.1793,5.1767,0.0,0.0,0.0,0.0,0.0,0.0,0.0,0.0,0.0,0.0,0.0,0.0,0.0,0.0,0.0,0.0,0.0,0.0,0.0,0.0,0.0,0.0,0.0,0.0,0.0,0.0,0.0,0.0,0.0,0.0,0.0,0.0,0.0,0.0,0.0,0.0,0.0,0.0,0.0,0.0,0.0,0.0,0.0,0.0,0.0,0.0,0.0,0.0,0.0,0.0,0.0,0.0,0.0,0.0,5.0396,5.1388,5.4739,5.6501,5.6478,5.648,5.6478,5.6478,5.475,5.3009,0.0,0.0,0.0,0.0,0.0,0.0,0.0,0.0,0.0,0.0,0.0,0.0,0.0,0.0,0.0,0.0,0.0,0.0,0.0,0.0,0.0,0.0,0.0,0.0,0.0,0.0,0.0,0.0,0.0,0.0,0.0,0.0,0.0,0.0,0.0,0.0,0.0,0.0,0.0,0.0,0.0,4.9821,5.0692,5.1499,5.1987,0.0,0.0,5.1987,5.195,5.2601,5.2564,5.0986,0.0,0.0,0.0,0.0,0.0,0.0,0.0,0.0,0.0,0.0,0.0,0.0,0.0,0.0,0.0,0.0,0.0,0.0,0.0,0.0,0.0,0.0,0.0,0.0,0.0,0.0,0.0,0.0,0.0,0.0,0.0,0.0,0.0,0.0,0.0,0.0,0.0,0.0,0.0,0.0,0.0,0.0,0.0,0.0,0.0,0.0,0.0,0.0,0.0,0.0,0.0,0.0,0.0,5.0503,5.1366,5.4757,5.6475,5.6483,5.6483,5.6483,5.6483,5.5347,5.3892,0.0,0.0,0.0,0.0,0.0,0.0,0.0,0.0,0.0,0.0,0.0,0.0,0.0,0.0,0.0,0.0,0.0,0.0,0.0,0.0,0.0,0.0,0.0,0.0,0.0,0.0,0.0,0.0,4.7942,4.8219,4.7329,0.0,0.0,0.0,0.0,0.0,0.0,0.0,0.0,0.0,0.0,5.0078,5.1353,5.2234,0.0,0.0,5.2747,5.2747,5.2737,5.2994,5.2643,5.0967,4.9887,0.0,0.0,0.0,0.0,0.0,0.0,0.0,0.0,0.0,0.0,0.0,0.0,0.0,0.0,0.0,0.0,0.0,0.0,0.0,0.0,0.0,0.0,0.0,0.0,0.0,0.0,0.0,0.0,0.0,0.0,0.0,0.0,0.0,0.0,0.0,0.0,0.0,0.0,0.0,0.0,0.0,0.0,0.0,0.0,0.0,0.0,0.0,0.0,0.0,0.0,0.0,0.0,5.0792,5.1421,5.4775,5.6532,5.6538,5.6538,5.6536,5.6499,5.5952,5.4815,0.0,0.0,0.0,0.0,0.0,0.0,0.0,0.0,0.0,0.0,0.0,0.0,0.0,0.0,0.0,0.0,0.0,0.0,0.0,0.0,0.0,0.0,0.0,0.0,0.0,0.0,0.0,0.0,4.9684,4.9599,4.8301,0.0,0.0,0.0,0.0,0.0,0.0,0.0,0.0,0.0,0.0,5.0702,5.1877,5.2674,5.3214,5.3214,5.3214,5.3214,5.3214,5.3214,5.2779,5.158,0.0,0.0,0.0,0.0,0.0,0.0,0.0,0.0,0.0,0.0,0.0,0.0,0.0,0.0,0.0,0.0,0.0,0.0,0.0,0.0,0.0,0.0,0.0,0.0,0.0,0.0,0.0,4.3787,0.0,0.0,4.3771,0.0,0.0,0.0,0.0,0.0,0.0,0.0,0.0,0.0,0.0,0.0,0.0,0.0,0.0,0.0,0.0,0.0,0.0,0.0,0.0,0.0,0.0,5.1383,5.1436,5.4752,5.6514,5.6603,5.6604,5.6604,5.6604,5.6604,5.574,5.3972,0.0,0.0,0.0,0.0,0.0,0.0,0.0,0.0,0.0,0.0,0.0,0.0,0.0,0.0,0.0,0.0,0.0,0.0,0.0,0.0,0.0,0.0,0.0,0.0,0.0,0.0,4.8928,4.904,4.8741,0.0,0.0,0.0,0.0,0.0,0.0,0.0,0.0,0.0,0.0,5.0959,5.195,5.2024,5.2711,5.3214,5.3214,5.3214,5.3214,5.3214,5.3214,5.3177,0.0,0.0,0.0,0.0,0.0,0.0,0.0,0.0,0.0,0.0,0.0,0.0,0.0,0.0,0.0,0.0,0.0,0.0,0.0,0.0,0.0,0.0,0.0,0.0,0.0,0.0,0.0,4.8789,4.8778,0.0,0.0,0.0,0.0,0.0,0.0,0.0,0.0,0.0,0.0,0.0,5.2273,5.2545,0.0,0.0,0.0,0.0,0.0,0.0,0.0,0.0,0.0,0.0,0.0,0.0,5.1952,5.1604,5.4804,5.6561,5.6605,5.6605,5.6605,5.6605,5.6605,5.5777,5.4002,0.0,0.0,0.0,0.0,0.0,0.0,0.0,0.0,0.0,0.0,0.0,0.0,0.0,0.0,0.0,0.0,0.0,0.0,0.0,0.0,0.0,0.0,0.0,0.0,0.0,5.0912,0.0,0.0,0.0,0.0,0.0,0.0,0.0,0.0,0.0,0.0,0.0,5.0288,5.1106,5.1657,5.2207,5.2711,5.3031,5.3398,0.0,0.0,0.0,0.0,0.0,0.0,0.0,0.0,0.0,0.0,0.0,0.0,0.0,0.0,4.8493,4.7479,4.7927,4.8479,4.8444,0.0,0.0,0.0,0.0,0.0,0.0,0.0,0.0,0.0,0.0,0.0,0.0,0.0,0.0,5.1444,5.1396,5.1118,0.0,0.0,0.0,0.0,0.0,0.0,0.0,0.0,5.2935,5.3638,5.442,5.4459,5.4147,0.0,5.2395,5.0988,0.0,0.0,0.0,0.0,0.0,0.0,0.0,0.0,5.2118,5.2,5.5004,5.6605,5.6605,5.6605,5.6605,5.6605,5.6605,5.6005,5.4755,5.3598,5.2017,0.0,0.0,0.0,0.0,0.0,0.0,0.0,0.0,0.0,0.0,0.0,0.0,0.0,0.0,0.0,0.0,0.0,0.0,0.0,0.0,0.0,0.0,0.0,5.1726,0.0,0.0,0.0,0.0,0.0,0.0,0.0,0.0,0.0,4.9591,5.0545,5.161,5.2674,5.2821,5.3115,5.3922,0.0,0.0,0.0,0.0,0.0,0.0,0.0,5.4088,5.4155,5.4023,5.3568,5.2541,5.1772,5.1184,5.0945,0.0,0.0,4.9893,5.0237,5.0755,5.0755,5.0755,5.0755,5.0755,5.0755,5.0794,0.0,0.0,0.0,0.0,0.0,0.0,0.0,0.0,5.3278,5.3125,0.0,5.245,0.0,0.0,0.0,0.0,5.1467,5.2279,0.0,0.0,5.5669,5.6138,5.5358,5.5358,5.5319,5.5242,5.365,5.283,5.2704,5.114,0.0,0.0,0.0,0.0,0.0,0.0,5.1882,5.2781,5.5279,5.6605,5.6605,5.6605,5.6605,5.6605,5.6605,5.6504,5.6242,5.4672,5.33,5.2267,5.0565,0.0,0.0,0.0,0.0,0.0,0.0,0.0,0.0,0.0,0.0,0.0,0.0,0.0,0.0,0.0,0.0,0.0,0.0,0.0,0.0,5.1216,0.0,0.0,0.0,0.0,0.0,0.0,0.0,0.0,0.0,0.0,5.2097,5.2097,5.2637,5.4216,0.0,0.0,0.0,0.0,5.5585,5.5622,5.5622,5.5585,5.5622,5.5622,5.5831,5.6616,0.0,0.0,5.4522,5.3859,5.3218,5.2492,5.303,5.3046,5.1617,5.1927,5.2341,5.241,5.2444,5.2375,5.2341,5.2513,5.2686,5.3635,0.0,0.0,0.0,0.0,5.3094,5.3581,5.4215,5.4687,5.4998,5.5072,5.4718,0.0,0.0,0.0,0.0,0.0,0.0,5.4076,5.4928,5.5435,5.5864,5.6215,5.6215,5.6216,5.6216,5.5711,5.5477,5.5474,5.5004,5.3365,5.0711,0.0,0.0,0.0,0.0,5.3366,5.3717,5.5591,5.6605,5.6605,5.6605,5.6605,5.6605,5.6605,5.656,5.6506,5.5901,5.485,5.3354,5.2647,0.0,0.0,0.0,0.0,0.0,0.0,0.0,0.0,0.0,0.0,0.0,0.0,0.0,0.0,0.0,0.0,0.0,0.0,0.0,5.2886,5.2996,5.2958,0.0,0.0,0.0,0.0,0.0,0.0,0.0,0.0,0.0,5.4483,5.4069,5.4116,0.0,0.0,5.5328,5.5585,5.5622,5.5794,5.6381,5.5978,0.0,5.6381,5.5989,5.5845,5.655,5.7109,5.7391,5.7206,5.6773,5.6234,5.5588,5.5667,5.5667,5.5288,5.4823,5.4823,5.5322,5.5495,5.5495,5.5478,5.5495,5.5481,5.5462,5.4904,5.4227,5.4146,5.4468,5.4519,5.4996,5.582,5.582,5.6092,5.6598,5.605,5.5347,5.4489,5.4176,0.0,0.0,0.0,5.4984,5.5799,5.5799,5.6111,5.6579,5.6618,5.6774,5.7126,5.713,5.7284,5.7589,5.7593,5.638,5.3991,0.0,0.0,5.2507,5.4146,5.5201,5.5552,5.6878,5.7581,5.7581,5.7581,5.7581,5.7581,5.7581,5.7571,5.7507,5.7351,5.6592,5.5154,5.4593,5.3276,0.0,0.0,0.0,0.0,0.0,0.0,0.0,0.0,0.0,0.0,0.0,4.8889,4.9543,0.0,0.0,0.0,5.1995,5.2773,5.4197,5.415,0.0,0.0,0.0,0.0,0.0,0.0,0.0,5.408,5.4583,5.517,5.5941,5.5647,5.5537,5.6014,5.6051,5.6198,5.6503,0.0,5.6712,5.7226,5.7152,5.7189,5.7691,5.7629,5.7643,5.8039,5.8592,5.8812,5.8488,5.8219,5.7761,5.7048,5.6805,5.6874,5.7185,5.684,5.6529,5.6736,5.6805,5.6805,5.6805,5.6805,5.6841,5.6601,5.6445,5.487,5.4671,5.5384,5.5384,5.5857,5.6601,5.6601,5.6601,5.6601,5.6601,5.6171,5.5351,5.457,0.0,5.5505,5.5503,5.6008,5.6788,5.6788,5.6788,5.6788,5.6788,5.7218,5.7999,5.8004,5.8392,5.9045,5.909,5.8695,5.7897,5.6452,5.5241,5.4419,5.5903,5.7073,5.7894,5.8674,5.9103,5.9103,5.9103,5.9103,5.9103,5.9099,5.903,5.8875,5.8758,5.8265,5.7323,5.64,5.5164,5.3587,0.0,0.0,0.0,0.0,0.0,0.0,0.0,0.0,0.0,0.0,0.0,0.0,0.0,0.0,5.339,5.4183,0.0,5.4965,5.4973,0.0,0.0,0.0,5.4128,5.4533,5.4649,5.4937,5.5633,0.0,0.0,5.6822,5.6957,5.6994,5.6994,5.6994,5.7262,5.7997,5.8143,5.818,5.8217,5.8792,5.9269,5.9233,5.971,6.015,6.0297,6.0456,5.9961,5.9071,5.8766,5.8259,5.7277,5.7012,5.7185,5.7858,5.7926,5.7805,5.715,5.7047,5.7012,5.7081,5.7081,5.7271,5.6601,5.6562,5.6132,5.6132,5.6289,5.6289,5.6406,5.6601,5.6601,5.6601,5.6601,5.6601,5.6484,5.6289,5.6094,5.6445,5.7263,5.7302,5.7729,5.8468,5.8507,5.8507,5.8507,5.8507,5.8585,5.882,5.8821,5.8898,5.9091,5.9131,5.9011,5.8806,5.904,5.8411,5.6957,5.731,5.7933,5.8791,5.8986,5.9103,5.9103,5.9103,5.9103,5.9103,5.9017,5.8936,5.8912,5.8662,5.8445,5.8203,5.786,5.7203,5.6132,5.3895,0.0,0.0,0.0,0.0,0.0,0.0,0.0,0.0,0.0,5.1774,5.2813,0.0,5.4434,0.0,5.6417,5.7117,5.6672,5.6538,0.0,0.0,5.5385,5.537,5.548,5.5945,5.633,5.6492,5.7042,5.7483,5.7703,5.8242,5.8646,5.8646,5.8634,5.8707,5.8902,5.9453,5.982,5.9795,5.9979,6.0114,6.015,6.026,6.0639,6.1227,6.0928,6.0575,6.0403,5.9962,5.9427,5.8646,5.8495,5.8564,5.8685,5.872,5.8685,5.8513,5.8478,5.8478,5.8478,5.8444,5.8513,5.7773,5.7773,5.7773,5.7773,5.7695,5.6914,5.6601,5.664,5.6992,5.7187,5.7187,5.7578,5.7773,5.7773,5.7734,5.8008,5.8437,5.8476,5.871,5.9138,5.9138,5.9138,5.9138,5.9138,5.9333,5.9685,5.9685,5.9879,6.0229,6.0268,6.0264,6.0254,6.0725,6.0489,5.9581,5.9537,5.977,6.0244,6.0238,6.0278,6.0243,6.0278,6.0077,5.968,5.9552,5.9287,5.8806,5.863,5.8315,5.7853,5.7774,5.7324,5.6439,5.4741,5.3395,0.0,0.0,0.0,0.0,0.0,0.0,0.0,0.0,0.0,0.0,0.0,5.5939,5.678,5.7686,5.7921,5.7279,5.7405,5.7282,5.6603,5.673,5.6868,5.6776,5.7113,5.7483,5.7838,5.8242,5.8657,5.9024,5.9465,5.9747,5.9747,6.0052,6.0114,5.982,6.015,6.0407,6.0407,6.0713,6.108,6.1398,6.1471,6.1618,6.1985,6.1652,6.1185,6.0911,6.0406,5.9795,5.9166,5.8995,5.9099,5.9444,5.953,5.9599,5.9926,6.0013,5.9771,5.9082,5.8892,5.8909,5.9219,5.9219,5.9219,5.9219,5.9101,5.7578,5.6914,5.6992,5.7734,5.8086,5.8125,5.8867,5.9219,5.9219,5.9219,5.9258,5.9336,5.9336,5.9414,5.9531,5.9531,5.9492,5.9531,5.9531,5.9883,6.0547,6.0586,6.0976,6.1678,6.1717,6.1714,6.1702,6.1707,6.1707,6.1701,6.169,6.1727,6.1697,6.1726,6.1723,6.1694,6.1722,6.132,6.06,6.0366,5.9794,5.8832,5.8643,5.8123,5.7231,5.717,5.6863,5.6209,5.5318,5.4511,0.0,5.2928,0.0,0.0,0.0,0.0,0.0,0.0,0.0,0.0,5.6824,5.7632,5.839,5.8498,5.8247,5.7613,5.8018,5.8061,5.7386,5.7914,5.8295,5.8155,5.8253,5.8584,5.9269,5.9343,5.9636,6.0224,6.0493,6.0566,6.0603,6.1227,6.1447,6.0896,6.0774,6.0811,6.0713,6.13,6.1961,6.2499,6.2719,6.2793,6.2853,6.2453,6.1884,6.139,6.0775,6.0126,5.9511,5.9409,5.9582,6.022,6.0323,6.0512,6.1029,6.115,6.0753,5.9631,5.9218,5.9027,5.9219,5.9219,5.9219,5.9219,5.918,5.8828,5.8711,5.8711,5.8867,5.8945,5.8945,5.914,5.9219,5.9219,5.9219,5.957,6.0156,6.0156,6.0547,6.1211,6.1211,6.125,6.1211,6.125,6.1289,6.1445,6.1445,6.1562,6.1719,6.1719,6.1718,6.1715,6.1715,6.1715,6.1714,0.0,0.0,0.0,6.1726,6.1715,6.1707,6.1705,6.1573,6.1341,6.0495,0.0,5.9638,5.8824,5.8268,5.8055,5.805,0.0,0.0,0.0,0.0,0.0,0.0,0.0,0.0,0.0,0.0,0.0,5.7588,5.7467,5.7775,5.855,5.9088,5.9281,5.9885,6.0067,5.9505,5.9281,5.8961,5.8432,5.8747,5.8999,5.9013,5.9526,6.0003,6.015,6.0187,6.0236,6.0444,6.097,6.1374,6.141,6.2071,6.2462,6.2352,6.2279,6.2316,6.2389,6.2499,6.2609,6.2793,6.2866,6.3196,6.3549,6.3318,6.2859,6.2734,6.221,6.1595,6.0912,6.0857,6.0875,6.1082,6.1082,6.1098,6.1074,6.1216,6.1202,6.0891,6.068,6.0554,6.1719,6.1719,6.1719,6.1484,0.0,6.1094,6.082,6.039,5.9961,6.0039,6.043,6.043,6.043,6.043,6.043,6.0664,6.1055,6.1015,6.1289,6.168,6.1719,6.1719,6.1719,6.1719,6.1914,6.2344,6.2344,6.2578,6.2969,6.2969,6.3007,6.3006,6.3007,6.2967,6.3002,6.2993,6.2749,6.2354,6.2778,6.2969,6.2968,6.2891,6.2615,6.2148,6.1518,0.0,0.0,0.0,0.0,0.0,0.0,0.0,0.0,5.8088,0.0,5.8242,5.7473,5.7357,5.8165,5.8242,5.8583,5.9473,5.9935,5.9819,5.8973,5.9665,6.0127,6.0165,6.0527,6.0603,6.0329,6.0083,5.9796,5.9549,5.9679,5.9783,5.982,6.015,6.0566,6.0933,6.1006,6.1117,6.1557,6.1912,6.2181,6.2218,6.2536,6.2976,6.3319,6.305,6.2903,6.3356,6.3429,6.36,6.3967,6.404,6.4114,6.4477,6.3861,6.3276,6.3296,6.2465,6.1658,6.136,6.1323,6.1392,6.1806,6.191,6.1943,6.2215,6.2354,6.2427,6.2374,6.1606,6.08,6.4297,6.4297,6.4297,6.3906,6.3242,6.3242,6.2812,6.207,6.1055,0.0,0.0,6.1719,6.1719,6.1719,6.1719,6.1797,6.1914,6.1914,6.2031,6.2148,6.2148,6.2148,6.2148,6.2148,6.2539,6.3203,6.3242,6.3593,6.4296,6.4296,6.4296,6.4294,6.4296,6.4295,6.4286,6.4434,6.4191,6.3516,6.3985,6.4297,6.4254,6.4101,6.3634,6.2914,6.2567,6.1684,6.0226,5.9936,5.9496,5.8786,5.8736,5.8819,5.8973,5.8973,5.905,5.916,5.916,5.9473,6.0121,6.0165,6.0473,6.1204,6.1903,6.1633,6.005,6.0737,6.1231,6.1225,6.1171,6.1075,6.0937,6.0809,6.0691,6.0545,6.0577,6.0603,6.0639,6.0786,6.1153,6.1667,6.1814,6.2034,6.2646,6.2915,6.305,6.305,6.3233,6.3453,6.4053,6.3796,6.3613,6.4163,6.431,6.453,6.5068,6.5215,6.5362,6.5409,6.464,6.3905,6.3729,6.2887,6.2092,6.2108,6.1828,6.2031,6.2549,6.2687,6.291,6.3425,6.3544,6.3526,6.333,6.2177,6.1093,6.4297,6.4297,6.4297,6.4219,6.414,6.414,6.4062,6.3789,6.2226,6.1601,6.1719,6.1719,6.1719,6.1719,6.1719,6.2109,6.281,6.281,6.3199,6.3937,6.3937,6.3937,6.3937,6.3937,6.4015,6.4093,6.4132,6.4172,6.4289,6.4328,6.4288,6.4327,6.4288,6.4324,6.4355,6.5055,6.5361,6.5234,6.461,6.4228,6.4055,6.4031,6.3858,6.3533,6.278,6.2186,6.1841,6.1131,6.0613,6.0441,6.0435,6.0787,6.1518,6.1518,6.1858,6.2545,6.2583,6.266,6.2737,6.2775,6.2814,6.2929,6.3045,6.2743,6.1864,6.2425,6.2855,6.2849,6.2714,6.2574,6.2184,6.1793,6.1426,6.1047,6.1257,6.1422,6.1447,6.2022,6.2462,6.2609,6.2609,6.2683,6.2939,6.3503,6.3906,6.4016,6.442,6.4958,6.5044,6.5031,6.4995,6.5105,6.5141,6.5178,6.5435,6.5325,6.5668,6.6256,6.6119,6.5826,6.5805,6.5122,6.4392,6.4112,6.3446,6.3275,6.3393,6.3427,6.3406,6.3433,6.3396,6.3283,6.3019,6.2574,6.2361,6.5703,6.5703,6.5703,6.543,6.4961,6.4492,6.4297,6.4218,6.3476,6.3125,6.3086,6.3124,6.3124,6.3124,6.3122,6.3316,6.3704,6.3704,6.3898,6.4286,6.4286,6.4286,6.4286,6.4286,6.4559,6.4989,6.4989,6.5263,6.5653,6.5731,6.5692,6.5731,6.5648,6.5644,6.568,6.6064,6.62,6.6114,6.5763,6.5505,6.5405,6.522,6.5071,6.5016,6.4491,6.3995,6.3519,6.3104,6.2651,6.2166,6.2166,6.2358,6.2704,6.2743,6.2897,6.3275,6.3314,6.3314,6.3314,6.3314,6.3314,6.3314,6.37,6.3796,6.3418,6.3278,6.3188,6.3182,6.3084,6.2947,6.2758,6.2523,6.229,6.1999,6.2156,6.2254,6.2328,6.2989,6.3503,6.3539,6.3906,6.415,6.415,6.453,6.4751,6.4824,6.5435,6.5962,6.5962,6.6329,6.6439,6.6072,6.5962,6.6182,6.6476,6.6586,6.6769,6.7113,6.6843,6.6482,6.6201,6.5545,6.489,6.4218,6.3785,6.3637,6.36,6.36,6.3544,6.3507,6.347,6.3358,6.3208,6.3038,6.2828,6.6914,6.6914,6.6914,6.6523,6.5859,6.5156,6.4881,6.4878,6.4918,6.488,6.4843,6.4489,6.4293,6.4292,6.4288,6.4401,6.4556,6.4595,6.4712,6.4866,6.4866,6.4866,6.4866,6.4866,6.5218,6.5804,6.5883,6.6234,6.682,6.686,6.6898,6.6858,6.6852,6.6809,6.6808,6.6748,6.6707,6.6595,6.6501,6.6471,6.6465,6.6226,6.6088,6.6058,6.5931,6.5551,6.4936,6.4897,6.4589,6.3968,6.3891,6.3897,6.3891,6.3891,6.3891,6.3891,6.3891,6.3891,6.3891,6.3878,6.3872,6.3866,6.4571,6.5031,6.4992,6.4595,6.4096,6.3776,6.3667,6.3627,6.3707,6.3547,6.3467,6.348,6.3406,6.3417,6.3453,6.398,6.436,6.4457,6.4934,6.5251,6.5325,6.5435,6.5655,6.5925,6.6402,6.6733,6.6843,6.7333,6.737,6.7003,6.6769,6.6966,6.759,6.7627,6.7627,6.7687,6.73,6.6743,6.6079,6.5335,6.4635,6.4111,6.373,6.3637,6.36,6.36,6.3563,6.3526,6.3452,6.3396,6.3193,6.3224,6.2906,6.6914,6.6914,6.6953,6.6874,6.6794,6.6712,6.6671,6.667,6.667,6.667,6.6514,6.5029,6.4403,6.4286,6.4364,6.4789,6.5445,6.5484,6.5832,6.645,6.6566,6.6566,6.6488,6.6527,6.6605,6.6683,6.6722,6.684,6.6959,6.6918,6.6839,6.6799,6.6799,6.6874,6.683,6.673,6.6639,6.6587,6.6302,6.6163,6.6124,6.6128,6.6047,6.5941,6.5916,6.5865,6.5743,6.5782,6.5743,6.5667,6.5634,6.5673,6.5628,6.5634,6.5667,6.5673,6.5667,6.5667,6.5667,6.5609,6.5576,6.5608,6.6232,6.6612,6.6689,6.7161,6.6849,6.5647,6.5198,6.5342,6.5655,6.5292,6.5144,6.528,6.5114,6.5068,6.4958,6.5141,6.5178,6.5178,6.5362,6.5325,6.5545,6.5999,6.6659,6.715,6.7297,6.7517,6.759,6.77,6.7884,6.77,6.7627,6.7627,6.7737,6.77,6.77,6.7687,6.766,6.7216,6.6604,6.5893,6.5251,6.4445,6.4036,6.374,6.3669,6.36,6.3648,6.3777,6.3539,6.3068,6.2756,6.3114,6.3238,6.8394,6.8394,6.8394,6.8393,6.8351,6.8388,6.8384,6.838,6.838,6.8378,6.8294,6.7629,6.6773,6.5801,6.5797,6.5987,6.6295,6.6334,6.6488,6.6796,6.6796,6.6796,6.6835,6.7342,6.7576,6.7615,6.8083,6.8319,6.8358,6.8358,6.8319,6.8314,6.824,6.8173,6.8126,6.8023,6.791,6.7773,6.7658,6.7548,6.734,6.648,6.597,6.5916,6.5904,6.5904,6.5904,6.5904,6.5904,6.5942,6.6359,6.6635,6.6635,6.709,6.7359,6.7391,6.7398,6.7359,6.7391,6.7325,6.7285,6.7285,6.7441,6.756,6.756,6.7799,6.753,6.6733,6.6725,6.6771,6.6418,6.6179,6.595,6.5656,6.543,6.5325,6.5325,6.5742,6.5999,6.6035,6.6439,6.6733,6.6733,6.699,6.7333,6.7664,6.77,6.7921,6.8311,6.8421,6.8641,6.9022,6.9119,6.8641,6.8031,6.77,6.7737,6.77,6.77,6.746,6.6867,6.6079,6.5365,6.4773,6.444,6.4276,6.4289,6.4703,6.4907,6.4687,6.4607,6.4376,6.4103,6.4217,6.4097,6.9401,6.9401,6.94,6.9399,6.9399,6.9397,6.9392,6.9387,6.9386,6.9382,6.9412,6.9411,6.8713,6.7626,6.7503,6.7498,6.7499,6.7499,6.7499,6.7499,6.7538,6.7499,6.7577,6.8122,6.8433,6.8552,6.9059,6.9372,6.9411,6.9411,6.9411,6.9365,6.9241,6.9153,6.9114,6.895,6.8782,6.8594,6.8558,6.8509,6.8225,6.7205,6.659,6.659,6.659,6.659,6.659,6.659,6.659,6.659,6.7128,6.7436,6.7475,6.8052,6.8391,6.8391,6.8371,6.8365,6.8396,6.8276,6.822,6.8251,6.8242,6.8327,6.8357,6.8502,6.8433,6.8201,6.8591,6.8493,6.7105,6.6834,6.6548,6.6172,6.6042,6.5962,6.6035,6.6659,6.7173,6.721,6.7871,6.8361,6.8361,6.8398,6.8471,6.8471,6.8435,6.8508,6.9045,6.9229,6.9449,7.0,7.0073,6.9633,6.8582,6.8508,6.8361,6.8361,6.8458,6.8266,6.7447,6.6777,6.6076,6.5899,6.5378,6.5036,6.5014,6.5531,6.5723,6.5626,6.5436,6.5221,6.4758,6.4984,6.5033,6.9401,6.944,6.9433,6.9508,6.9429,6.9458,6.9452,6.9571,6.9491,6.9451,6.9529,6.9489,6.9412,6.9296,6.9295,6.9255,6.9256,6.9139,6.91,6.9137,6.9176,6.9255,6.9294,6.9333,6.9333,6.9372,6.9567,6.9606,6.9528,6.9489,6.9411,6.9447,6.9512,6.9364,6.9223,6.9119,6.8821,6.8789,6.8665,6.8488,6.8468,6.8353,6.8276,6.8276,6.8237,6.816,6.8199,6.8276,6.8237,6.8237,6.8314,6.8353,6.8353,6.843,6.8507,6.85,6.8401,6.836,6.8384,6.8308,6.8189,6.825,6.8915,6.9204,6.9441,6.9968,7.0225,7.0255,7.0769,7.0267,6.8263,6.7737,6.766,6.8074,6.783,6.7617,6.7577,6.8201,6.8752,6.8862,6.9302,6.9669,6.9853,7.0,6.9816,6.9816,6.9889,6.9926,7.0,7.0036,7.0146,7.022,7.0257,7.011,7.0013,6.9646,6.9706,6.9669,6.9408,6.964,6.9059,6.8395,6.7672,6.6989,6.6432,6.6038,6.5864,6.5738,6.5622,6.5494,6.5377,6.5142,6.544,6.5494,6.5581,7.1064,7.1064,7.1059,7.1058,7.1058,7.1053,7.105,7.105,7.1089,7.1052,7.105,7.105,7.105,7.105,7.1052,7.0465,6.945,6.9411,6.9411,6.9411,6.9411,6.9411,6.945,6.9957,7.023,7.0309,7.0816,7.105,7.105,7.1052,7.099,7.0892,7.079,7.064,7.0429,7.0263,7.0133,7.008,7.0015,7.0014,6.9937,7.0014,7.0007,6.993,6.893,6.8391,6.8391,6.8391,6.8391,6.8391,6.893,6.9244,6.9276,6.9658,6.9945,6.9931,6.9875,6.9831,6.9817,6.9728,6.9888,7.0386,7.062,7.1038,7.1535,7.1862,7.193,7.1709,7.1482,7.0911,7.0192,6.9818,6.9764,6.951,6.9328,6.9155,6.9265,6.9486,6.9669,6.9706,6.9963,7.0073,7.022,7.011,7.011,7.011,7.011,7.0367,7.077,7.0866,7.0991,7.1505,7.1651,7.1615,7.1651,7.0624,7.0073,7.0073,7.0008,7.0031,6.9668,6.9249,6.8546,6.7949,6.7409,6.6932,6.672,6.6538,6.6314,6.6295,6.612,6.584,6.6296,6.6185,6.6237,7.1987,7.1987,7.1987,7.1987,7.1987,7.1987,7.1987,7.1987,7.1987,7.1987,7.1987,7.1987,7.1987,7.1987,7.1987,7.1442,7.031,7.027,7.023,7.023,7.0232,7.0232,7.031,7.0855,7.1128,7.1201,7.1613,7.1876,7.1911,7.185,7.176,7.1595,7.1533,7.139,7.1225,7.1085,7.096,7.0925,7.0898,7.0898,7.0937,7.1206,7.1321,7.1206,7.0468,6.9738,6.9276,6.9206,6.9206,6.9276,6.9783,7.0192,7.0473,7.0958,7.1339,7.1557,7.1551,7.1505,7.1475,7.1435,7.1609,7.2114,7.2142,7.2406,7.2941,7.2979,7.2758,7.2338,7.2264,7.1907,7.1478,7.1688,7.1529,7.0427,7.011,7.011,7.011,7.033,7.0587,7.0844,7.0954,7.0917,7.0881,7.0917,7.0917,7.0881,7.0881,7.1138,7.1564,7.1711,7.1821,7.2371,7.2386,7.2349,7.2275,7.1541,7.1138,7.1138,7.0991,7.0807,7.0562,7.0112,6.9534,6.8934,6.8364,6.7864,6.7541,6.7364,6.7291,6.7312,6.6935,6.6511,6.6714,6.6795,6.6698,7.1987,7.1987,7.1987,7.1987,7.1987,7.1987,7.1987,7.1987,7.1987,7.1987,7.1987,7.1987,7.1987,7.1987,7.1987,7.1948,7.1909,7.187,7.1792,7.1753,7.1792,7.1789,7.1746,7.1789,7.1825,7.1818,7.1748,7.1739,7.1811,7.1754,7.1673,7.1602,7.1741,7.1693,7.1275,7.1418,7.1252,7.1183,7.1168,7.1091,7.1014,7.1822,7.2206,7.2283,7.2783,7.2392,7.1014,7.0937,7.0937,7.0937,7.0975,7.1325,7.1891,7.2112,7.2474,7.2909,7.3077,7.3076,7.2997,7.2846,7.2766,7.2996,7.2987,7.3055,7.3293,7.3212,7.2969,7.2727,7.2913,7.302,7.2323,7.2616,7.2347,7.0565,7.0403,7.0403,7.044,7.0881,7.16,7.2129,7.2239,7.2459,7.2459,7.2239,7.2165,7.2165,7.2202,7.2202,7.2275,7.2312,7.2459,7.2496,7.2532,7.2532,7.2532,7.2496,7.2459,7.2386,7.2202,7.2004,7.1786,7.1339,7.0536,6.9862,6.8496,6.7996,6.7442,6.7243,6.7058,6.7001,6.693,6.6888,6.6854,6.6833,6.6812,7.1987,7.1987,7.1987,7.1987,7.1987,7.1987,7.1987,7.1987,7.1987,7.1987,7.1987,7.1987,7.1987,7.1987,7.1987,7.2339,7.2885,7.2885,7.2571,7.2102,7.2025,7.1961,7.1887,7.1966,7.1925,7.1785,7.1631,7.187,7.2283,7.2352,7.2504,7.2923,7.2969,7.2927,7.2746,7.279,7.2737,7.272,7.2699,7.2699,7.2699,7.2937,7.3091,7.3129,7.3392,7.3199,7.2745,7.2699,7.2699,7.2622,7.2699,7.2786,7.2868,7.2908,7.2955,7.3083,7.3095,7.3062,7.3029,7.3081,7.3284,7.3667,7.3819,7.4163,7.4596,7.436,7.4077,7.379,7.3631,7.3181,7.2952,7.2741,7.2429,7.1827,7.1762,7.1651,7.1651,7.1908,7.2188,7.2422,7.2532,7.2532,7.2532,7.2532,7.2532,7.2532,7.2532,7.2532,7.2532,7.2532,7.2496,7.2496,7.2532,7.2532,7.2532,7.2532,7.2532,7.2532,7.2532,7.2532,7.2409,7.2182,7.1438,7.0249,6.894,6.799,6.7475,6.7139,6.6938,6.6854,6.6833,6.6812,6.6791,6.6791,6.6791,7.1987,7.1987,7.1987,7.2221,7.2456,7.2456,7.2651,7.2885,7.2924,7.2924,7.2924,7.2924,7.2924,7.2924,7.2924,7.3221,7.3665,7.37,7.333,7.2842,7.2834,7.2752,7.2578,7.2674,7.2679,7.2546,7.2392,7.2574,7.303,7.3029,7.3226,7.3554,7.3613,7.3575,7.3483,7.3507,7.3507,7.3507,7.3469,7.3507,7.3546,7.3815,7.393,7.4007,7.4284,7.443,7.443,7.4409,7.4094,7.3608,7.3486,7.3497,7.3622,7.366,7.3766,7.3967,7.4002,7.3977,7.3943,7.4057,7.4125,7.4584,7.466,7.4889,7.5313,7.5132,7.4912,7.4374,7.3925,7.3402,7.302,7.2714,7.251,7.2496,7.2459,7.2532,7.2532,7.2532,7.2496,7.2532,7.2532,7.2532,7.2532,7.2532,7.2532,7.2532,7.2532,7.2532,7.2532,7.2532,7.2532,7.2532,7.2532,7.2532,7.2532,7.2532,7.2532,7.2532,7.2532,7.2532,7.2452,7.2321,7.1799,7.0128,6.8657,6.7805,6.7222,6.7014,6.6812,6.6791,6.6791,6.6791,6.6791,6.6791,6.6791,7.2143,7.2143,7.2143,7.269,7.3313,7.3352,7.3705,7.433,7.4369,7.433,7.4369,7.4251,7.4324,7.44,7.4196,7.4234,7.435,7.4371,7.4336,7.4227,7.4276,7.4201,7.3802,7.3674,7.3648,7.3712,7.3568,7.3623,7.376,7.3665,7.3591,7.3857,7.3903,7.3714,7.3892,7.3699,7.3815,7.3892,7.3776,7.3815,7.3853,7.4399,7.4776,7.4815,7.5423,7.5762,7.5716,7.5618,7.5072,7.3856,7.3689,7.3937,7.4309,7.4486,7.4799,7.5268,7.551,7.5379,7.545,7.5204,7.528,7.5318,7.5356,7.5509,7.5454,7.5245,7.4824,7.4181,7.3857,7.3429,7.2728,7.251,7.2532,7.2532,7.2532,7.2532,7.2532,7.2532,7.2532,7.2532,7.2532,7.2532,7.2532,7.2532,7.2532,7.2532,7.2532,7.2532,7.2532,7.2532,7.2532,7.2532,7.2532,7.2532,7.2532,7.2532,7.2532,7.2532,7.2481,7.2481,7.2241,7.2048,7.1661,6.9989,6.8501,6.7624,6.7097,6.6896,6.6791,6.6791,6.6791,6.6791,6.6791,6.6791,6.6791,7.3861,7.3822,7.3861,7.3978,7.4173,7.4173,7.429,7.4486,7.4525,7.4598,7.4523,7.4486,7.4527,7.4395,7.4429,7.4596,7.4954,7.5039,7.5326,7.5668,7.5723,7.5052,7.4131,7.3744,7.3757,7.3823,7.3812,7.3849,7.4381,7.4396,7.47,7.5322,7.5207,7.5284,7.5361,7.5245,7.5322,7.5361,7.5322,7.5284,7.5284,7.5476,7.5668,7.57,7.584,7.5925,7.5918,7.581,7.5617,7.5219,7.5088,7.5101,7.5187,7.5233,7.5315,7.5429,7.5489,7.5544,7.5518,7.5509,7.5509,7.5509,7.5509,7.5509,7.5492,7.4804,7.4347,7.3881,7.3378,7.283,7.2567,7.2532,7.2532,7.2532,7.2532,7.2532,7.2532,7.2532,7.2532,7.2532,7.2532,7.2532,7.2532,7.2532,7.2532,7.2532,7.2532,7.2532,7.2532,7.2532,7.2532,7.2532,7.2532,7.2532,7.2532,7.2532,7.2532,7.2532,7.2481,7.2452,7.1966,7.1354,7.0737,6.9637,6.823,6.7222,6.6993,6.6812,6.6791,6.6791,6.6791,6.6791,6.6791,6.6791,6.6791,7.4486,7.4486,7.4486,7.472,7.5034,7.5034,7.5268,7.5534,7.5506,7.5454,7.5445,7.5406,7.5351,7.5238,7.527,7.5416,7.5683,7.574,7.5885,7.607,7.6122,7.565,7.494,7.4626,7.4599,7.4636,7.4553,7.4836,7.5176,7.5245,7.5553,7.5822,7.5976,7.5976,7.5899,7.5976,7.5976,7.5976,7.5976,7.5976,7.5976,7.5978,7.5963,7.5948,7.5841,7.5786,7.5747,7.5699,7.5674,7.5636,7.5636,7.5641,7.5557,7.5549,7.5561,7.5509,7.5509,7.5509,7.5509,7.5509,7.5509,7.5509,7.5509,7.5374,7.5171,7.4571,7.4221,7.3665,7.3154,7.2784,7.2539,7.2532,7.2532,7.2532,7.2532,7.2532,7.2532,7.2532,7.2532,7.2532,7.2532,7.2532,7.2532,7.2532,7.2532,7.2532,7.2532,7.2532,7.2532,7.2532,7.2532,7.2532,7.2532,7.2532,7.2532,7.2532,7.2438,7.2438,7.238,7.2365,7.1707,7.0868,7.0058,6.9185,6.7896,6.7014,6.6875,6.6791,6.6791,6.6791,6.6791,6.6791,6.6791,6.6791,6.6791,7.4759,7.4759,7.4798,7.5185,7.5841,7.5921,7.6216,7.6866,7.6671,7.6628,7.6609,7.6607,7.6363,7.6543,7.6228,7.6395,7.6207,7.6124,7.6115,7.6076,7.602,7.5856,7.5786,7.568,7.5721,7.5743,7.5945,7.5899,7.5861,7.5899,7.5938,7.5976,7.5976,7.5976,7.5976,7.5976,7.5969,7.5954,7.5985,7.5939,7.5917,7.591,7.5841,7.5826,7.5763,7.5682,7.5625,7.5591,7.5583,7.5583,7.5583,7.5549,7.5527,7.5509,7.5509,7.5509,7.5509,7.5509,7.5509,7.5509,7.5509,7.5509,7.5427,7.5245,7.4796,7.447,7.4029,7.3428,7.3272,7.2908,7.261,7.2532,7.2532,7.2532,7.2532,7.2532,7.2532,7.2532,7.2532,7.2532,7.2532,7.2532,7.2532,7.2532,7.2532,7.2532,7.2532,7.2532,7.2532,7.2532,7.2532,7.2532,7.2532,7.2532,7.2532,7.2532,7.2409,7.2351,7.2263,7.2078,7.1406,7.057,6.9672,6.8717,6.8073,6.74,6.6833,6.6791,6.6791,6.6791,6.6791,6.6791,6.6791,6.6791,6.6791,7.6555,7.6555,7.6555,7.656,7.6575,7.6607,7.6634,7.6692,7.6653,7.6629,7.6621,7.6583,7.6512,7.6361,7.6356,7.6267,7.6086,7.6059,7.6027,7.5998,7.5976,7.5976,7.5976,7.6007,7.5976,7.5976,7.5976,7.5976,7.5976,7.5976,7.5976,7.5976,7.5969,7.5976,7.6007,7.5954,7.5978,7.5933,7.5918,7.5849,7.5772,7.574,7.5755,7.5747,7.5674,7.5591,7.5523,7.5497,7.5535,7.5544,7.5544,7.5535,7.5518,7.5509,7.5509,7.5509,7.5509,7.5509,7.5509,7.5509,7.5501,7.5418,7.5123,7.4815,7.4695,7.4021,7.3628,7.322,7.2949,7.2644,7.2539,7.2532,7.2532,7.2532,7.2532,7.2532,7.2532,7.2532,7.2532,7.2532,7.2532,7.2532,7.2532,7.2532,7.2532,7.2532,7.2532,7.2532,7.2532,7.2532,7.2532,7.2532,7.2532,7.2496,7.2481,7.2467,7.238,7.2263,7.2159,7.2024,7.1332,7.0825,7.0112,6.933,6.86,6.7916,6.7154,6.6791,6.6791,6.6791,6.6791,6.6791,6.6791,6.6791,6.6791,7.6969,7.6962,7.688,7.6816,7.6713,7.6706,7.6661,7.6605,7.6507,7.6472,7.6447,7.6372,7.6267,7.6179,7.6173,7.6118,7.6012,7.5976,7.5976,7.5976,7.5976,7.5954,7.5955,7.5963,7.597,7.5969,7.5976,7.5976,7.5976,7.5969,7.5976,7.6007,7.5939,7.5948,7.5948,7.5887,7.5841,7.581,7.5794,7.5771,7.57,7.5652,7.5641,7.5616,7.5566,7.5553,7.5518,7.5509,7.5509,7.5509,7.5509,7.5509,7.5509,7.5509,7.5509,7.5509,7.5509,7.5509,7.5509,7.5501,7.5392,7.5142,7.4863,7.4487,7.4169,7.3541,7.3207,7.2963,7.2709,7.2496,7.2532,7.2532,7.2532,7.2532,7.2532,7.2532,7.2532,7.2532,7.2532,7.2532,7.2532,7.2532,7.2532,7.2532,7.2532,7.2532,7.2532,7.2532,7.2532,7.2532,7.2532,7.2532,7.2532,7.2496,7.2481,7.2438,7.2351,7.2218,7.2069,7.1933,7.1557,7.1155,7.0759,6.9867,6.8903,6.8196,6.7549,6.7216,6.6812,6.6791,6.6791,6.6791,6.6791,6.6791,6.6791,7.6774,7.6764,7.6629,7.6552,7.6569,7.6521,7.6492,7.6482,7.6322,7.6267,7.623,7.6069,7.602,7.6007,7.5962,7.5947,7.5939,7.5932,7.591,7.5917,7.591,7.5887,7.5887,7.5841,7.5864,7.5939,7.5924,7.5924,7.5924,7.5939,7.591,7.5917,7.5872,7.5833,7.5818,7.5779,7.57,7.5676,7.5715,7.5699,7.5674,7.5608,7.5549,7.5514,7.5535,7.5518,7.5509,7.5509,7.5509,7.5509,7.5509,7.5509,7.5509,7.5509,7.5509,7.5509,7.5509,7.5509,7.5445,7.5392,7.5132,7.4725,7.4508,7.4109,7.3529,7.3233,7.2949,7.2737,7.2532,7.2532,7.2532,7.2532,7.2532,7.2532,7.2532,7.2532,7.2532,7.2532,7.2532,7.2532,7.2532,7.2532,7.2532,7.2532,7.2532,7.2532,7.2532,7.2532,7.2532,7.2532,7.2532,7.2532,7.2532,7.2532,7.2481,7.238,7.2292,7.2144,7.1979,7.1826,7.1687,7.1415,7.0943,6.9972,6.9108,6.8466,6.7796,6.7257,6.6959,6.6854,6.6791,6.6791,6.6791,6.6791,6.6791,7.6621,7.6613,7.6505,7.64,7.6311,7.621,7.614,7.61,7.6059,7.6055,7.6041,7.597,7.591,7.5895,7.5802,7.574,7.5756,7.5764,7.5756,7.5756,7.5756,7.5779,7.5763,7.5747,7.5763,7.5732,7.5779,7.5779,7.5756,7.574,7.5764,7.5748,7.5724,7.5747,7.5747,7.5692,7.5636,7.5625,7.5625,7.5599,7.5549,7.5523,7.5535,7.5509,7.5509,7.5509,7.5509,7.5509,7.5509,7.5509,7.5509,7.5509,7.5509,7.5509,7.5509,7.5509,7.5509,7.5501,7.5392,7.5047,7.4873,7.4523,7.4029,7.3628,7.3233,7.2936,7.2695,7.2596,7.2532,7.2532,7.2532,7.2532,7.2532,7.2532,7.2532,7.2532,7.2532,7.2532,7.2532,7.2532,7.2532,7.2532,7.2532,7.2532,7.2532,7.2532,7.2532,7.2532,7.2532,7.2532,7.2532,7.2532,7.2532,7.2532,7.2496,7.2351,7.2218,7.2069,7.1903,7.1765,7.164,7.1562,7.1025,7.0354,6.9564,6.8884,6.8157,6.7488,6.7112,6.7029,6.6938,6.6812,6.6791,6.6791,6.6791,7.6306,7.6311,7.6132,7.6044,7.6054,7.594,7.5885,7.5872,7.5856,7.5849,7.5841,7.581,7.5786,7.5779,7.5755,7.5692,7.5692,7.5692,7.5692,7.5692,7.5692,7.5668,7.5674,7.5666,7.5633,7.5608,7.5599,7.5619,7.5684,7.57,7.5684,7.5684,7.5652,7.5666,7.5649,7.5608,7.5583,7.554,7.5532,7.5523,7.5518,7.5509,7.5509,7.5509,7.5509,7.5509,7.5509,7.5509,7.5509,7.5509,7.5509,7.5509,7.5509,7.5509,7.5509,7.5501,7.5492,7.5365,7.5132,7.4786,7.4502,7.3986,7.3504,7.318,7.2936,7.2681,7.251,7.2532,7.2532,7.2532,7.2532,7.2532,7.2532,7.2532,7.2532,7.2532,7.2532,7.2532,7.2532,7.2532,7.2532,7.2532,7.2532,7.2532,7.2532,7.2532,7.2532,7.2532,7.2532,7.2532,7.2532,7.2452,7.2438,7.2431,7.2365,7.2233,7.2114,7.1964,7.1826,7.1687,7.1609,7.151,7.1415,7.1058,7.025,6.9292,6.8865,6.8273,6.7756,6.7236,6.7071,6.6959,6.6854,6.6791,6.6791,7.5998,7.5979,7.578,7.5755,7.581,7.5747,7.5684,7.5692,7.57,7.57,7.5692,7.5676,7.5668,7.5699,7.569,7.5674,7.5644,7.5636,7.5628,7.5628,7.5628,7.5633,7.5591,7.5566,7.5549,7.5514,7.5535,7.5549,7.5633,7.5619,7.5636,7.5611,7.5591,7.5566,7.5557,7.5523,7.5518,7.5509,7.5509,7.5509,7.5509,7.5509,7.5509,7.5509,7.5509,7.5509,7.5509,7.5509,7.5509,7.5509,7.5509,7.5509,7.5509,7.5509,7.5436,7.5336,7.5356,7.5095,7.4843,7.4374,7.3995,7.3504,7.3246,7.2908,7.2672,7.2553,7.2532,7.2532,7.2532,7.2532,7.2532,7.2532,7.2532,7.2532,7.2532,7.2532,7.2532,7.2532,7.2532,7.2532,7.2532,7.2532,7.2532,7.2532,7.2532,7.2532,7.2532,7.2532,7.2532,7.2532,7.2518,7.2409,7.2387,7.2314,7.2189,7.2084,7.1979,7.1909,7.1749,7.1589,7.1542,7.1494,7.1415,7.132,7.0507,6.9636,6.9347,6.8996,6.8293,6.7716,6.7325,6.705,6.6896,6.6812,6.6791,7.5764,7.5718,7.5636,7.5666,7.5692,7.5649,7.5658,7.5684,7.5676,7.5692,7.5668,7.5649,7.5616,7.5599,7.554,7.5553,7.5553,7.5532,7.554,7.554,7.5532,7.5523,7.5535,7.5527,7.5535,7.5509,7.5509,7.5518,7.5532,7.5532,7.5514,7.5514,7.5523,7.5489,7.5544,7.5518,7.5509,7.5509,7.5509,7.5509,7.5509,7.5509,7.5509,7.5509,7.5509,7.5509,7.5509,7.5509,7.5509,7.5509,7.5509,7.5509,7.5509,7.5509,7.5226,7.4951,7.4776,7.4756,7.4529,7.4033,7.3516,7.318,7.2908,7.2638,7.2524,7.2532,7.2532,7.2532,7.2532,7.2532,7.2532,7.2532,7.2532,7.2532,7.2532,7.2532,7.2532,7.2532,7.2532,7.2532,7.2532,7.2532,7.2532,7.2532,7.2532,7.2532,7.2532,7.2532,7.2481,7.2467,7.2475,7.2402,7.2218,7.2151,7.2039,7.1918,7.1826,7.1786,7.1672,7.1542,7.151,7.1494,7.1494,7.124,7.0524,7.0198,7.0095,6.96,6.8809,6.8137,6.7656,6.7257,6.6896,6.6833,6.6791,7.5616,7.5649,7.5557,7.5574,7.5641,7.5557,7.5549,7.5583,7.5591,7.5591,7.5583,7.5549,7.5523,7.5561,7.5518,7.5518,7.5509,7.5509,7.5509,7.5509,7.5509,7.5509,7.5518,7.5509,7.5509,7.5509,7.5509,7.5509,7.5509,7.5509,7.5509,7.5509,7.5509,7.5518,7.5509,7.5509,7.5509,7.5509,7.5509,7.5509,7.5509,7.5509,7.5509,7.5509,7.5509,7.5509,7.5509,7.5509,7.5509,7.5509,7.5509,7.5509,7.5409,7.5245,7.4912,7.4735,7.4143,7.3928,7.3821,7.3491,7.3207,7.2908,7.2653,7.2524,7.2532,7.2532,7.2532,7.2532,7.2532,7.2532,7.2532,7.2532,7.2532,7.2532,7.2532,7.2532,7.2532,7.2532,7.2532,7.2532,7.2532,7.2532,7.2532,7.2532,7.2532,7.2532,7.2532,7.2532,7.2452,7.2394,7.2387,7.2329,7.2151,7.1933,7.1857,7.1749,7.1687,7.1625,7.1625,7.151,7.151,7.1494,7.1494,7.1494,7.1139,7.096,7.0842,6.9955,6.8828,6.8331,6.7955,6.7488,6.705,6.6833,6.6791,7.5544,7.5557,7.5535,7.5544,7.5557,7.5535,7.5518,7.5518,7.5518,7.5518,7.5509,7.5518,7.5518,7.5509,7.5509,7.5509,7.5509,7.5509,7.5509,7.5509,7.5509,7.5509,7.5509,7.5509,7.5509,7.5509,7.5509,7.5509,7.5509,7.5509,7.5509,7.5509,7.5509,7.5509,7.5509,7.5509,7.5509,7.5509,7.5509,7.5509,7.5509,7.5509,7.5509,7.5509,7.5509,7.5509,7.5509,7.5509,7.5509,7.5509,7.5509,7.5436,7.5236,7.4951,7.4571,7.4243,7.3677,7.3363,7.3246,7.3007,7.2867,7.2667,7.2532,7.2532,7.2532,7.2532,7.2532,7.2532,7.2532,7.2532,7.2532,7.2532,7.2532,7.2532,7.2532,7.2532,7.2532,7.2532,7.2532,7.2532,7.2532,7.2532,7.2532,7.2532,7.2532,7.2532,7.2532,7.2532,7.2438,7.238,7.2292,7.2248,7.2099,7.1888,7.1718,7.1625,7.151,7.1494,7.1494,7.1494,7.1494,7.1494,7.1494,7.1494,7.1494,7.1415,7.1171,6.999,6.8903,6.8771,6.8505,6.7716,6.7257,6.7009,6.6833,7.5518,7.5518,7.5518,7.5518,7.5489,7.5518,7.5509,7.5509,7.5509,7.5509,7.5509,7.5509,7.5509,7.5509,7.5509,7.5509,7.5509,7.5509,7.5509,7.5509,7.5509,7.5509,7.5509,7.5509,7.5509,7.5509,7.5509,7.5509,7.5509,7.5509,7.5509,7.5509,7.5509,7.5509,7.5509,7.5509,7.5509,7.5509,7.5509,7.5509,7.5509,7.5509,7.5509,7.5509,7.5509,7.5509,7.5509,7.5509,7.5418,7.5418,7.5392,7.5171,7.4833,7.4592,7.4165,7.3689,7.3364,7.3031,7.2784,7.2709,7.2582,7.251,7.2532,7.2532,7.2532,7.2532,7.2532,7.2532,7.2532,7.2532,7.2532,7.2532,7.2532,7.2532,7.2532,7.2532,7.2532,7.2532,7.2532,7.2532,7.2532,7.2532,7.2532,7.2532,7.2532,7.2532,7.2532,7.2532,7.2518,7.2409,7.2277,7.2189,7.2084,7.1888,7.1625,7.151,7.1494,7.1494,7.1494,7.1494,7.1494,7.1494,7.1494,7.1494,7.1494,7.1494,7.1463,7.0692,7.0042,6.9618,6.9054,6.837,6.7816,6.759,6.7277,7.5509,7.5509,7.5509,7.5509,7.5509,7.5509,7.5509,7.5509,7.5509,7.5509,7.5509,7.5509,7.5509,7.5509,7.5509,7.5509,7.5509,7.5509,7.5509,7.5509,7.5509,7.5509,7.5509,7.5509,7.5509,7.5509,7.5509,7.5509,7.5509,7.5509,7.5509,7.5509,7.5509,7.5509,7.5509,7.5509,7.5509,7.5509,7.5509,7.5509,7.5509,7.5509,7.5509,7.5509,7.5509,7.5509,7.5509,7.5509,7.53,7.5114,7.5076,7.4773,7.4369,7.4075,7.3701,7.3298,7.302,7.2742,7.2596,7.2532,7.2532,7.2532,7.2532,7.2532,7.2532,7.2532,7.2532,7.2532,7.2532,7.2532,7.2532,7.2532,7.2532,7.2532,7.2532,7.2532,7.2532,7.2532,7.2532,7.2532,7.2532,7.2532,7.2532,7.2532,7.2532,7.2532,7.2532,7.2518,7.2489,7.2446,7.2263,7.2114,7.1994,7.1888,7.1656,7.1578,7.1494,7.1494,7.1494,7.1494,7.1494,7.1494,7.1494,7.1494,7.1494,7.1494,7.1494,7.1494,7.1025,7.0181,6.9618,6.9091,6.8619,6.8196,6.7796,7.5509,7.5509,7.5509,7.5509,7.5509,7.5509,7.5509,7.5509,7.5509,7.5509,7.5509,7.5509,7.5509,7.5509,7.5509,7.5509,7.5509,7.5509,7.5509,7.5509,7.5509,7.5509,7.5509,7.5509,7.5509,7.5509,7.5509,7.5509,7.5509,7.5509,7.5509,7.5509,7.5509,7.5509,7.5509,7.5509,7.5509,7.5509,7.5509,7.5509,7.5509,7.5509,7.5509,7.5509,7.5509,7.5509,7.5509,7.5501,7.5365,7.5085,7.4853,7.4497,7.4056,7.3616,7.3272,7.3017,7.2756,7.251,7.2532,7.2532,7.2532,7.2532,7.2532,7.2532,7.2532,7.2532,7.2532,7.2532,7.2532,7.2532,7.2532,7.2532,7.2532,7.2532,7.2532,7.2532,7.2532,7.2532,7.2532,7.2532,7.2532,7.2532,7.2532,7.2532,7.2532,7.2532,7.2532,7.2452,7.238,7.2307,7.2218,7.2054,7.1954,7.1811,7.1703,7.1609,7.1494,7.1494,7.1494,7.1494,7.1494,7.1494,7.1494,7.1494,7.1494,7.1494,7.1494,7.1494,7.1074,7.049,6.9937,6.9384,6.9474,6.9052,6.8466,7.5509,7.5509,7.5509,7.5509,7.5509,7.5509,7.5509,7.5509,7.5509,7.5509,7.5509,7.5509,7.5509,7.5509,7.5509,7.5509,7.5509,7.5509,7.5509,7.5509,7.5509,7.5509,7.5509,7.5509,7.5509,7.5509,7.5509,7.5509,7.5509,7.5509,7.5509,7.5509,7.5509,7.5509,7.5509,7.5509,7.5509,7.5509,7.5509,7.5509,7.5509,7.5509,7.5509,7.5509,7.5509,7.5509,7.5509,7.5509,7.5356,7.5038,7.4715,7.4309,7.3748,7.3402,7.3044,7.2638,7.2567,7.2532,7.2532,7.2532,7.2532,7.2532,7.2532,7.2532,7.2532,7.2532,7.2532,7.2532,7.2532,7.2532,7.2532,7.2532,7.2532,7.2532,7.2532,7.2532,7.2532,7.2532,7.2532,7.2532,7.2532,7.2532,7.2532,7.2532,7.2532,7.2532,7.2532,7.2438,7.2336,7.2233,7.2129,7.2039,7.1924,7.1832,7.1687,7.1593,7.1494,7.1494,7.1494,7.1494,7.1494,7.1494,7.1494,7.1494,7.1494,7.1494,7.1494,7.1494,7.1123,7.0795,7.0095,6.9707,6.9867,6.9814,6.92,7.5509,7.5509,7.5509,7.5509,7.5509,7.5509,7.5509,7.5509,7.5509,7.5509,7.5509,7.5509,7.5509,7.5509,7.5509,7.5509,7.5509,7.5509,7.5509,7.5509,7.5509,7.5509,7.5509,7.5509,7.5509,7.5509,7.5509,7.5509,7.5509,7.5509,7.5509,7.5509,7.5509,7.5509,7.5509,7.5509,7.5509,7.5509,7.5509,7.5509,7.5509,7.5509,7.5509,7.5509,7.5509,7.5501,7.5436,7.5418,7.5199,7.4723,7.4309,7.389,7.3288,7.2894,7.2714,7.251,7.2532,7.2532,7.2532,7.2532,7.2532,7.2532,7.2532,7.2532,7.2532,7.2532,7.2532,7.2532,7.2532,7.2532,7.2532,7.2532,7.2532,7.2532,7.2532,7.2532,7.2532,7.2532,7.2532,7.2532,7.2532,7.2518,7.2518,7.2409,7.2394,7.2365,7.2351,7.2351,7.2263,7.2159,7.2018,7.1994,7.1903,7.1796,7.1687,7.1593,7.1494,7.1494,7.1494,7.1494,7.1494,7.1494,7.1494,7.1494,7.1494,7.1494,7.1494,7.1479,7.1415,7.1042,7.0558,7.037,7.0659,7.044,6.9814,7.5509,7.5509,7.5509,7.5509,7.5509,7.5509,7.5509,7.5509,7.5509,7.5509,7.5509,7.5509,7.5509,7.5509,7.5509,7.5509,7.5509,7.5509,7.5509,7.5509,7.5509,7.5509,7.5509,7.5509,7.5509,7.5509,7.5509,7.5509,7.5509,7.5509,7.5509,7.5509,7.5509,7.5509,7.5509,7.5509,7.5509,7.5509,7.5509,7.5509,7.5509,7.5509,7.5509,7.5509,7.5492,7.5409,7.5272,7.5095,7.4853,7.4214,7.3762,7.3454,7.2899,7.261,7.2539,7.2532,7.2532,7.2532,7.2532,7.2532,7.2532,7.2532,7.2532,7.2532,7.2532,7.2532,7.2532,7.2532,7.2532,7.2532,7.2532,7.2532,7.2532,7.2532,7.2532,7.2532,7.2532,7.2532,7.2532,7.2532,7.2481,7.2467,7.2409,7.2336,7.2277,7.2233,7.2204,7.2189,7.2174,7.2054,7.1897,7.1821,7.1811,7.1703,7.1625,7.1578,7.151,7.1494,7.1494,7.1494,7.1494,7.1494,7.1494,7.1494,7.1494,7.1494,7.1494,7.1463,7.1431,7.1431,7.1304,7.1288,7.1515,7.0861,7.0025,7.5509,7.5509,7.5509,7.5509,7.5509,7.5509,7.5509,7.5509,7.5509,7.5509,7.5509,7.5509,7.5509,7.5509,7.5509,7.5509,7.5509,7.5509,7.5509,7.5509,7.5509,7.5509,7.5509,7.5509,7.5509,7.5509,7.5509,7.5509,7.5509,7.5509,7.5509,7.5509,7.5509,7.5509,7.5509,7.5509,7.5509,7.5509,7.5509,7.5509,7.5509,7.5509,7.5418,7.5392,7.53,7.5076,7.4873,7.4644,7.4401,7.3975,7.3566,7.3388,7.3111,7.2756,7.261,7.2532,7.2532,7.2532,7.2532,7.2532,7.2532,7.2532,7.2532,7.2532,7.2532,7.2532,7.2532,7.2532,7.2532,7.2532,7.2532,7.2532,7.2532,7.2532,7.2532,7.2532,7.2532,7.2532,7.2532,7.2481,7.2467,7.2409,7.2277,7.2189,7.2108,7.2114,7.2054,7.1994,7.1964,7.1857,7.1749,7.162,7.1573,7.1542,7.1494,7.151,7.151,7.1494,7.1494,7.1494,7.1494,7.1494,7.1494,7.1494,7.1494,7.1494,7.1494,7.1494,7.1479,7.1494,7.1494,7.1494,7.1515,7.0625,6.9832,7.5509,7.5509,7.5509,7.5509,7.5509,7.5509,7.5509,7.5509,7.5509,7.5509,7.5509,7.5509,7.5509,7.5509,7.5509,7.5509,7.5509,7.5509,7.5509,7.5509,7.5509,7.5509,7.5509,7.5509,7.5509,7.5509,7.5509,7.5509,7.5509,7.5509,7.5509,7.5509,7.5509,7.5509,7.5509,7.5509,7.5445,7.5492,7.5445,7.5445,7.5436,7.5427,7.5263,7.5057,7.4942,7.4654,7.4347,7.4199,7.3963,7.3529,7.3364,7.318,7.2686,7.2582,7.2532,7.2532,7.2532,7.2532,7.2532,7.2532,7.2532,7.2532,7.2532,7.2532,7.2532,7.2532,7.2532,7.2532,7.2532,7.2532,7.2532,7.2532,7.2532,7.2532,7.2532,7.2532,7.2532,7.2532,7.2532,7.2481,7.2452,7.2307,7.2174,7.2084,7.2003,7.1942,7.1882,7.1857,7.178,7.1703,7.164,7.151,7.1494,7.1494,7.1494,7.1494,7.1494,7.1494,7.1494,7.1494,7.1494,7.1494,7.1494,7.1494,7.1494,7.1494,7.1494,7.1494,7.1494,7.1494,7.1494,7.1494,7.132,7.0423,6.9618,7.5509,7.5509,7.5509,7.5509,7.5509,7.5509,7.5509,7.5509,7.5509,7.5509,7.5509,7.5509,7.5509,7.5509,7.5509,7.5509,7.5509,7.5509,7.5509,7.5509,7.5509,7.5509,7.5509,7.5509,7.5509,7.5509,7.5509,7.5509,7.5509,7.5509,7.5509,7.5509,7.5509,7.5509,7.5427,7.5272,7.5142,7.5245,7.53,7.5347,7.5263,7.5151,7.4873,7.455,7.4455,7.4181,7.3798,7.3725,7.3466,7.3074,7.298,7.2867,7.251,7.2496,7.2532,7.2532,7.2532,7.2532,7.2532,7.2532,7.2532,7.2532,7.2532,7.2532,7.2532,7.2532,7.2532,7.2532,7.2532,7.2532,7.2532,7.2532,7.2532,7.2532,7.2532,7.2532,7.2532,7.2532,7.2518,7.2504,7.2365,7.2218,7.2099,7.2009,7.1851,7.1759,7.1697,7.1651,7.162,7.1573,7.1542,7.1494,7.1494,7.1494,7.1494,7.1494,7.1494,7.1494,7.1494,7.1494,7.1494,7.1494,7.1494,7.1494,7.1494,7.1494,7.1494,7.1494,7.1494,7.1479,7.1399,7.122,7.0858,7.006,6.9347,7.5509,7.5509,7.5509,7.5509,7.5509,7.5509,7.5509,7.5509,7.5509,7.5509,7.5509,7.5509,7.5509,7.5509,7.5509,7.5509,7.5509,7.5509,7.5509,7.5509,7.5509,7.5509,7.5509,7.5509,7.5509,7.5509,7.5509,7.5509,7.5509,7.5509,7.5509,7.5509,7.5392,7.5309,7.5254,7.4863,7.4674,7.4695,7.4893,7.5009,7.4725,7.4602,7.4417,7.4018,7.3893,7.3737,7.3364,7.3154,7.3044,7.2672,7.251,7.2524,7.251,7.2532,7.2532,7.2532,7.2532,7.2532,7.2532,7.2532,7.2532,7.2532,7.2532,7.2532,7.2532,7.2532,7.2532,7.2532,7.2532,7.2532,7.2532,7.2532,7.2532,7.2532,7.2532,7.2532,7.2532,7.2481,7.2467,7.2409,7.2277,7.2129,7.1979,7.1857,7.1713,7.1573,7.1542,7.1526,7.151,7.1494,7.1494,7.1494,7.1494,7.1494,7.1494,7.1494,7.1494,7.1494,7.1494,7.1494,7.1494,7.1494,7.1494,7.1494,7.1494,7.1494,7.1494,7.1494,7.1479,7.1447,7.1304,7.0976,7.037,6.9618,6.9015,7.5509,7.5509,7.5509,7.5509,7.5509,7.5509,7.5509,7.5509,7.5509,7.5548,7.5509,7.5548,7.5586,7.57,7.5739,7.5739,7.5662,7.5853,7.5548,7.5662,7.57,7.5891,7.5624,7.5815,7.5624,7.5509,7.5509,7.5501,7.5409,7.5427,7.5445,7.5401,7.5142,7.4903,7.4873,7.4433,7.4165,7.4203,7.4214,7.4314,7.412,7.4101,7.3975,7.3603,7.3415,7.3233,7.2922,7.2737,7.2653,7.2496,7.2496,7.2496,7.2532,7.2532,7.2532,7.2532,7.2532,7.2532,7.2532,7.2532,7.2532,7.2532,7.2532,7.2532,7.2532,7.2532,7.2532,7.2532,7.2532,7.2532,7.2532,7.2532,7.2532,7.2532,7.2496,7.2496,7.2481,7.2452,7.2423,7.2307,7.2189,7.2039,7.1872,7.1734,7.1609,7.151,7.151,7.1494,7.1494,7.1494,7.1494,7.1494,7.1494,7.1494,7.1494,7.1494,7.1494,7.1494,7.1494,7.1494,7.1494,7.1494,7.1494,7.1494,7.1494,7.1494,7.1494,7.1494,7.1463,7.1431,7.1155,7.0809,6.9937,6.9073,6.8562,7.5509,7.5509,7.5509,7.5509,7.5509,7.5509,7.57,7.5968,7.6036,7.6274,7.6503,7.6274,7.6227,7.6532,7.6609,7.6494,7.6532,7.6609,7.6761,7.6694,7.6503,7.6723,7.6609,7.6456,7.6341,7.615,7.5645,7.5427,7.5208,7.5104,7.5066,7.4863,7.4481,7.4363,7.4309,7.3975,7.3677,7.3702,7.3529,7.3391,7.3441,7.3479,7.3415,7.3101,7.2894,7.2751,7.2681,7.2532,7.2532,7.2532,7.2532,7.2532,7.2532,7.2532,7.2532,7.2532,7.2532,7.2532,7.2532,7.2532,7.2532,7.2532,7.2532,7.2532,7.2532,7.2532,7.2532,7.2532,7.2532,7.2532,7.2532,7.2532,7.2532,7.2532,7.2481,7.2467,7.238,7.2277,7.2233,7.2159,7.2054,7.1957,7.1857,7.178,7.1656,7.1494,7.1494,7.1494,7.1494,7.1494,7.1494,7.1494,7.1494,7.1494,7.1494,7.1494,7.1494,7.1494,7.1494,7.1494,7.1494,7.1494,7.1494,7.1494,7.1494,7.1494,7.1494,7.1494,7.1494,7.1463,7.1107,7.0676,6.9689,6.8733,6.8215,7.5509,7.5509,7.5509,7.5509,7.5509,7.5624,7.6036,7.6609,7.6838,7.7335,7.7946,7.7373,7.7526,7.7793,7.8022,7.8022,7.787,7.7564,7.7755,7.7793,7.7793,7.7602,7.764,7.7793,7.7128,7.6293,7.557,7.5064,7.4633,7.4602,7.4455,7.4041,7.3914,7.3879,7.3774,7.3491,7.3193,7.3101,7.2949,7.2667,7.2714,7.2936,7.2853,7.2681,7.2532,7.2532,7.2532,7.2532,7.2532,7.2532,7.2532,7.2532,7.2532,7.2532,7.2532,7.2532,7.2532,7.2532,7.2532,7.2532,7.2532,7.2532,7.2532,7.2518,7.2518,7.2467,7.2467,7.2438,7.2438,7.2489,7.2489,7.2423,7.2423,7.2409,7.2394,7.238,7.2248,7.2129,7.2069,7.2009,7.1964,7.1882,7.1842,7.1765,7.1672,7.1562,7.1494,7.1494,7.1494,7.1494,7.1494,7.1494,7.1494,7.1494,7.1494,7.1494,7.1494,7.1494,7.1494,7.1494,7.1494,7.1494,7.1494,7.1494,7.1494,7.1494,7.1494,7.1494,7.1494,7.1494,7.0993,7.0457,6.9636,6.8733,6.8059,7.5509,7.5509,7.5509,7.5509,7.5586,7.6197,7.657,7.68,7.7487,7.8252,7.8834,7.891,7.8643,7.8022,7.8022,7.8137,7.8404,7.829,7.8099,7.7984,7.8328,7.8175,7.8024,7.8007,7.7237,7.6214,7.516,7.4356,7.4158,7.4109,7.4064,7.3916,7.3516,7.3415,7.3326,7.302,7.2751,7.2695,7.2681,7.2532,7.2532,7.2624,7.2596,7.251,7.2532,7.2532,7.2532,7.2532,7.2532,7.2532,7.2532,7.2532,7.2532,7.2532,7.2532,7.2532,7.2532,7.2532,7.2532,7.2532,7.2532,7.2532,7.2518,7.2489,7.246,7.2351,7.2307,7.2233,7.2233,7.2292,7.2277,7.2167,7.2137,7.2159,7.2144,7.2129,7.2033,7.1988,7.1957,7.1918,7.1857,7.1826,7.178,7.1687,7.1593,7.1494,7.1494,7.1494,7.1494,7.1494,7.1494,7.1494,7.1494,7.1494,7.1494,7.1494,7.1494,7.1494,7.1494,7.1494,7.1494,7.1494,7.1494,7.1494,7.1494,7.1494,7.1494,7.1494,7.1494,7.1415,7.0845,7.0234,6.9438,6.8676,6.7975]}]]